Date StartTime U_cm/s V_cm/s W_cm/s Ustd_cm/s Vstd_cm/s Wstd_cm/s Uvar_(cm/s)^2 Vvar_(cm/s)^2 Wvar_(cm/s)^2 KE_(m/s)^2 TurbulentKE_(m/s)^2 HorizWindSpeed_cm/s FrictionSpeec_cm/s DragCoef SpeedOfSound_m/s SonicTemperature_C Pressure_mb 
07/08/2014  00:00:00     -125.152      -23.379      -22.281       30.706       43.860       30.721      942.839     1923.734      943.766        1.026        0.191      127.317       27.337        0.046      349.501       29.977      860.854
07/08/2014  00:01:00      -83.482       -9.573        0.600       41.269       47.517       30.036     1703.140     2257.821      902.146        0.596        0.243       84.029       20.070        0.057      349.408       29.816      860.852
07/08/2014  00:02:00     -115.020       40.223      -17.417       45.874       60.856       29.032     2104.426     3703.412      842.851        1.090        0.333      121.850       22.068        0.033      349.404       29.808      860.851
07/08/2014  00:03:00      -63.276       65.662       -7.416       35.462       56.710       24.591     1257.588     3216.012      604.724        0.672        0.254       91.189       20.944        0.053      349.393       29.788      860.841
07/08/2014  00:04:00     -230.171      -22.175      -24.656       67.006       49.702       30.132     4489.830     2470.282      907.962        3.097        0.393      231.237       27.760        0.014      349.512       29.992      860.838
07/08/2014  00:05:00     -168.957      -90.920      -11.730       58.266       39.513       38.060     3394.971     1561.313     1448.526        2.168        0.320      191.867       33.238        0.030      349.493       29.960      860.844
07/08/2014  00:06:00     -117.675      -14.113        1.972       91.540       62.588       41.521     8379.606     3917.309     1724.013        1.403        0.701      118.518       50.525        0.182      349.418       29.831      860.852
07/08/2014  00:07:00      -33.742      -30.403       16.513       85.205       66.596       36.679     7259.863     4435.017     1345.373        0.769        0.652       45.419       50.263        1.225      349.265       29.565      860.865
07/08/2014  00:08:00      -80.501      -54.005        3.888       70.827       39.494       28.536     5016.531     1559.782      814.301        0.840        0.370       96.937       21.361        0.049      349.450       29.888      860.889
07/08/2014  00:09:00      -63.988      -51.199        8.234       72.745       51.840       28.911     5291.806     2687.372      835.819        0.780        0.441       81.950       35.439        0.187      349.382       29.767      860.910
07/08/2014  00:10:00     -204.357      -69.596      -16.622       37.764       29.054       24.849     1426.127      844.155      617.494        2.488        0.144      215.883       10.958        0.003      349.616       30.173      860.928
07/08/2014  00:11:00     -115.742       -1.031       -4.952       37.108       30.194       19.470     1377.020      911.690      379.081        0.804        0.133      115.746       16.844        0.021      349.572       30.099      860.961
07/08/2014  00:12:00      -52.914      -41.392       -1.459       41.714       20.601       10.856     1740.067      424.419      117.856        0.340        0.114       67.180       13.393        0.040      349.547       30.056      860.998
07/08/2014  00:13:00      -30.115      -59.397        9.225       29.427       29.173       20.018      865.929      851.076      400.717        0.332        0.106       66.595       20.061        0.091      349.640       30.217      861.015
07/08/2014  00:14:00      -18.722       -1.803       -4.452       26.013       11.146       10.092      676.671      124.244      101.856        0.064        0.045       18.808       12.408        0.435      349.562       30.078      861.024
07/08/2014  00:15:00       33.680      -28.300       -4.533       18.029       25.621       14.224      325.045      656.421      202.313        0.157        0.059       43.992       14.290        0.106      349.175       29.410      861.028
07/08/2014  00:16:00        9.961        2.442       23.325       35.907       24.043       23.501     1289.280      578.068      552.317        0.153        0.121       10.256       18.574        3.280      348.796       28.753      861.013
07/08/2014  00:17:00       19.142      -35.052       -0.708       23.789       25.553       29.092      565.923      652.938      846.372        0.183        0.103       39.938       21.061        0.278      349.032       29.161      861.001
07/08/2014  00:18:00       47.327      -17.780        4.026       37.480       27.374       24.238     1404.726      749.345      587.465        0.266        0.137       50.556       22.571        0.199      349.379       29.765      861.009
07/08/2014  00:19:00       18.954       -0.152       18.089       31.628       24.612       16.413     1000.320      605.731      269.395        0.128        0.094       18.954       17.058        0.810      349.401       29.801      861.019
07/08/2014  00:20:00        7.362       16.834       22.505       29.173       24.422       17.249      851.044      596.443      297.544        0.129        0.087       18.374       16.330        0.790      349.057       29.206      861.037
07/08/2014  00:21:00       24.902        3.720       12.543       21.040        9.693       16.962      442.670       93.946      287.722        0.081        0.041       25.178       10.328        0.168      348.608       28.428      861.049
07/08/2014  00:22:00       50.443       14.862        6.517       33.478       16.080       16.845     1120.772      258.556      283.749        0.224        0.083       52.587        3.933        0.006      348.572       28.365      861.053
07/08/2014  00:23:00       68.501       29.758       15.959       29.030       21.692       19.442      842.754      470.526      377.996        0.376        0.085       74.686       15.702        0.044      348.990       29.089      861.047
07/08/2014  00:24:00       56.929       16.630       15.937       30.884       26.225       20.202      953.801      687.739      408.101        0.291        0.102       59.308        7.256        0.015      348.915       28.961      861.039
07/08/2014  00:25:00       77.054       16.760        7.615       25.873       27.098       16.189      669.427      734.327      262.074        0.397        0.083       78.855        8.111        0.011      348.809       28.776      861.030
07/08/2014  00:26:00       54.583        0.026       17.185       34.771       22.262       23.928     1209.004      495.611      572.560        0.278        0.114       54.583       21.189        0.151      348.757       28.685      861.017
07/08/2014  00:27:00       55.876       30.197       45.313       31.549       31.629       32.270      995.370     1000.417     1041.369        0.456        0.152       63.514       30.330        0.228      348.809       28.775      861.013
07/08/2014  00:28:00       40.915       53.814       67.824       37.507       24.693       24.362     1406.799      609.720      593.531        0.589        0.131       67.602       20.037        0.088      348.639       28.481      861.006
07/08/2014  00:29:00       28.418       40.280       59.914       29.115       35.943       21.453      847.676     1291.932      460.229        0.431        0.130       49.295       20.348        0.170      348.541       28.311      861.000
07/08/2014  00:30:00       74.059       29.912       62.938       60.922       41.503       36.723     3711.448     1722.534     1348.598        0.856        0.339       79.872       39.716        0.247      348.745       28.666      860.995
07/08/2014  00:31:00       92.717       39.044       54.128       46.794       37.519       37.099     2189.715     1407.678     1376.371        0.901        0.249      100.603       31.212        0.096      349.225       29.497      860.991
07/08/2014  00:32:00       36.264        4.420       33.129       31.279       39.353       26.995      978.401     1548.636      728.752        0.284        0.163       36.533       28.509        0.609      349.166       29.394      860.987
07/08/2014  00:33:00       53.880       46.775       61.097       30.090       25.428       26.843      905.429      646.573      720.551        0.555        0.114       71.351       18.856        0.070      349.260       29.558      860.975
07/08/2014  00:34:00       36.469       73.426       80.054       31.171       34.495       15.533      971.638     1189.934      241.283        0.777        0.120       81.984       17.290        0.044      349.333       29.685      860.960
07/08/2014  00:35:00       22.659       47.441       61.925       29.512       29.603       21.341      870.942      876.361      455.436        0.440        0.110       52.574        6.987        0.018      349.369       29.746      860.950
07/08/2014  00:36:00       27.235       61.702       90.422       34.071       36.907       22.866     1160.843     1362.114      522.868        0.788        0.152       67.445       24.736        0.135      349.376       29.758      860.952
07/08/2014  00:37:00       16.826       68.951       77.160       30.081       43.998       29.555      904.862     1935.783      873.499        0.735        0.186       70.974       29.633        0.174      349.335       29.688      860.946
07/08/2014  00:38:00       67.316        3.543       30.370       55.320       34.902       32.112     3060.254     1218.131     1031.195        0.539        0.265       67.409       34.044        0.255      349.303       29.632      860.940
07/08/2014  00:39:00       27.573       47.001       68.382       44.427       39.883       26.370     1973.737     1590.619      695.371        0.595        0.213       54.492       28.375        0.271      349.261       29.557      860.952
07/08/2014  00:40:00       40.722       51.001       88.337       50.417       51.938       44.515     2541.899     2697.604     1981.595        0.964        0.361       65.264       37.737        0.334      349.226       29.498      860.965
07/08/2014  00:41:00       38.636       23.088       77.245       56.344       78.926       50.384     3174.608     6229.361     2538.519        0.997        0.597       45.009       46.095        1.049      349.264       29.565      860.979
07/08/2014  00:42:00      115.843     -116.379        7.786       78.653      103.678       52.028     6186.286    10749.054     2706.872        2.333        0.982      164.206       48.226        0.086      349.257       29.549      860.987
07/08/2014  00:43:00      122.414      -18.141       45.494       68.530       96.666       53.067     4696.360     9344.357     2816.056        1.712        0.843      123.751       66.714        0.291      349.205       29.460      860.983
07/08/2014  00:44:00       28.703       16.261       51.406       41.325       55.122       38.725     1707.754     3038.446     1499.635        0.499        0.312       32.989       31.626        0.919      349.175       29.409      860.975
07/08/2014  00:45:00      105.866      -16.195       41.687       69.808       63.767       41.908     4873.100     4066.187     1756.281        1.195        0.535      107.098       40.197        0.141      349.179       29.416      860.969
07/08/2014  00:46:00       78.110       -9.523       47.714       73.875       78.290       53.796     5457.545     6129.284     2893.980        1.147        0.724       78.688       56.548        0.516      349.132       29.336      860.972
07/08/2014  00:47:00       74.008      -38.196       40.454       59.807       68.731       44.453     3576.822     4723.949     1976.041        0.942        0.514       83.284       41.297        0.246      349.120       29.314      861.002
07/08/2014  00:48:00       34.282       37.161       66.030       46.986       66.549       48.548     2207.697     4428.756     2356.933        0.795        0.450       50.559       53.008        1.099      349.068       29.224      861.034
07/08/2014  00:49:00       45.016       30.814       73.775       55.034       64.519       46.531     3028.777     4162.679     2165.091        0.889        0.468       54.553       48.010        0.775      349.035       29.169      861.054
07/08/2014  00:50:00      129.078      -94.406       11.395       76.947       93.786       48.530     5920.864     8795.836     2355.114        2.138        0.854      159.918       61.682        0.149      349.042       29.178      861.060
07/08/2014  00:51:00       39.482       27.228       57.950       54.142       63.939       39.970     2931.348     4088.183     1597.633        0.714        0.431       47.960       40.951        0.729      348.920       28.968      861.078
07/08/2014  00:52:00       81.305      -84.212        8.016       56.864       66.967       37.384     3233.524     4484.528     1397.579        1.144        0.456      117.056       43.636        0.139      348.933       28.989      861.080
07/08/2014  00:53:00       75.655       52.750       61.623       72.403       64.070       50.736     5242.145     4104.946     2574.162        1.211        0.596       92.230       49.518        0.288      348.833       28.816      861.063
07/08/2014  00:54:00      152.846       90.177       80.525       98.762       88.192       60.767     9753.948     7777.897     3692.622        2.960        1.061      177.465       52.640        0.088      348.736       28.647      861.040
07/08/2014  00:55:00       15.976       61.693       79.702       46.562       47.734       45.820     2167.997     2278.507     2099.505        0.848        0.327       63.728       39.604        0.386      348.663       28.525      861.034
07/08/2014  00:56:00       57.079      -13.200       45.752       62.000       79.691       56.010     3843.939     6350.722     3137.071        0.943        0.667       58.585       47.011        0.644      348.619       28.448      861.049
07/08/2014  00:57:00       50.874      -59.415        8.799       57.599       66.203       33.024     3317.607     4382.818     1090.613        0.749        0.440       78.220       24.195        0.096      348.529       28.290      861.012
07/08/2014  00:58:00       49.036       -0.239       19.704       33.763       41.410       23.836     1139.945     1714.800      568.149        0.311        0.171       49.037       17.477        0.127      348.524       28.282      860.983
07/08/2014  00:59:00      -44.210       73.116      -19.583       46.968       35.108       21.714     2206.017     1232.588      471.515        0.580        0.196       85.443       25.936        0.092      348.687       28.565      860.920
07/08/2014  01:00:00      -22.332       43.371        3.923       44.272       59.160       25.781     1960.046     3499.851      664.684        0.426        0.306       48.783       29.707        0.371      348.626       28.457      860.861
07/08/2014  01:01:00       29.454      -81.974       -8.585       26.398       27.626       17.786      696.863      763.198      316.359        0.472        0.089       87.105       11.844        0.018      348.442       28.142      860.877
07/08/2014  01:02:00      -67.784      -54.845       -8.749       42.737       30.020       11.965     1826.480      901.185      143.164        0.527        0.144       87.193        9.580        0.012      348.607       28.428      860.822
07/08/2014  01:03:00      -91.721     -114.719       -7.452       58.880       55.269       28.648     3466.853     3054.615      820.727        1.448        0.367      146.878       29.248        0.040      348.672       28.539      860.763
07/08/2014  01:04:00      -78.094     -150.654      -17.845       69.684       57.729       32.117     4855.881     3332.686     1031.506        1.917        0.461      169.692       25.548        0.023      348.970       29.054      860.699
07/08/2014  01:05:00     -262.465     -294.481      -19.733       85.792       97.104       57.100     7360.286     9429.098     3260.398        8.802        1.002      394.471       43.569        0.012      349.000       29.104      860.598
07/08/2014  01:06:00     -212.346     -186.104       -3.664      107.726      142.477       63.873    11604.788    20299.807     4079.755        5.786        1.799      282.357       53.610        0.036      348.989       29.083      860.462
07/08/2014  01:07:00     -341.998     -183.997       -2.216      225.757      161.228       85.939    50966.406    25994.573     7385.532       11.757        4.217      388.352       91.526        0.056      349.247       29.532      860.284
07/08/2014  01:08:00     -163.056     -450.562      -33.561      252.788      230.365      105.039    63901.541    53067.966    11033.217       17.934        6.400      479.159       74.290        0.024      350.067       30.953      860.327
07/08/2014  01:09:00     -184.769     -267.693      -16.355      179.218      134.041       58.618    32118.932    17967.014     3436.115        7.979        2.676      325.268       39.427        0.015      350.305       31.368      860.387
07/08/2014  01:10:00      -81.895     -139.833      -27.975       63.367       78.810       51.038     4015.356     6210.981     2604.921        1.993        0.642      162.050       16.144        0.010      350.070       30.960      860.483
07/08/2014  01:11:00      -76.181     -111.491      -13.106       77.305       94.048       49.915     5976.051     8845.023     2491.510        1.786        0.866      135.033       32.247        0.057      350.352       31.453      860.486
07/08/2014  01:12:00      -14.187       23.863       25.989       81.521       59.473       53.811     6645.686     3537.011     2895.656        0.726        0.654       27.761       47.979        2.987      349.937       30.730      860.564
07/08/2014  01:13:00      122.656       48.293       31.664      108.556       76.551       59.256    11784.303     5860.091     3511.227        1.976        1.058      131.821       40.881        0.096      349.579       30.108      860.707
07/08/2014  01:14:00      212.375      129.723       82.912      126.616       89.741       73.395    16031.536     8053.412     5386.801        4.913        1.474      248.860       69.871        0.079      349.369       29.742      860.816
07/08/2014  01:15:00      174.453      123.009       46.973       64.754       60.157       59.147     4193.116     3618.885     3498.410        2.954        0.566      213.460       31.567        0.022      349.000       29.102      860.855
07/08/2014  01:16:00      103.205       98.274       15.545       85.141       71.419       46.563     7249.055     5100.696     2168.083        1.753        0.726      142.510       45.501        0.102      348.959       29.033      860.841
07/08/2014  01:17:00       98.371      157.341        7.755      124.045      125.189       67.840    15387.218    15672.401     4602.256        3.507        1.783      185.562       72.146        0.151      348.996       29.098      860.829
07/08/2014  01:18:00      123.068       90.688       16.148       64.661       72.966       60.105     4181.099     5324.080     3612.627        1.837        0.656      152.873       41.456        0.074      349.018       29.137      860.841
07/08/2014  01:19:00       69.667       37.730       73.230       72.616       76.457       72.209     5273.150     5845.632     5214.186        1.398        0.817       79.228       63.126        0.635      349.150       29.366      860.845
07/08/2014  01:20:00      -11.280      -42.660       -6.626       38.202       39.978       27.375     1459.396     1598.205      749.390        0.290        0.190       44.127       16.423        0.139      349.898       30.665      860.843
07/08/2014  01:21:00       -5.949      -90.091       -9.189       43.259       46.142       30.945     1871.378     2129.082      957.598        0.660        0.248       90.288       26.737        0.088      349.820       30.529      860.824
07/08/2014  01:22:00      -43.727     -150.858        5.966       45.493       60.718       26.616     2069.593     3686.694      708.405        1.558        0.323      157.067       34.227        0.047      349.342       29.701      860.838
07/08/2014  01:23:00      -14.513     -137.250       -6.887       28.924       31.598       20.243      836.591      998.451      409.799        1.067        0.112      138.015       14.577        0.011      349.387       29.778      860.857
07/08/2014  01:24:00       52.216      -96.472       -1.269       44.022       54.757       28.723     1937.947     2998.306      825.014        0.890        0.288      109.697       19.826        0.033      349.403       29.806      860.870
07/08/2014  01:25:00       -1.477      -62.656       -8.351       44.036       26.828       20.868     1939.208      719.734      435.466        0.355        0.155       62.674       18.197        0.084      349.409       29.817      860.866
07/08/2014  01:26:00       46.591      -88.426      -10.953       35.930       38.886       28.616     1290.935     1512.149      818.866        0.687        0.181       99.949       18.310        0.034      349.360       29.731      860.839
07/08/2014  01:27:00      -14.573      -19.870        5.634       22.827       22.590       16.186      521.062      510.295      261.980        0.097        0.065       24.642       13.922        0.319      349.296       29.620      860.787
07/08/2014  01:28:00      -23.335      -18.487        4.120       31.215       33.775       16.561      974.369     1140.721      274.272        0.165        0.119       29.770        9.349        0.099      349.223       29.494      860.738
07/08/2014  01:29:00      -44.997     -105.354       -7.713       29.844       37.699       23.586      890.649     1421.202      556.317        0.803        0.143      114.561       16.259        0.020      349.115       29.308      860.706
07/08/2014  01:30:00      -22.276      -87.763        8.144       33.425       31.193       19.180     1117.250      973.008      367.891        0.536        0.123       90.546       22.482        0.062      349.226       29.498      860.694
07/08/2014  01:31:00      -13.230      -89.696        7.953       25.517       35.182       19.102      651.095     1237.762      364.903        0.527        0.113       90.666       16.022        0.031      349.209       29.470      860.696
07/08/2014  01:32:00      -27.881      -28.905       16.446       31.197       27.742       25.611      973.271      769.598      655.908        0.214        0.120       40.160       21.247        0.280      349.075       29.235      860.687
07/08/2014  01:33:00        3.880       -3.343       15.160       13.950       14.558       10.727      194.593      211.935      115.078        0.039        0.026        5.121       11.533        5.072      348.995       29.097      860.680
07/08/2014  01:34:00       23.067       13.973       14.679        8.836        7.996       11.669       78.081       63.934      136.165        0.061        0.014       26.969        5.825        0.047      349.017       29.136      860.672
07/08/2014  01:35:00       33.287       57.558      -10.433       28.691       30.074       18.410      823.197      904.475      338.930        0.330        0.103       66.490       17.746        0.071      348.880       28.899      860.688
07/08/2014  01:36:00       99.447       57.494       22.801       47.010       50.984       29.322     2209.960     2599.364      859.802        0.969        0.283      114.870       21.357        0.035      348.752       28.678      860.738
07/08/2014  01:37:00      151.490      104.606       22.313       56.593       48.032       41.576     3202.822     2307.084     1728.560        2.081        0.362      184.097       31.813        0.030      348.705       28.593      860.773
07/08/2014  01:38:00      155.831      123.289       25.950       56.669       40.544       37.637     3211.371     1643.804     1416.576        2.321        0.314      198.704       30.901        0.024      348.675       28.541      860.791
07/08/2014  01:39:00      144.155      105.178       25.546       62.166       50.091       39.460     3864.640     2509.134     1557.091        2.021        0.397      178.446       21.872        0.015      348.696       28.577      860.772
07/08/2014  01:40:00      101.080      101.246        3.691       53.876       67.141       50.306     2902.676     4507.864     2530.732        1.521        0.497      143.066       45.697        0.102      348.703       28.592      860.738
07/08/2014  01:41:00       88.126      137.137       -9.687       58.258       77.763       50.343     3394.004     6047.132     2534.414        1.932        0.599      163.011       47.033        0.083      348.746       28.666      860.689
07/08/2014  01:42:00       11.191      168.390      -18.846       33.537       43.558       34.278     1124.717     1897.329     1174.957        1.652        0.210      168.762       27.305        0.026      348.715       28.613      860.640
07/08/2014  01:43:00       -6.925      142.599      -21.762       17.128       23.552       11.533      293.361      554.704      133.015        1.092        0.049      142.767        9.440        0.004      348.780       28.725      860.603
07/08/2014  01:44:00      -44.564       99.824      -16.154       27.072       30.215       16.895      732.908      912.941      285.441        0.707        0.097      109.320       14.933        0.019      348.780       28.725      860.577
07/08/2014  01:45:00      -67.920       38.797      -10.602       33.359       35.872       16.601     1112.837     1286.835      275.585        0.445        0.134       78.220       12.935        0.027      348.725       28.632      860.551
07/08/2014  01:46:00      -83.053       32.309      -10.600       17.109       19.972       12.307      292.719      398.900      151.469        0.445        0.042       89.116        8.382        0.009      348.698       28.585      860.524
07/08/2014  01:47:00      -71.575       -2.492      -11.559       35.480       15.062       13.228     1258.808      226.850      174.993        0.346        0.083       71.619       12.456        0.030      348.544       28.318      860.508
07/08/2014  01:48:00     -125.340       19.063      -12.925       49.106       27.695       19.724     2411.351      767.025      389.024        0.990        0.178      126.782       15.925        0.016      348.672       28.538      860.502
07/08/2014  01:49:00     -117.856       57.779      -10.453       44.379       24.383       21.055     1969.473      594.526      443.324        1.017        0.150      131.257       16.182        0.015      348.807       28.774      860.516
07/08/2014  01:50:00      -43.587       68.570       -5.139       34.451       39.905       17.422     1186.898     1592.377      303.509        0.485        0.154       81.251       13.470        0.027      348.831       28.815      860.554
07/08/2014  01:51:00       88.312       37.661        9.629       47.862       30.075       23.729     2290.756      904.494      563.065        0.653        0.188       96.007       22.988        0.057      348.654       28.508      860.586
07/08/2014  01:52:00      131.161       76.340       29.552       34.264       32.332       31.343     1174.015     1045.366      982.356        1.355        0.160      151.760       16.630        0.012      348.617       28.446      860.582
07/08/2014  01:53:00      108.103       81.249       15.287       39.095       27.942       24.624     1528.416      780.783      606.336        1.072        0.146      135.232        9.920        0.005      348.589       28.394      860.569
07/08/2014  01:54:00      161.577      108.649       18.413       80.795       52.845       53.723     6527.798     2792.628     2886.128        2.523        0.610      194.710       25.582        0.017      348.646       28.491      860.567
07/08/2014  01:55:00      163.562      106.313       13.297       78.351       70.234       50.823     6138.905     4932.748     2582.988        2.594        0.683      195.076       44.060        0.051      348.603       28.418      860.600
07/08/2014  01:56:00      157.436      167.573       12.639       99.241       71.690       66.905     9848.820     5139.473     4476.262        3.624        0.973      229.928       57.838        0.063      348.708       28.597      860.584
07/08/2014  01:57:00       -9.553      266.951      -26.441       76.045       96.281       57.639     5782.906     9270.089     3322.211        4.521        0.919      267.122       56.317        0.044      348.773       28.710      860.541
07/08/2014  01:58:00      -72.996      240.583      -31.715       64.744       85.537       40.815     4191.830     7316.662     1665.874        3.869        0.659      251.413       28.239        0.013      348.771       28.706      860.478
07/08/2014  01:59:00      -88.892      156.744      -19.024       66.375       71.004       30.728     4405.702     5041.548      944.221        2.161        0.520      180.196       27.058        0.023      348.752       28.675      860.446
07/08/2014  02:00:00     -105.285      218.067      -26.635       73.808       82.677       44.643     5447.679     6835.461     1992.957        3.681        0.714      242.153       47.663        0.039      348.909       28.944      860.429
07/08/2014  02:01:00      -18.103      170.768      -18.588       64.875       52.870       36.430     4208.797     2795.260     1327.140        1.908        0.417      171.724       30.235        0.031      348.850       28.845      860.430
07/08/2014  02:02:00        6.497      223.156      -38.953       37.101       33.978       22.927     1376.516     1154.529      525.637        2.721        0.153      223.250       19.512        0.008      348.950       29.018      860.430
07/08/2014  02:03:00      -33.010      126.261      -20.356       58.645       62.441       32.079     3439.183     3898.895     1029.085        1.291        0.418      130.505       34.640        0.070      348.828       28.807      860.408
07/08/2014  02:04:00      -45.023      114.156      -26.189       40.990       42.049       22.144     1680.199     1768.113      490.354        0.984        0.197      122.714       21.399        0.030      348.883       28.903      860.385
07/08/2014  02:05:00      -53.709       22.057      -11.044       18.817       19.170       12.699      354.062      367.474      161.253        0.219        0.044       58.062       11.166        0.037      348.730       28.639      860.384
07/08/2014  02:06:00      -99.246        9.666       -3.770       29.493       32.946       19.859      869.821     1085.424      394.390        0.615        0.117       99.716       10.304        0.011      348.853       28.851      860.390
07/08/2014  02:07:00      -57.584      -23.691       -0.307       36.732       21.043       15.334     1349.210      442.799      235.135        0.295        0.101       62.267       16.250        0.068      348.871       28.884      860.405
07/08/2014  02:08:00     -100.961      -40.522       -9.732       28.575       24.930       13.351      816.515      621.508      178.246        0.677        0.081      108.790       13.918        0.016      348.845       28.838      860.414
07/08/2014  02:09:00      -48.185      -49.267       11.733       49.299       43.653       24.031     2430.375     1905.617      577.472        0.490        0.246       68.913       26.724        0.150      348.820       28.794      860.432
07/08/2014  02:10:00     -119.464      -92.128        5.930       61.519       42.774       38.757     3784.586     1829.580     1502.118        1.495        0.356      150.862       37.239        0.061      348.868       28.876      860.463
07/08/2014  02:11:00     -119.995     -101.351        5.225       58.494       41.225       22.080     3421.515     1699.531      487.527        1.515        0.280      157.069       21.851        0.019      348.873       28.887      860.487
07/08/2014  02:12:00      -88.867      -73.879        3.062       44.561       37.390       21.816     1985.709     1397.976      475.929        0.861        0.193      115.565       21.514        0.035      348.865       28.872      860.514
07/08/2014  02:13:00      -79.358      -50.127        6.452       43.300       30.551       21.520     1874.928      933.359      463.111        0.606        0.164       93.864       16.896        0.032      348.801       28.763      860.540
07/08/2014  02:14:00      -21.601      -31.712        8.353       45.498       34.496       14.013     2070.086     1189.959      196.374        0.250        0.173       38.370       11.950        0.097      348.696       28.581      860.551
07/08/2014  02:15:00       21.991       20.155       21.929       21.530       14.654       12.993      463.559      214.752      168.813        0.111        0.042       29.830       10.430        0.122      348.191       27.707      860.560
07/08/2014  02:16:00       34.392       44.114       -5.885       26.849       17.914       17.872      720.867      320.897      319.392        0.226        0.068       55.936       13.918        0.062      348.318       27.927      860.581
07/08/2014  02:17:00       33.223       10.271        2.608       27.788       29.738       21.948      772.200      884.333      481.703        0.168        0.107       34.774       18.004        0.268      348.387       28.045      860.583
07/08/2014  02:18:00       41.416       23.661        2.687       31.392       21.436       11.878      985.429      459.482      141.092        0.193        0.079       47.698        6.434        0.018      348.502       28.244      860.577
07/08/2014  02:19:00       21.754        5.268       -3.200       12.354       12.883        7.555      152.632      165.984       57.079        0.044        0.019       22.383        4.477        0.040      348.553       28.334      860.564
07/08/2014  02:20:00      -23.540        3.259       -6.293       14.609        7.350        5.169      213.413       54.021       26.723        0.045        0.015       23.764        4.917        0.043      348.609       28.430      860.553
07/08/2014  02:21:00      -55.816       16.519       -3.656       12.159       10.112       10.970      147.845      102.254      120.335        0.189        0.019       58.209        4.335        0.006      348.514       28.266      860.548
07/08/2014  02:22:00      -44.291       17.498       -2.330       17.467       10.268        8.174      305.081      105.431       66.818        0.138        0.024       47.623        3.767        0.006      348.550       28.328      860.560
07/08/2014  02:23:00      -25.056       -0.207       -0.473       18.139       11.644        8.906      329.008      135.578       79.324        0.059        0.027       25.057        8.143        0.106      348.595       28.406      860.586
07/08/2014  02:24:00       17.874      -13.353        5.369       19.122       22.409       16.779      365.656      502.141      281.550        0.084        0.057       22.311       16.329        0.536      348.450       28.155      860.621
07/08/2014  02:25:00       39.100      -91.139      -13.720       16.575       19.960       10.042      274.738      398.420      100.836        0.540        0.039       99.172        5.089        0.003      348.421       28.105      860.646
07/08/2014  02:26:00       12.791      -79.381       -4.644       21.306       17.780       14.330      453.945      316.127      205.346        0.373        0.049       80.405       10.730        0.018      348.385       28.044      860.649
07/08/2014  02:27:00      -52.225      -45.030       -3.070       44.224       32.513       20.764     1955.792     1057.117      431.153        0.410        0.172       68.957       21.921        0.101      348.448       28.153      860.646
07/08/2014  02:28:00      -74.158     -100.253       -2.830       26.596       30.226       18.807      707.353      913.616      353.691        0.877        0.099      124.700       16.065        0.017      348.516       28.269      860.625
07/08/2014  02:29:00      -73.008      -60.394       -6.361       28.262       30.555       21.605      798.767      933.613      466.780        0.561        0.110       94.750       16.610        0.031      348.619       28.446      860.618
07/08/2014  02:30:00      -74.009      -47.071        1.776       46.011       26.322       17.063     2116.980      692.855      291.130        0.540        0.155       87.710        7.811        0.008      348.557       28.340      860.605
07/08/2014  02:31:00        1.537      -59.460        5.639       27.908       23.203       17.545      778.883      538.364      307.831        0.260        0.081       59.480       11.148        0.035      348.505       28.250      860.600
07/08/2014  02:32:00      -29.589      -94.656        2.042       16.928       31.620       11.664      286.574      999.830      136.053        0.563        0.071       99.173       10.420        0.011      348.667       28.530      860.612
07/08/2014  02:33:00      -21.329      -28.916        1.017       22.330       29.450       24.393      498.612      867.294      594.995        0.163        0.098       35.931       16.764        0.218      348.459       28.171      860.618
07/08/2014  02:34:00       -2.250       10.851       37.957       18.629       30.955       16.528      347.046      958.226      273.169        0.157        0.079       11.082       13.644        1.516      348.339       27.963      860.611
07/08/2014  02:35:00        5.259      -11.929       32.543       23.469       28.808       21.135      550.796      829.921      446.699        0.153        0.091       13.037       21.130        2.627      348.286       27.871      860.599
07/08/2014  02:36:00        7.519        5.522       28.466       22.001       26.808       17.792      484.061      718.651      316.538        0.121        0.076        9.329       16.192        3.012      348.281       27.864      860.571
07/08/2014  02:37:00       38.357      -56.050       -7.879       31.395       35.772       27.796      985.645     1279.670      772.609        0.386        0.152       67.918       29.924        0.194      348.490       28.224      860.548
07/08/2014  02:38:00       18.139       -0.348       18.967       28.295       18.117       17.504      800.609      328.213      306.405        0.106        0.072       18.143       16.034        0.781      348.430       28.120      860.524
07/08/2014  02:39:00       -2.247       23.739        2.992        9.270       12.419       14.003       85.926      154.229      196.078        0.051        0.022       23.845        8.370        0.123      348.407       28.080      860.493
07/08/2014  02:40:00       -1.631       17.952       -6.717        8.889       13.427       10.646       79.007      180.284      113.345        0.037        0.019       18.026        7.548        0.175      348.580       28.380      860.467
07/08/2014  02:41:00      -33.265       44.572      -12.844       24.551       24.402       10.765      602.728      595.436      115.878        0.229        0.066       55.617       16.247        0.085      348.776       28.719      860.435
07/08/2014  02:42:00      -64.894       62.941      -17.273       15.479       21.247       10.719      239.603      451.426      114.907        0.464        0.040       90.403        9.313        0.011      348.559       28.344      860.418
07/08/2014  02:43:00      -53.342       62.875       -7.377       26.916       24.815       16.952      724.467      615.803      287.356        0.424        0.081       82.454       16.946        0.042      348.646       28.494      860.419
07/08/2014  02:44:00      -30.396       75.848      -11.080       23.913       19.915       13.623      571.834      396.599      185.593        0.398        0.058       81.712       13.914        0.029      348.721       28.623      860.438
07/08/2014  02:45:00        3.770       43.939       -0.414       18.718       22.655        8.984      350.353      513.269       80.718        0.144        0.047       44.100       12.132        0.076      348.526       28.286      860.461
07/08/2014  02:46:00       26.925       20.985       -2.494       13.173       10.742        9.048      173.523      115.397       81.873        0.077        0.019       34.137        6.668        0.038      348.510       28.258      860.470
07/08/2014  02:47:00       14.187       53.728       -7.570       16.391       20.114        8.401      268.676      404.576       70.571        0.194        0.037       55.569       10.819        0.038      348.525       28.284      860.462
07/08/2014  02:48:00       38.285       64.577       -4.901       26.440       33.957       20.595      699.069     1153.055      424.170        0.397        0.114       75.073       21.844        0.085      348.400       28.070      860.446
07/08/2014  02:49:00       69.787       55.312        3.634       47.885       36.968       29.523     2292.931     1366.602      871.596        0.624        0.227       89.049       20.410        0.053      348.211       27.741      860.431
07/08/2014  02:50:00       36.804      116.698      -10.980       31.613       47.004       27.060      999.393     2209.404      732.242        0.952        0.197      122.364       27.260        0.050      348.242       27.796      860.413
07/08/2014  02:51:00       24.864      117.124       -9.899       35.288       54.538       30.145     1245.275     2974.443      908.717        0.978        0.256      119.734       33.935        0.080      348.335       27.955      860.401
07/08/2014  02:52:00       34.463      130.752      -14.080       43.263       52.810       30.357     1871.695     2788.941      921.526        1.203        0.279      135.217       30.721        0.052      348.339       27.963      860.397
07/08/2014  02:53:00       19.912      143.341      -24.195       32.272       31.778       19.328     1041.467     1009.854      373.583        1.198        0.121      144.717       11.263        0.006      348.321       27.932      860.394
07/08/2014  02:54:00       13.710      164.052      -22.846       29.919       24.071       14.067      895.176      579.407      197.887        1.465        0.084      164.624       13.208        0.006      348.401       28.071      860.389
07/08/2014  02:55:00       -7.730      159.085      -26.025       24.203       25.948       13.957      585.779      673.294      194.786        1.375        0.073      159.273        9.182        0.003      348.441       28.138      860.368
07/08/2014  02:56:00      -19.429      143.772      -23.409       30.590       49.010       22.260      935.771     2401.991      495.491        1.271        0.192      145.079       19.987        0.019      348.382       28.038      860.354
07/08/2014  02:57:00      -21.520      157.906      -18.273       38.061       31.508       20.589     1448.630      992.770      423.915        1.430        0.143      159.365       16.859        0.011      348.478       28.204      860.354
07/08/2014  02:58:00      -17.906      111.980      -15.236       20.945       28.870       17.428      438.691      833.454      303.736        0.733        0.079      113.403       16.976        0.022      348.441       28.139      860.358
07/08/2014  02:59:00      -17.174       99.424      -16.752       23.556       25.249       13.141      554.885      637.507      172.699        0.591        0.068      100.897       11.111        0.012      348.520       28.275      860.359
07/08/2014  03:00:00      -57.454       85.647      -22.468       29.634       36.010       17.039      878.203     1296.706      290.335        0.680        0.123      103.133       16.904        0.027      348.465       28.181      860.357
07/08/2014  03:01:00      -34.217      123.964      -16.167       34.820       37.907       16.551     1212.417     1436.912      273.925        0.986        0.146      128.599       16.251        0.016      348.506       28.253      860.355
07/08/2014  03:02:00        5.922      146.180      -21.488       34.059       25.672       16.383     1160.048      659.041      268.410        1.198        0.104      146.300        7.464        0.003      348.556       28.338      860.362
07/08/2014  03:03:00       27.297      197.956      -20.326       67.298      136.053       46.636     4529.060    18510.531     2174.939        3.278        1.261      199.829       66.551        0.111      348.538       28.305      860.368
07/08/2014  03:04:00        5.921      234.338      -35.691       60.101       63.273       39.394     3612.135     4003.526     1551.900        3.269        0.458      234.413       33.305        0.020      348.625       28.453      860.371
07/08/2014  03:05:00      -10.697      217.667      -28.449       56.756       56.954       26.979     3221.255     3243.756      727.854        2.775        0.360      217.930       23.700        0.012      348.619       28.444      860.381
07/08/2014  03:06:00        0.016      168.931      -16.800       35.172       85.189       30.551     1237.058     7257.098      933.376        1.912        0.471      168.931       34.290        0.041      348.609       28.427      860.404
07/08/2014  03:07:00       -2.875       95.640      -16.488       28.564       48.226       16.977      815.898     2325.781      288.231        0.643        0.171       95.684       18.869        0.039      348.548       28.324      860.424
07/08/2014  03:08:00      -20.863       86.158       -3.224       44.427       37.472       24.594     1973.761     1404.147      604.878        0.593        0.199       88.648       14.903        0.028      348.472       28.195      860.451
07/08/2014  03:09:00       11.052       49.408        6.452       27.511       45.498       19.943      756.860     2070.106      397.709        0.291        0.161       50.629       16.121        0.101      348.447       28.151      860.476
07/08/2014  03:10:00      -10.475       52.811       -4.977       19.859       31.793       17.420      394.375     1010.789      303.454        0.232        0.085       53.840       21.214        0.155      348.418       28.101      860.502
07/08/2014  03:11:00      -10.598       57.688        0.702       37.729       34.258       26.942     1423.513     1173.635      725.853        0.338        0.166       58.653       22.663        0.149      348.451       28.157      860.525
07/08/2014  03:12:00        2.472      -25.722      -12.647       22.086       20.400       22.129      487.799      416.167      489.709        0.111        0.070       25.841       18.199        0.496      348.112       27.570      860.550
07/08/2014  03:13:00        5.004      -28.542      -10.988        9.155       17.020       11.406       83.805      289.664      130.095        0.073        0.025       28.977        6.024        0.043      348.253       27.814      860.577
07/08/2014  03:14:00        4.774      -42.944        2.513       17.117       24.432       21.972      292.999      596.910      482.758        0.162        0.069       43.209       15.678        0.132      348.316       27.922      860.624
07/08/2014  03:15:00       93.430     -154.476      -19.258       64.123       33.471       23.526     4111.803     1120.339      553.464        1.937        0.289      180.533       19.784        0.012      348.303       27.898      860.673
07/08/2014  03:16:00       67.917     -137.276      -21.815       44.675       39.206       26.869     1995.869     1537.124      721.947        1.409        0.213      153.158       15.449        0.010      348.162       27.656      860.715
07/08/2014  03:17:00       17.728      -90.912       11.961       55.488       55.454       31.712     3078.931     3075.134     1005.625        0.794        0.358       92.625       31.896        0.119      348.153       27.642      860.747
07/08/2014  03:18:00       25.402     -131.366        0.571       45.636       51.053       37.987     2082.627     2606.372     1442.996        1.202        0.307      133.800       28.980        0.047      348.154       27.643      860.769
07/08/2014  03:19:00       98.195     -159.443      -17.176       53.131       44.958       33.443     2822.902     2021.188     1118.421        2.066        0.298      187.255       27.737        0.022      348.224       27.762      860.779
07/08/2014  03:20:00       48.320     -122.904      -12.418       55.585       43.425       25.472     3089.657     1885.761      648.828        1.161        0.281      132.061       18.903        0.020      348.194       27.712      860.785
07/08/2014  03:21:00       10.715      -74.937      -11.814       54.836       57.548       28.835     3006.949     3311.757      831.460        0.651        0.358       75.699       13.342        0.031      348.216       27.748      860.782
07/08/2014  03:22:00       10.621      -17.970       10.678       16.514       17.749       15.345      272.696      315.015      235.474        0.069        0.041       20.874       10.343        0.246      348.166       27.664      860.746
07/08/2014  03:23:00      -71.460      -32.027       -1.282       47.232       34.311       20.205     2230.858     1177.256      408.249        0.497        0.191       78.309       12.866        0.027      348.224       27.763      860.708
07/08/2014  03:24:00      -69.003      -59.450       -0.969       44.392       39.767       26.288     1970.674     1581.439      691.070        0.627        0.212       91.081       24.808        0.074      348.269       27.842      860.688
07/08/2014  03:25:00      -26.752      -54.969       -0.086       45.155       37.483       22.999     2038.947     1404.988      528.971        0.385        0.199       61.133       26.569        0.189      348.388       28.048      860.707
07/08/2014  03:26:00      -37.873     -126.826        1.826       31.210       56.115       16.143      974.054     3148.873      260.598        1.095        0.219      132.360       15.610        0.014      348.453       28.160      860.756
07/08/2014  03:27:00      -34.135     -142.782        0.150       28.497       55.026       21.981      812.080     3027.884      483.149        1.294        0.216      146.805       20.044        0.019      348.464       28.179      860.816
07/08/2014  03:28:00      -26.204      -61.012        5.059       26.666       49.986       31.237      711.068     2498.559      975.727        0.431        0.209       66.401       12.765        0.037      348.264       27.834      860.875
07/08/2014  03:29:00      -13.958       40.131       74.249       18.856       42.399       49.768      355.550     1797.668     2476.903        0.597        0.232       42.489       37.877        0.795      348.232       27.778      860.935
07/08/2014  03:30:00      -17.729       69.542      116.867       16.003       38.864       23.819      256.085     1510.435      567.338        1.057        0.117       71.766       25.688        0.128      348.244       27.798      860.987
07/08/2014  03:31:00       44.623       82.015      105.409       45.104       46.803       26.276     2034.357     2190.483      690.412        1.237        0.246       93.368       24.095        0.067      348.314       27.920      861.025
07/08/2014  03:32:00       26.113       28.378       64.514       29.571       44.544       27.083      874.457     1984.212      733.512        0.462        0.180       38.564       32.596        0.714      348.317       27.924      861.050
07/08/2014  03:33:00       96.110       97.399       78.466       69.263       30.268       37.257     4797.410      916.159     1388.111        1.599        0.355      136.834       36.976        0.073      348.360       28.000      861.051
07/08/2014  03:34:00      119.161       72.958       27.610       53.127       34.793       42.575     2822.517     1210.525     1812.614        1.306        0.292      139.722       24.956        0.032      348.279       27.859      861.059
07/08/2014  03:35:00      145.263       85.849       16.028       45.367       32.994       33.917     2058.143     1088.601     1150.347        1.651        0.215      168.735       21.162        0.016      348.155       27.645      861.055
07/08/2014  03:36:00      113.872       62.284        8.615       56.810       51.635       37.416     3227.370     2666.173     1399.990        1.211        0.365      129.792       19.570        0.023      348.155       27.643      861.039
07/08/2014  03:37:00       52.364       27.371       41.615       26.444       32.053       23.409      699.287     1027.366      547.979        0.375        0.114       59.086       19.370        0.107      348.180       27.687      861.016
07/08/2014  03:38:00        4.567       26.660        1.692       19.225       20.130       11.386      369.620      405.210      129.648        0.082        0.045       27.048       10.303        0.145      348.233       27.780      860.985
07/08/2014  03:39:00      -23.614       22.104       -2.319       14.763       14.146        7.264      217.956      200.105       52.770        0.076        0.024       32.345        5.911        0.033      348.119       27.583      860.969
07/08/2014  03:40:00       -9.283        4.879       -3.092        8.448        6.786        3.364       71.375       46.046       11.316        0.012        0.006       10.487        4.294        0.168      348.165       27.662      860.974
07/08/2014  03:41:00       20.550      -13.577        1.972        9.580        6.100        4.402       91.773       37.212       19.375        0.038        0.007       24.630        3.066        0.015      348.325       27.938      860.987
07/08/2014  03:42:00        1.264      -14.482        8.459       10.058       11.927       10.614      101.154      142.258      112.667        0.032        0.018       14.537        7.253        0.249      348.290       27.876      860.995
07/08/2014  03:43:00        4.384        0.536       19.534       10.261       14.812        8.999      105.292      219.382       80.989        0.040        0.020        4.417        8.008        3.287      348.231       27.774      860.994
07/08/2014  03:44:00       -1.963        1.914       17.872        7.679       10.194        7.964       58.961      103.927       63.432        0.028        0.011        2.742        6.445        5.527      348.098       27.546      860.987
07/08/2014  03:45:00       20.133       36.420       36.666       25.406       18.451       15.161      645.468      340.431      229.841        0.215        0.061       41.614       10.899        0.069      348.116       27.577      860.974
07/08/2014  03:46:00       62.857       41.952       17.324       17.499       17.960       17.885      306.221      322.556      319.863        0.348        0.047       75.571       12.258        0.026      348.278       27.857      860.975
07/08/2014  03:47:00       75.260       39.294       12.786       17.231        8.050       15.090      296.901       64.796      227.696        0.398        0.029       84.901        9.074        0.011      348.278       27.857      860.981
07/08/2014  03:48:00       91.600       59.665        9.389       35.251       20.144       20.097     1242.623      405.779      403.909        0.705        0.103      109.319        9.732        0.008      348.258       27.823      860.984
07/08/2014  03:49:00       88.084       50.464        0.571       37.111       31.834       25.742     1377.242     1013.431      662.668        0.668        0.153      101.515       14.249        0.020      348.190       27.706      860.986
07/08/2014  03:50:00       74.766       55.405       20.672       34.096       25.700       21.877     1162.527      660.483      478.610        0.569        0.115       93.057       11.686        0.016      348.081       27.517      860.989
07/08/2014  03:51:00       94.901       65.416       21.299       30.219       20.421       21.390      913.171      417.001      457.525        0.776        0.089      115.262       12.274        0.011      348.056       27.474      860.997
07/08/2014  03:52:00      109.483       75.744       19.466       35.174       27.939       24.080     1237.187      780.593      579.852        1.035        0.130      133.130       17.332        0.017      348.072       27.500      861.015
07/08/2014  03:53:00      126.256       73.139       23.878       47.586       37.533       28.368     2264.422     1408.699      804.757        1.317        0.224      145.910       18.548        0.016      347.975       27.334      861.045
07/08/2014  03:54:00      132.201       76.365       13.795       59.711       44.534       32.500     3565.449     1983.308     1056.228        1.505        0.330      152.672       28.497        0.035      347.987       27.354      861.075
07/08/2014  03:55:00       82.917       70.748       47.342       49.110       39.700       39.324     2411.781     1576.120     1546.384        0.983        0.277      108.998       30.033        0.076      347.797       27.025      861.093
07/08/2014  03:56:00       48.030       80.612       70.225       44.848       28.359       31.115     2011.357      804.235      968.120        0.876        0.189       93.836       20.761        0.049      347.708       26.873      861.095
07/08/2014  03:57:00       32.461       82.064       75.856       39.963       34.271       24.024     1597.070     1174.500      577.131        0.845        0.167       88.251       17.232        0.038      347.563       26.621      861.091
07/08/2014  03:58:00        0.159       36.823       65.559       15.350       30.333       20.184      235.633      920.082      407.405        0.361        0.078       36.823       17.343        0.222      347.578       26.648      861.082
07/08/2014  03:59:00       35.216       56.529       66.765       44.125       39.005       29.171     1947.027     1521.416      850.929        0.661        0.216       66.601       27.581        0.171      347.527       26.561      861.071
07/08/2014  04:00:00       99.076       36.601       47.361       58.682       44.369       41.014     3443.531     1968.592     1682.189        1.025        0.355      105.621       33.636        0.101      347.750       26.945      861.061
07/08/2014  04:01:00       75.858      -46.193       27.016       48.356       69.393       47.255     2338.340     4815.374     2233.030        0.900        0.469       88.815       44.386        0.250      347.832       27.085      861.060
07/08/2014  04:02:00       43.274       -6.655       36.424       31.241       37.182       27.551      976.031     1382.507      759.067        0.318        0.156       43.782       21.703        0.246      347.824       27.074      861.054
07/08/2014  04:03:00       19.341       -1.157       17.117       21.394       28.024       16.881      457.721      785.351      284.977        0.110        0.076       19.375       15.321        0.625      347.767       26.975      861.037
07/08/2014  04:04:00       26.479       35.667       19.243       29.093       26.913       23.357      846.420      724.305      545.549        0.223        0.106       44.421       19.615        0.195      347.711       26.880      861.024
07/08/2014  04:05:00       79.278       55.235       19.505       61.458       37.669       21.010     3777.132     1418.970      441.428        0.768        0.282       96.623       13.369        0.019      347.684       26.832      861.020
07/08/2014  04:06:00      128.634       65.911        6.980       52.794       43.986       32.989     2787.203     1934.766     1088.263        1.337        0.291      144.537       17.559        0.015      347.661       26.790      861.028
07/08/2014  04:07:00      134.023       57.432       20.499       64.914       50.210       36.410     4213.859     2521.085     1325.720        1.487        0.403      145.811       34.317        0.055      347.668       26.805      861.043
07/08/2014  04:08:00      120.803       60.509       33.850       61.719       36.502       37.703     3809.221     1332.413     1421.543        1.298        0.328      135.110       30.985        0.053      347.651       26.773      861.065
07/08/2014  04:09:00       87.028       59.634       68.770       62.786       41.248       37.334     3942.141     1701.396     1393.795        1.145        0.352      105.499       20.382        0.037      347.616       26.713      861.082
07/08/2014  04:10:00       61.555       -1.316       30.753       50.618       39.542       27.392     2562.139     1563.552      750.331        0.481        0.244       61.570       26.649        0.187      347.678       26.822      861.095
07/08/2014  04:11:00       10.953       20.701       41.707       21.023       26.628       22.399      441.986      709.034      501.720        0.197        0.083       23.420       19.978        0.728      347.591       26.673      861.101
07/08/2014  04:12:00       15.662       11.004       30.188       22.106       26.741       21.798      488.663      715.102      475.171        0.148        0.084       19.141       20.005        1.092      347.540       26.582      861.109
07/08/2014  04:13:00       40.456       37.064       58.765       28.039       31.850       16.300      786.200     1014.419      265.680        0.426        0.103       54.867       10.485        0.037      347.522       26.552      861.136
07/08/2014  04:14:00       20.161       57.278       63.853       31.633       38.379       32.274     1000.640     1472.946     1041.606        0.564        0.176       60.723       31.436        0.268      347.508       26.529      861.185
07/08/2014  04:15:00       27.607       33.249       73.656       44.285       81.111       43.532     1961.173     6579.055     1895.032        0.886        0.522       43.216       46.096        1.138      347.528       26.563      861.210
07/08/2014  04:16:00       90.019       67.838       79.563      100.279       92.680       54.384    10055.834     8589.632     2957.631        2.032        1.080      112.718       51.427        0.208      347.570       26.635      861.190
07/08/2014  04:17:00      108.798      -38.296       41.277       84.273       88.933       48.750     7101.873     7909.069     2376.591        1.619        0.869      115.341       54.518        0.223      347.560       26.616      861.176
07/08/2014  04:18:00        2.609      -68.297       15.559       52.241       50.639       33.413     2729.133     2564.344     1116.397        0.566        0.320       68.347       30.162        0.195      347.598       26.684      861.188
07/08/2014  04:19:00       13.082      -87.976       32.499       59.883      118.846       60.338     3586.030    14124.344     3640.633        1.516        1.068       88.944       68.616        0.595      347.633       26.742      861.174
07/08/2014  04:20:00       90.659     -153.053        3.120       64.477       89.795       52.046     4157.311     8063.106     2708.824        2.329        0.746      177.889       48.151        0.073      347.663       26.792      861.169
07/08/2014  04:21:00       75.046      -88.437       15.889       65.770      101.966       48.092     4325.665    10397.124     2312.884        1.537        0.852      115.987       60.102        0.269      347.697       26.853      861.158
07/08/2014  04:22:00       39.378      -38.871       33.199       36.025       59.700       34.434     1297.796     3564.091     1185.669        0.510        0.302       55.331       40.769        0.543      347.678       26.821      861.153
07/08/2014  04:23:00       39.231      -17.469       31.850       41.372       43.395       28.622     1711.680     1883.110      819.194        0.364        0.221       42.945       24.669        0.330      347.665       26.798      861.144
07/08/2014  04:24:00       -2.830      -24.681        1.201       18.149       32.577       22.574      329.393     1061.265      509.564        0.126        0.095       24.842       24.765        0.994      347.605       26.695      861.135
07/08/2014  04:25:00       83.410      -56.890       -0.856       45.655       58.834       36.489     2084.418     3461.391     1331.417        0.853        0.344      100.964       29.014        0.083      347.666       26.801      861.126
07/08/2014  04:26:00       35.416      -30.516       17.237       33.483       51.238       30.991     1121.108     2625.344      960.460        0.359        0.235       46.749       28.861        0.381      347.650       26.772      861.133
07/08/2014  04:27:00       11.635      -41.414       13.427       23.623       38.056       26.169      558.043     1448.289      684.835        0.236        0.135       43.017       22.583        0.276      347.657       26.783      861.149
07/08/2014  04:28:00       53.280      -37.500        6.361       23.941       22.917       21.541      573.167      525.171      464.017        0.292        0.078       65.154       16.062        0.061      347.682       26.832      861.152
07/08/2014  04:29:00        9.509        7.748       14.663       36.173       27.092       22.175     1308.511      733.982      491.728        0.145        0.127       12.266       11.884        0.939      347.645       26.766      861.151
07/08/2014  04:30:00       98.729       48.768        4.101       41.806       28.834       30.194     1747.702      831.386      911.695        0.782        0.175      110.117       20.486        0.035      347.623       26.728      861.135
07/08/2014  04:31:00       20.246       42.061       -6.887       27.742       28.558       19.609      769.635      815.578      384.494        0.210        0.098       46.680       16.028        0.118      347.604       26.695      861.114
07/08/2014  04:32:00       15.551       51.746       -8.871       27.829       27.007       17.834      774.439      729.375      318.053        0.241        0.091       54.032       18.479        0.117      347.607       26.698      861.109
07/08/2014  04:33:00      -25.275       84.633      -15.291       18.577       16.620       12.614      345.120      276.232      159.107        0.441        0.039       88.327        7.872        0.008      347.513       26.535      861.106
07/08/2014  04:34:00      -50.395      116.167      -15.447       21.293       31.693       17.987      453.378     1004.421      323.542        0.903        0.089      126.628       13.363        0.011      347.467       26.457      861.116
07/08/2014  04:35:00      -25.701       95.554      -13.520       22.508       32.132       15.252      506.593     1032.464      232.620        0.587        0.089       98.950       11.508        0.014      347.531       26.568      861.132
07/08/2014  04:36:00      -27.520      104.117       -3.417       25.542       36.308       18.675      652.414     1318.281      348.765        0.696        0.116      107.692       18.023        0.028      347.537       26.578      861.147
07/08/2014  04:37:00       -3.465      123.387      -13.724       23.012       33.841       17.416      529.551     1145.242      303.319        0.870        0.099      123.436       17.993        0.021      347.603       26.693      861.157
07/08/2014  04:38:00       -3.249       94.331      -11.061       22.184       22.242       10.082      492.123      494.716      101.653        0.506        0.054       94.386        9.866        0.011      347.595       26.679      861.159
07/08/2014  04:39:00      -26.850       92.964      -10.316       30.825       36.646       19.718      950.162     1342.929      388.785        0.608        0.134       96.764       18.435        0.036      347.536       26.577      861.172
07/08/2014  04:40:00       -3.114       89.816       -6.190       26.620       19.502       17.040      708.625      380.317      290.364        0.475        0.069       89.870       14.061        0.024      347.559       26.619      861.172
07/08/2014  04:41:00       44.838       83.029      -12.109       29.033       37.998       22.110      842.919     1443.878      488.839        0.591        0.139       94.362       22.303        0.056      347.588       26.664      861.180
07/08/2014  04:42:00       30.845       32.275       -3.952       19.397       21.128       13.649      376.245      446.408      186.306        0.151        0.050       44.644       11.847        0.070      347.543       26.591      861.192
07/08/2014  04:43:00       78.762       25.971        9.928       33.500       21.812       16.557     1122.248      475.775      274.148        0.442        0.094       82.933        5.844        0.005      347.514       26.539      861.209
07/08/2014  04:44:00       28.040       47.032        6.233       44.370       35.580       32.440     1968.696     1265.944     1052.382        0.366        0.214       54.757       11.651        0.045      347.492       26.501      861.218
07/08/2014  04:45:00      141.840       83.725       25.181       57.600       42.472       39.464     3317.779     1803.857     1557.389        1.722        0.334      164.707       15.900        0.009      347.470       26.461      861.227
07/08/2014  04:46:00      139.534       73.678       10.315       49.113       43.886       30.924     2412.117     1925.940      956.281        1.515        0.265      157.792       18.338        0.014      347.455       26.436      861.228
07/08/2014  04:47:00      145.762      100.776       24.017       42.028       41.705       30.972     1766.388     1739.274      959.271        1.822        0.223      177.207       23.132        0.017      347.459       26.442      861.234
07/08/2014  04:48:00      108.215       76.064       23.581       39.334       31.131       26.959     1547.152      969.117      726.787        1.065        0.162      132.273       13.963        0.011      347.467       26.457      861.249
07/08/2014  04:49:00       76.481       68.965       56.338       28.434       27.200       22.729      808.509      739.862      516.618        0.792        0.103      102.983       15.799        0.024      347.390       26.324      861.260
07/08/2014  04:50:00      111.198       72.387       33.806       34.757       21.129       28.297     1208.024      446.434      800.714        1.060        0.123      132.683       19.524        0.022      347.441       26.412      861.263
07/08/2014  04:51:00       49.235       70.281       49.848       34.438       26.704       32.287     1185.958      713.125     1042.425        0.639        0.147       85.811       17.602        0.042      347.392       26.327      861.262
07/08/2014  04:52:00       30.572       23.472       23.816       22.424       29.646       20.096      502.819      878.879      403.850        0.192        0.089       38.543        8.470        0.048      347.401       26.342      861.254
07/08/2014  04:53:00       33.456       39.493       39.581       24.057       29.336       22.183      578.748      860.596      492.077        0.309        0.097       51.759       13.741        0.070      347.309       26.186      861.242
07/08/2014  04:54:00        6.976       -4.307       14.877       19.311       31.632       20.314      372.901     1000.596      412.668        0.104        0.089        8.198       21.107        6.628      347.395       26.332      861.226
07/08/2014  04:55:00       10.954      -29.763        5.072       23.972       33.739       17.737      574.663     1138.334      314.611        0.153        0.101       31.715       16.459        0.269      347.356       26.265      861.219
07/08/2014  04:56:00       25.044        7.846        8.949       15.738       11.768       14.377      247.697      138.489      206.702        0.068        0.030       26.244        5.905        0.051      347.224       26.038      861.209
07/08/2014  04:57:00       24.213        0.654        8.396       15.846       16.177       14.672      251.110      261.711      215.279        0.069        0.036       24.222        8.616        0.127      347.110       25.842      861.193
07/08/2014  04:58:00       61.535       49.831       40.268       27.222       34.704       26.836      741.049     1204.375      720.192        0.528        0.133       79.181       22.662        0.082      347.368       26.286      861.186
07/08/2014  04:59:00       37.765       20.242       26.558       22.235       23.590       15.428      494.387      556.465      238.032        0.191        0.064       42.848       14.775        0.119      347.423       26.381      861.185
07/08/2014  05:00:00       43.707       40.550        5.486       33.994       14.983       14.484     1155.613      224.478      209.777        0.259        0.079       59.621       15.697        0.069      347.489       26.495      861.193
07/08/2014  05:01:00       17.446       38.365        0.341       26.848       26.114       15.156      720.790      681.932      229.702        0.170        0.082       42.145       14.832        0.124      347.439       26.409      861.183
07/08/2014  05:02:00       67.659       33.678       20.653       33.241       26.772       20.048     1104.941      716.715      401.942        0.418        0.111       75.577       12.620        0.028      347.517       26.545      861.177
07/08/2014  05:03:00        4.259       59.610       -6.105       24.931       28.237       16.873      621.536      797.331      284.695        0.266        0.085       59.762       19.936        0.111      347.491       26.496      861.172
07/08/2014  05:04:00      -18.035      120.350      -16.188       25.692       35.167       14.510      660.075     1236.705      210.551        0.859        0.105      121.694       17.164        0.020      347.449       26.425      861.161
07/08/2014  05:05:00        2.963      170.208      -30.565       28.727       37.135       14.869      825.258     1379.015      221.094        1.617        0.121      170.234       17.386        0.010      347.543       26.588      861.150
07/08/2014  05:06:00       19.904      148.422      -24.880       26.526       38.416       16.027      703.615     1475.758      256.878        1.274        0.122      149.751       16.104        0.012      347.532       26.570      861.146
07/08/2014  05:07:00       32.733      146.118      -22.802       30.886       48.172       22.693      953.936     2320.516      514.963        1.336        0.189      149.739       25.910        0.030      347.532       26.569      861.146
07/08/2014  05:08:00       13.479      124.986       -9.852       27.056       45.824       23.871      732.046     2099.874      569.811        0.965        0.170      125.710       24.479        0.038      347.489       26.496      861.157
07/08/2014  05:09:00       26.345      117.915      -11.494       31.272       40.632       28.261      977.909     1650.966      798.685        0.908        0.171      120.822       25.168        0.043      347.432       26.397      861.155
07/08/2014  05:10:00       41.536       70.445        3.567       42.913       40.171       30.603     1841.489     1613.696      936.566        0.555        0.220       81.779       23.473        0.082      347.367       26.283      861.152
07/08/2014  05:11:00       46.285       88.497       -4.991       50.715       43.018       36.966     2572.020     1850.533     1366.450        0.789        0.289       99.871       24.162        0.059      347.450       26.428      861.154
07/08/2014  05:12:00       46.301       98.807      -11.540       28.417       42.849       28.423      807.529     1836.059      807.892        0.775        0.173      109.118       23.291        0.046      347.479       26.477      861.159
07/08/2014  05:13:00       31.183       70.708        4.027       36.567       59.139       34.467     1337.149     3497.383     1187.974        0.600        0.301       77.279       39.858        0.266      347.442       26.413      861.166
07/08/2014  05:14:00       57.173       98.705      -10.023       36.688       56.546       30.277     1345.975     3197.506      916.700        0.929        0.273      114.068       31.816        0.078      347.418       26.371      861.163
07/08/2014  05:15:00       55.336       62.561       -5.587       36.558       30.110       26.526     1336.521      906.639      703.623        0.498        0.147       83.522       19.383        0.054      347.426       26.386      861.165
07/08/2014  05:16:00       98.181       54.113       21.035       43.132       26.136       28.158     1860.349      683.069      792.866        0.817        0.167      112.106       25.468        0.052      347.403       26.346      861.185
07/08/2014  05:17:00      132.967       56.708       13.234       47.720       37.466       32.291     2277.154     1403.677     1042.707        1.290        0.236      144.554       11.454        0.006      347.395       26.332      861.199
07/08/2014  05:18:00      120.912       70.725       13.344       51.128       44.396       32.598     2614.119     1971.036     1062.639        1.272        0.282      140.078       20.687        0.022      347.359       26.272      861.192
07/08/2014  05:19:00      134.157      108.426       17.543       49.603       44.261       31.365     2460.474     1959.080      983.739        1.773        0.270      172.495       28.235        0.027      347.362       26.276      861.171
07/08/2014  05:20:00      116.514       70.080       31.398       48.968       32.836       30.329     2397.846     1078.190      919.837        1.193        0.220      135.966       22.648        0.028      347.326       26.213      861.161
07/08/2014  05:21:00      102.473       68.604       32.118       44.524       26.990       27.189     1982.372      728.481      739.233        0.984        0.173      123.318       26.604        0.047      347.304       26.176      861.150
07/08/2014  05:22:00       69.820       29.052        6.530       53.954       37.197       26.165     2911.056     1383.590      684.590        0.537        0.249       75.623       19.907        0.069      347.289       26.151      861.140
07/08/2014  05:23:00       50.086       26.259       21.982       45.180       28.505       24.251     2041.197      812.513      588.121        0.356        0.172       56.552       23.299        0.170      347.195       25.989      861.141
07/08/2014  05:24:00      116.833       50.403       26.986       50.116       24.418       21.811     2511.656      596.219      475.709        1.025        0.179      127.242       15.040        0.014      347.240       26.064      861.145
07/08/2014  05:25:00      149.739       76.487       35.438       26.551       24.342       22.535      704.964      592.553      507.824        1.567        0.090      168.143       14.143        0.007      347.349       26.256      861.155
07/08/2014  05:26:00      119.238       74.474       16.101       27.567       25.277       19.202      759.914      638.938      368.709        1.090        0.088      140.585       13.752        0.010      347.315       26.194      861.167
07/08/2014  05:27:00       94.528       58.744       21.921       31.574       23.273       23.009      996.947      541.617      529.426        0.747        0.103      111.294       19.087        0.029      347.298       26.166      861.178
07/08/2014  05:28:00       64.205       26.042        9.455       35.243       21.462       19.474     1242.070      460.597      379.244        0.349        0.104       69.285       14.078        0.041      347.292       26.154      861.185
07/08/2014  05:29:00       34.690       41.575        8.593       25.786       32.076       24.912      664.922     1028.860      620.592        0.266        0.116       54.147       22.029        0.166      347.313       26.191      861.200
07/08/2014  05:30:00       39.738       50.168       -3.110       32.015       24.916       13.655     1024.982      620.832      186.466        0.297        0.092       64.000       12.193        0.036      347.381       26.307      861.196
07/08/2014  05:31:00       15.772       68.006      -10.173       26.899       16.479       13.160      723.571      271.542      173.196        0.307        0.058       69.811        9.270        0.018      347.344       26.246      861.202
07/08/2014  05:32:00      -27.196       82.664       -6.467       23.760       19.622       11.909      564.555      385.011      141.817        0.435        0.055       87.023        9.140        0.011      347.300       26.169      861.217
07/08/2014  05:33:00      -25.548       98.545      -11.733       21.339       25.697       11.800      455.359      660.322      139.248        0.588        0.063      101.803        7.513        0.005      347.357       26.267      861.233
07/08/2014  05:34:00       -9.703      111.243      -16.700       16.848       15.006        8.073      283.865      225.172       65.176        0.666        0.029      111.665        5.618        0.003      347.443       26.414      861.242
07/08/2014  05:35:00      -28.024      103.436      -11.784       18.234       17.986       12.092      332.492      323.480      146.211        0.621        0.040      107.165        9.848        0.008      347.438       26.410      861.245
07/08/2014  05:36:00        6.873      106.449      -11.601       31.505       18.669       14.338      992.542      348.523      205.579        0.653        0.077      106.671       10.705        0.010      347.453       26.433      861.239
07/08/2014  05:37:00      -17.979       73.619       -4.188       13.766       21.434        8.896      189.499      459.419       79.134        0.324        0.036       75.783        7.453        0.010      347.444       26.418      861.229
07/08/2014  05:38:00       -3.307       75.969       -2.643       16.918       14.046        9.764      286.228      197.297       95.336        0.318        0.029       76.041        8.192        0.012      347.403       26.347      861.216
07/08/2014  05:39:00       17.849       67.020      -10.558       13.867       15.031       12.578      192.290      225.934      158.213        0.275        0.029       69.356        9.298        0.018      347.461       26.447      861.206
07/08/2014  05:40:00       -0.725       43.457       -5.043       11.273       14.634        8.806      127.090      214.153       77.551        0.117        0.021       43.463        9.377        0.047      347.485       26.489      861.191
07/08/2014  05:41:00       -2.382       49.151       -7.472        6.957        7.508        5.096       48.397       56.370       25.969        0.130        0.007       49.209        3.914        0.006      347.523       26.551      861.168
07/08/2014  05:42:00      -10.001       35.443       -4.006       10.899       15.494       10.828      118.780      240.070      117.251        0.092        0.024       36.827        8.580        0.054      347.475       26.473      861.161
07/08/2014  05:43:00        2.344       20.412        5.012        7.467       14.646        7.823       55.756      214.517       61.204        0.039        0.017       20.547        6.955        0.115      347.470       26.465      861.142
07/08/2014  05:44:00        4.945        1.503        1.832        6.667        3.667        7.511       44.453       13.448       56.417        0.007        0.006        5.169        3.947        0.583      347.421       26.379      861.141
07/08/2014  05:45:00       -7.157       -7.008       -8.640        8.536        7.489        5.494       72.856       56.092       30.186        0.017        0.008       10.017        4.285        0.183      347.384       26.316      861.138
07/08/2014  05:46:00      -29.232      -17.699       -6.400       12.649        9.291        5.870      160.001       86.322       34.451        0.074        0.014       34.173        4.531        0.018      347.398       26.337      861.150
07/08/2014  05:47:00      -21.450       -4.308        0.304       16.620       13.851       13.082      276.222      191.842      171.146        0.056        0.032       21.878       11.045        0.255      347.397       26.335      861.161
07/08/2014  05:48:00        5.476       -9.947       10.185       10.838       12.128       12.612      117.463      147.094      159.073        0.033        0.021       11.355        2.692        0.056      347.422       26.378      861.176
07/08/2014  05:49:00       -0.696      -19.066        3.800       18.995       13.595       13.254      360.823      184.819      175.679        0.055        0.036       19.079       10.041        0.277      347.450       26.425      861.211
07/08/2014  05:50:00        3.494      -14.786        7.538       17.397       13.863       15.651      302.650      192.193      244.967        0.051        0.037       15.193       14.206        0.874      347.487       26.494      861.218
07/08/2014  05:51:00       10.868      -35.796       -5.872       18.398       15.103       19.768      338.499      228.107      390.783        0.120        0.048       37.409       12.169        0.106      347.337       26.233      861.226
07/08/2014  05:52:00      -10.025      -38.764       -3.306       17.664       15.440       16.791      312.032      238.401      281.951        0.122        0.042       40.040        9.553        0.057      347.126       25.868      861.229
07/08/2014  05:53:00       -6.478      -35.502       -0.724       16.390       28.030       17.563      268.645      785.695      308.472        0.133        0.068       36.088       17.330        0.231      347.125       25.868      861.222
07/08/2014  05:54:00       -0.669      -16.355        2.449       21.272       18.448       16.916      452.513      340.311      286.167        0.068        0.054       16.369       12.729        0.605      347.032       25.709      861.206
07/08/2014  05:55:00       -0.323      -17.010        8.554       11.500       18.172       15.167      132.260      330.204      230.044        0.053        0.035       17.013        7.505        0.195      347.090       25.806      861.182
07/08/2014  05:56:00        9.082      -28.382       -0.077       11.521       10.916       11.604      132.741      119.161      134.645        0.064        0.019       29.799        6.585        0.049      347.127       25.871      861.167
07/08/2014  05:57:00       -4.280       -5.476        1.111       10.584        6.694        6.388      112.011       44.813       40.802        0.012        0.010        6.951        4.540        0.427      347.216       26.025      861.153
07/08/2014  05:58:00      -55.481        3.675       -7.109       11.577        8.013        6.470      134.038       64.214       41.862        0.169        0.012       55.603        4.634        0.007      347.403       26.348      861.150
07/08/2014  05:59:00      -42.273       -0.551       -1.600       10.442        8.805        6.342      109.042       77.525       40.218        0.101        0.011       42.277        5.535        0.017      347.307       26.180      861.138
07/08/2014  06:00:00      -34.246       -7.257       -2.996        7.028        8.680        5.489       49.392       75.336       30.126        0.069        0.008       35.006        3.746        0.011      347.238       26.063      861.131
07/08/2014  06:01:00      -43.855       -7.597       -1.191       16.675       10.015        5.450      278.061      100.296       29.707        0.120        0.020       44.509        6.034        0.018      347.065       25.765      861.131
07/08/2014  06:02:00      -39.995       -8.563        4.248       22.811       18.110       12.434      520.347      327.959      154.614        0.135        0.050       40.901       10.485        0.066      347.048       25.736      861.127
07/08/2014  06:03:00      -31.291        5.239        7.197       27.141       18.247       13.433      736.631      332.946      180.455        0.115        0.063       31.727       15.793        0.248      347.169       25.943      861.128
07/08/2014  06:04:00     -100.705      -27.455        1.541       27.786       20.144       17.785      772.083      405.791      316.304        0.620        0.075      104.381       14.358        0.019      347.323       26.209      861.134
07/08/2014  06:05:00      -86.243      -37.012       -3.494       21.294       17.667       11.151      453.449      312.113      124.336        0.485        0.044       93.849       10.404        0.012      347.299       26.168      861.144
07/08/2014  06:06:00      -31.882      -30.523       -1.933       32.453       17.109       11.733     1053.224      292.709      137.666        0.172        0.074       44.137        9.424        0.046      347.288       26.149      861.151
07/08/2014  06:07:00      -38.043      -17.524        8.516       33.136       29.359       15.980     1098.020      861.978      255.368        0.202        0.111       41.885       18.603        0.197      347.246       26.076      861.172
07/08/2014  06:08:00      -76.197      -53.939        6.803       40.611       31.939       20.632     1649.249     1020.072      425.696        0.593        0.155       93.356       21.599        0.054      347.252       26.087      861.183
07/08/2014  06:09:00      -87.363      -68.312       -2.025       49.196       44.116       27.007     2420.284     1946.216      729.376        0.870        0.255      110.900       15.227        0.019      347.313       26.192      861.197
07/08/2014  06:10:00      -88.906      -82.951        0.433       39.338       31.323       23.370     1547.515      981.101      546.139        0.893        0.154      121.594       20.484        0.028      347.356       26.266      861.208
07/08/2014  06:11:00     -116.867      -45.345       -6.373       43.538       28.587       19.407     1895.530      817.199      376.633        0.942        0.154      125.356       14.999        0.014      347.295       26.160      861.215
07/08/2014  06:12:00     -186.481      -74.492      -10.557       37.986       40.438       22.230     1442.902     1635.252      494.178        2.200        0.179      200.809       14.440        0.005      347.190       25.978      861.215
07/08/2014  06:13:00     -114.797       -2.490       -2.005       48.533       35.693       21.247     2355.459     1274.012      451.435        0.863        0.204      114.824       22.408        0.038      347.174       25.951      861.219
07/08/2014  06:14:00     -122.158       -7.735       -8.082       28.625       34.612       18.049      819.417     1197.964      325.761        0.870        0.117      122.403        9.004        0.005      347.142       25.898      861.214
07/08/2014  06:15:00      -91.263      -16.817      -10.684       21.294       41.592       14.808      453.420     1729.857      219.263        0.556        0.120       92.800        7.638        0.007      347.103       25.831      861.209
07/08/2014  06:16:00      -93.296        8.243      -11.184       29.479       23.195       17.136      869.018      537.992      293.632        0.530        0.085       93.659       13.452        0.021      347.050       25.741      861.210
07/08/2014  06:17:00      -99.926        8.113      -12.338       16.885       16.158       12.817      285.094      261.075      164.278        0.546        0.036      100.255        8.693        0.008      347.018       25.682      861.208
07/08/2014  06:18:00      -86.706      -28.087      -11.150       20.776       19.884       11.808      431.624      395.384      139.427        0.470        0.048       91.141       11.424        0.016      347.045       25.728      861.205
07/08/2014  06:19:00      -76.551      -25.916        0.516       32.811       26.508       12.185     1076.570      702.698      148.472        0.423        0.096       80.818        9.948        0.015      347.032       25.707      861.203
07/08/2014  06:20:00     -111.059      -23.657       -8.853       27.546       19.699       17.105      758.766      388.069      292.566        0.721        0.072      113.551       15.113        0.018      346.997       25.647      861.199
07/08/2014  06:21:00     -107.253      -27.782       -1.832       20.650       21.998       14.046      426.437      483.892      197.298        0.669        0.055      110.792        9.974        0.008      347.006       25.664      861.181
07/08/2014  06:22:00     -106.643      -14.968       -7.925       22.397       26.478       14.520      501.610      701.084      210.834        0.654        0.071      107.688        8.407        0.006      347.024       25.692      861.178
07/08/2014  06:23:00      -72.373       10.021       -1.470       27.317       15.976       11.533      746.203      255.238      133.022        0.324        0.057       73.064       11.774        0.026      346.963       25.589      861.166
07/08/2014  06:24:00      -87.683       36.258      -10.732       21.679       13.834       12.305      469.972      191.385      151.416        0.497        0.041       94.883        7.879        0.007      347.057       25.749      861.155
07/08/2014  06:25:00      -97.161       41.546       -6.507       33.534       24.690       20.950     1124.522      609.573      438.884        0.669        0.109      105.671       18.656        0.031      347.024       25.693      861.146
07/08/2014  06:26:00     -101.279       46.782      -11.013       39.189       20.544       22.058     1535.795      422.070      486.576        0.751        0.122      111.561       22.145        0.039      347.113       25.846      861.148
07/08/2014  06:27:00      -84.024       13.514       -4.078       36.850       23.371       18.035     1357.914      546.226      325.252        0.474        0.111       85.104       20.430        0.058      347.082       25.795      861.149
07/08/2014  06:28:00      -81.704       30.606       -6.858       19.172       19.692       14.547      367.557      387.782      211.620        0.431        0.048       87.248       11.602        0.018      347.100       25.825      861.152
07/08/2014  06:29:00      -87.003       37.742       -6.847       29.677       16.712       18.693      880.726      279.294      349.432        0.527        0.075       94.836       16.700        0.031      347.161       25.931      861.150
07/08/2014  06:30:00     -100.570       41.455       -9.803       31.965       17.850       15.624     1021.732      318.624      244.124        0.676        0.079      108.779       14.245        0.017      347.164       25.935      861.168
07/08/2014  06:31:00      -89.844       37.780       -8.538       23.393       18.065       16.406      547.247      326.329      269.144        0.536        0.057       97.464       11.724        0.014      347.201       25.999      861.172
07/08/2014  06:32:00      -57.874       16.347        0.335       25.442       21.606       14.975      647.297      466.799      224.250        0.248        0.067       60.138       13.430        0.050      347.201       25.997      861.178
07/08/2014  06:33:00      -34.979       36.973       -5.038       21.514       22.458       14.449      462.871      504.383      208.773        0.190        0.059       50.897       10.317        0.041      347.227       26.045      861.174
07/08/2014  06:34:00      -37.199       59.426       -6.782       15.869       24.430       13.730      251.840      596.803      188.515        0.300        0.052       70.109       11.648        0.028      347.260       26.100      861.176
07/08/2014  06:35:00      -21.013       32.265       -1.572       13.327       14.699        9.856      177.609      216.055       97.141        0.099        0.025       38.505        5.397        0.020      347.243       26.071      861.175
07/08/2014  06:36:00       -9.400       57.169       -7.715       21.822       26.050       12.305      476.193      678.603      151.418        0.236        0.065       57.937       11.635        0.040      347.313       26.191      861.181
07/08/2014  06:37:00      -13.692       51.079       -8.686       16.292       14.610        9.410      265.425      213.461       88.539        0.172        0.028       52.883        6.525        0.015      347.304       26.176      861.180
07/08/2014  06:38:00       -6.940       30.730        3.201        8.828       17.563        8.914       77.929      308.467       79.451        0.073        0.023       31.504        9.204        0.085      347.354       26.263      861.186
07/08/2014  06:39:00       -3.356       42.838       -0.835       15.740       10.817        9.733      247.733      117.016       94.732        0.115        0.023       42.969        8.235        0.037      347.387       26.320      861.183
07/08/2014  06:40:00        3.002       23.136        3.170        6.130       14.427        8.209       37.572      208.138       67.380        0.043        0.016       23.330        8.813        0.143      347.430       26.394      861.183
07/08/2014  06:41:00       10.535        7.739        7.936        7.981        6.938        6.255       63.699       48.143       39.127        0.019        0.008       13.072        2.694        0.042      347.375       26.300      861.187
07/08/2014  06:42:00        6.779       17.647        7.427        9.074        8.866        8.535       82.333       78.609       72.850        0.032        0.012       18.904        3.209        0.029      347.403       26.348      861.188
07/08/2014  06:43:00       12.486       14.536       10.540       11.296       12.179       10.360      127.610      148.328      107.328        0.043        0.019       19.163        6.554        0.117      347.300       26.169      861.193
07/08/2014  06:44:00       -1.637       19.825       11.982       10.798        7.505        8.557      116.604       56.327       73.218        0.039        0.012       19.893        5.276        0.070      347.365       26.278      861.201
07/08/2014  06:45:00      -30.072       19.512       -4.061        8.919        5.511        4.625       79.549       30.370       21.386        0.072        0.007       35.847        3.193        0.008      347.225       26.042      861.209
07/08/2014  06:46:00      -22.091       20.743       10.264       26.571       20.900       13.495      706.029      436.830      182.103        0.117        0.066       30.303       13.571        0.201      347.285       26.143      861.216
07/08/2014  06:47:00       30.904       33.923       10.543       28.287       22.701       11.975      800.146      515.346      143.390        0.184        0.073       45.889       10.354        0.051      347.327       26.215      861.218
07/08/2014  06:48:00        0.750       26.544        8.384       34.440       29.405       19.096     1186.085      864.653      364.665        0.160        0.121       26.555       15.645        0.347      347.378       26.303      861.227
07/08/2014  06:49:00        0.621       36.812      -10.199       22.642       16.306       18.292      512.654      265.883      334.591        0.129        0.056       36.818       16.228        0.194      347.361       26.270      861.241
07/08/2014  06:50:00       12.026       27.816       -0.532       49.261       21.284       16.458     2426.673      453.023      270.854        0.203        0.158       30.304       15.519        0.262      347.347       26.251      861.252
07/08/2014  06:51:00       16.812       31.765       -7.011       25.847       24.183       23.613      668.052      584.819      557.556        0.158        0.091       35.940       17.194        0.229      347.388       26.321      861.264
07/08/2014  06:52:00       72.977       39.452       16.295       26.770       23.030       22.428      716.629      530.400      503.025        0.445        0.088       82.958       13.618        0.027      347.272       26.122      861.262
07/08/2014  06:53:00       55.348       39.312       24.010       20.556       21.097       18.547      422.554      445.085      343.981        0.320        0.061       67.889       14.830        0.048      347.262       26.104      861.277
07/08/2014  06:54:00       34.728       29.999        7.270       16.999       24.091       21.447      288.979      580.387      459.959        0.174        0.066       45.891       17.746        0.150      347.261       26.100      861.305
07/08/2014  06:55:00       70.279       30.502        3.880       22.232       20.785       12.455      494.257      431.997      155.122        0.348        0.054       76.613        9.280        0.015      347.167       25.940      861.336
07/08/2014  06:56:00       92.944       55.509       13.861       27.093       21.369       18.798      734.045      456.646      353.369        0.673        0.077      108.258       11.608        0.011      347.163       25.936      861.362
07/08/2014  06:57:00       98.129       53.477       24.351       29.931       26.424       26.286      895.886      698.213      690.971        0.768        0.114      111.755       14.350        0.016      347.159       25.928      861.376
07/08/2014  06:58:00       73.466       66.213       39.072       30.469       25.789       30.007      928.379      665.069      900.403        0.690        0.125       98.901       18.526        0.035      347.147       25.907      861.390
07/08/2014  06:59:00       54.666       63.558       37.131       34.318       22.070       27.019     1177.707      487.104      730.030        0.540        0.120       83.833       13.732        0.027      347.126       25.871      861.413
07/08/2014  07:00:00       83.799       26.362       12.525       39.778       23.772       20.930     1582.315      565.085      438.059        0.523        0.129       87.848       21.260        0.059      347.116       25.851      861.440
07/08/2014  07:01:00       99.520       45.201       16.241       27.199       21.862       23.317      739.796      477.946      543.677        0.699        0.088      109.304        6.370        0.003      347.136       25.888      861.455
07/08/2014  07:02:00       99.770       58.373       22.713       24.717       22.326       16.324      610.955      498.470      266.484        0.763        0.069      115.592       11.335        0.010      347.142       25.897      861.469
07/08/2014  07:03:00       70.171       42.748       12.557       30.210       22.352       20.769      912.630      499.603      431.340        0.438        0.092       82.167       13.343        0.026      347.252       26.086      861.476
07/08/2014  07:04:00       76.171       31.280       17.317       37.285       33.624       34.058     1390.136     1130.561     1159.971        0.538        0.184       82.343       23.034        0.078      347.137       25.889      861.478
07/08/2014  07:05:00       43.264       28.849       13.593       26.979       26.825       16.027      727.889      719.571      256.880        0.230        0.085       52.001       13.300        0.065      347.151       25.912      861.483
07/08/2014  07:06:00       41.181       38.186       25.232       35.626       17.908       15.186     1269.187      320.689      230.609        0.281        0.091       56.161       11.898        0.045      347.163       25.934      861.482
07/08/2014  07:07:00       23.823       35.080       25.485       22.755       20.887       22.286      517.795      436.260      496.653        0.195        0.073       42.405       10.889        0.066      347.159       25.927      861.476
07/08/2014  07:08:00       31.163       16.262       12.680       13.713       21.689       17.238      188.046      470.396      297.138        0.118        0.048       35.151       11.547        0.108      347.132       25.881      861.479
07/08/2014  07:09:00       14.462      -51.284       -1.060       20.356       18.647       16.588      414.373      347.702      275.170        0.194        0.052       53.284       14.699        0.076      347.151       25.913      861.478
07/08/2014  07:10:00       39.284      -74.316       -9.563       22.560       34.666       12.058      508.950     1201.760      145.384        0.451        0.093       84.060        9.480        0.013      347.205       26.004      861.482
07/08/2014  07:11:00       34.489      -54.759       -1.068       20.673       21.803       20.301      427.355      475.359      412.112        0.275        0.066       64.714       16.676        0.066      347.241       26.070      861.492
07/08/2014  07:12:00       53.485      -43.222        2.778       33.623       32.762       19.382     1130.502     1073.355      375.680        0.366        0.129       68.766       24.546        0.127      347.327       26.217      861.503
07/08/2014  07:13:00       28.020       -6.017       16.917       30.656       23.637       26.070      939.775      558.696      679.654        0.164        0.109       28.659       22.202        0.600      347.257       26.095      861.526
07/08/2014  07:14:00       10.127       -0.671       33.304       17.654       17.689       14.626      311.663      312.891      213.922        0.103        0.042       10.150       10.711        1.114      347.226       26.041      861.542
07/08/2014  07:15:00        4.688      -15.953       12.871       19.920       28.034       15.680      396.793      785.925      245.866        0.094        0.071       16.628        7.686        0.214      347.138       25.892      861.556
07/08/2014  07:16:00       -0.365       -5.280        7.315        8.567        6.449        8.956       73.389       41.593       80.208        0.014        0.010        5.293        5.715        1.166      347.154       25.917      861.571
07/08/2014  07:17:00        1.825        5.987        9.293       16.808       11.439       13.798      282.518      130.847      190.393        0.036        0.030        6.259        5.598        0.800      347.175       25.954      861.577
07/08/2014  07:18:00       61.796       42.285       26.492       25.409       21.173       23.355      645.616      448.295      545.457        0.397        0.082       74.878       21.006        0.079      347.117       25.855      861.583
07/08/2014  07:19:00       78.172       57.482       35.670       17.317       14.454       21.943      299.869      208.930      481.489        0.584        0.050       97.031        9.463        0.010      347.158       25.924      861.593
07/08/2014  07:20:00       78.682       53.794       13.738       19.257       19.799       16.389      370.839      392.015      268.598        0.515        0.052       95.314        7.776        0.007      347.187       25.972      861.596
07/08/2014  07:21:00       88.266       54.045       21.499       34.687       21.529       17.175     1203.209      463.509      294.982        0.657        0.098      103.498       17.226        0.028      347.212       26.017      861.611
07/08/2014  07:22:00      105.179       73.092       24.358       35.731       22.748       16.966     1276.705      517.483      287.853        0.954        0.104      128.082        5.916        0.002      347.190       25.979      861.623
07/08/2014  07:23:00      116.259       72.964       16.093       31.016       28.144       29.517      961.982      792.082      871.247        1.086        0.131      137.259        3.582        0.001      347.251       26.085      861.638
07/08/2014  07:24:00       58.063       38.557        6.807       38.524       27.312       22.913     1484.104      745.948      525.022        0.383        0.138       69.699       19.280        0.077      347.195       25.988      861.649
07/08/2014  07:25:00       88.931       58.228        7.573       37.501       31.358       21.246     1406.355      983.295      451.372        0.710        0.142      106.298       11.156        0.011      347.134       25.884      861.659
07/08/2014  07:26:00       97.539       67.198       21.453       38.149       23.839       22.342     1455.364      568.294      499.172        0.851        0.126      118.446       16.199        0.019      347.104       25.831      861.672
07/08/2014  07:27:00      106.834       52.780       -0.875       45.850       29.436       27.624     2102.237      866.475      763.088        0.897        0.187      119.160       24.896        0.044      347.102       25.828      861.678
07/08/2014  07:28:00       74.187        5.640       19.305       55.949       33.804       35.201     3130.242     1142.732     1239.122        0.571        0.276       74.401       32.627        0.192      347.112       25.845      861.681
07/08/2014  07:29:00       59.621       46.714       18.576       34.019       34.626       19.372     1157.304     1198.943      375.288        0.441        0.137       75.742       13.299        0.031      347.072       25.776      861.679
07/08/2014  07:30:00       84.637       45.093       12.705       33.036       31.818       19.460     1091.355     1012.403      378.692        0.592        0.124       95.900        7.315        0.006      347.078       25.790      861.677
07/08/2014  07:31:00       96.889       71.422       32.271       39.357       21.908       23.537     1548.948      479.957      553.984        0.906        0.129      120.368       20.535        0.029      347.105       25.834      861.684
07/08/2014  07:32:00       73.222       49.399       28.863       23.467       23.652       24.521      550.682      559.407      601.282        0.517        0.086       88.327       12.071        0.019      347.076       25.784      861.690
07/08/2014  07:33:00       40.058       49.963        9.673       32.317       26.488       19.012     1044.375      701.629      361.461        0.315        0.105       64.038       11.750        0.034      347.059       25.756      861.700
07/08/2014  07:34:00       22.683       46.698        1.064       34.082       34.570       24.047     1161.569     1195.115      578.259        0.282        0.147       51.916       20.854        0.161      347.056       25.751      861.708
07/08/2014  07:35:00       21.021       74.731       -2.273       27.126       39.043       24.863      735.828     1524.381      618.160        0.445        0.144       77.631       25.462        0.108      347.057       25.752      861.713
07/08/2014  07:36:00       27.165      104.275      -13.712       25.677       24.108       18.099      659.328      581.175      327.565        0.668        0.078      107.756       14.589        0.018      347.099       25.822      861.717
07/08/2014  07:37:00       22.309       62.253        1.109       21.235       31.088       20.047      450.910      966.438      401.895        0.310        0.091       66.129       18.301        0.077      347.104       25.831      861.721
07/08/2014  07:38:00       26.559       50.173        3.524       25.258       33.873       21.214      637.957     1147.403      450.039        0.273        0.112       56.769       17.415        0.094      347.129       25.875      861.729
07/08/2014  07:39:00       30.460       44.719        2.169       25.172       29.589       20.725      633.640      875.513      429.543        0.244        0.097       54.107       15.608        0.083      347.178       25.958      861.733
07/08/2014  07:40:00       47.485       50.715       12.922       20.267       23.447       23.812      410.748      549.765      567.022        0.326        0.076       69.476       18.779        0.073      347.180       25.962      861.742
07/08/2014  07:41:00       54.328       51.602        9.870       28.570       35.307       26.794      816.248     1246.591      717.900        0.425        0.139       74.929       20.601        0.076      347.220       26.032      861.748
07/08/2014  07:42:00       32.701       48.434        3.259       29.570       26.724       22.196      874.363      714.178      492.660        0.275        0.104       58.440       17.443        0.089      347.236       26.063      861.761
07/08/2014  07:43:00       31.183       45.445        6.898       24.879       32.595       21.901      618.952     1062.460      479.663        0.262        0.108       55.115       20.965        0.145      347.231       26.050      861.770
07/08/2014  07:44:00       28.309       30.174       12.902       28.194       25.901       25.811      794.899      670.867      666.193        0.200        0.107       41.375       16.766        0.164      347.268       26.115      861.770
07/08/2014  07:45:00       27.706       26.970       12.618       30.294       20.612       17.565      917.738      424.847      308.540        0.165        0.083       38.665       12.257        0.100      347.264       26.106      861.776
07/08/2014  07:46:00       24.119       68.210       -4.675       16.896       32.426       18.312      285.466     1051.452      335.323        0.346        0.084       72.348       19.860        0.075      347.251       26.085      861.773
07/08/2014  07:47:00       19.568       50.331        2.080       19.166       37.630       21.877      367.340     1416.052      478.604        0.259        0.113       54.001       24.113        0.199      347.282       26.138      861.768
07/08/2014  07:48:00       14.974       40.620        1.027       19.001       30.273       18.730      361.039      916.448      350.818        0.175        0.081       43.292       13.557        0.098      347.269       26.114      861.760
07/08/2014  07:49:00       26.996       35.625        6.527       23.350       15.586       17.572      545.225      242.935      308.786        0.157        0.055       44.698       12.354        0.076      347.256       26.090      861.751
07/08/2014  07:50:00       13.531       23.566        3.418       13.963       20.439       12.783      194.958      417.768      163.415        0.076        0.039       27.174        8.666        0.102      347.274       26.122      861.746
07/08/2014  07:51:00       27.113       24.681        3.211       14.515       14.215       12.755      210.687      202.068      162.695        0.096        0.029       36.664        9.140        0.062      347.242       26.067      861.738
07/08/2014  07:52:00       55.957       36.515        7.525        9.318       12.652       12.357       86.826      160.068      152.687        0.246        0.020       66.817        3.194        0.002      347.259       26.098      861.732
07/08/2014  07:53:00       50.873       39.813       11.452       14.885       10.741        9.691      221.577      115.376       93.915        0.237        0.022       64.600        5.992        0.009      347.288       26.151      861.734
07/08/2014  07:54:00       47.930       30.101       -0.519       17.535       10.393       11.638      307.471      108.009      135.445        0.188        0.028       56.598        4.597        0.007      347.277       26.130      861.730
07/08/2014  07:55:00       31.673       21.403       -2.560       11.553       11.935       14.517      133.462      142.433      210.756        0.098        0.024       38.226        9.306        0.059      347.296       26.161      861.734
07/08/2014  07:56:00       30.166       22.195       18.933       14.275        9.488       11.924      203.766       90.022      142.184        0.110        0.022       37.451       10.790        0.083      347.302       26.175      861.741
07/08/2014  07:57:00       -4.308      -11.566       11.664        9.331       25.041       10.141       87.065      627.047      102.834        0.055        0.041       12.342        6.540        0.281      347.299       26.166      861.755
07/08/2014  07:58:00       10.651      -31.523        0.074       15.178       11.172        9.665      230.369      124.814       93.404        0.078        0.022       33.274        6.455        0.038      347.148       25.907      861.763
07/08/2014  07:59:00        4.077      -22.023       -7.279       19.604        8.268       10.515      384.304       68.367      110.571        0.056        0.028       22.397        9.918        0.196      347.203       26.002      861.770
07/08/2014  08:00:00      -28.028      -10.682        1.929       11.317        9.324       10.030      128.080       86.945      100.605        0.061        0.016       29.994        4.908        0.027      347.234       26.055      861.770
07/08/2014  08:01:00      -50.804      -31.437       -0.515       15.305       15.963       10.719      234.255      254.810      114.905        0.209        0.030       59.744        6.218        0.011      347.277       26.126      861.772
07/08/2014  08:02:00      -27.115      -27.275        5.065       29.884       22.849       19.236      893.065      522.097      370.025        0.164        0.089       38.460       17.881        0.216      347.324       26.212      861.790
07/08/2014  08:03:00      -34.214      -42.567        9.155       37.108       29.561       18.554     1376.976      873.865      344.259        0.283        0.130       54.613       18.510        0.115      347.271       26.117      861.804
07/08/2014  08:04:00      -73.133      -53.461        0.647       40.262       30.506       20.094     1621.010      930.618      403.780        0.558        0.148       90.589       18.835        0.043      347.241       26.069      861.812
07/08/2014  08:05:00      -51.982      -29.770        0.400       29.939       21.640       19.936      896.372      468.296      397.426        0.268        0.088       59.903       15.114        0.064      347.250       26.084      861.823
07/08/2014  08:06:00      -40.129      -59.038       -0.056       23.156       16.987        9.647      536.220      288.569       93.061        0.301        0.046       71.386        4.271        0.004      347.243       26.070      861.834
07/08/2014  08:07:00      -43.180      -71.510        5.789       26.513       41.322       16.003      702.942     1707.472      256.099        0.484        0.133       83.535       13.340        0.026      347.243       26.070      861.836
07/08/2014  08:08:00      -63.754     -117.253       -4.037       27.392       24.674       17.741      750.346      608.808      314.741        0.975        0.084      133.465       14.720        0.012      347.179       25.960      861.838
07/08/2014  08:09:00     -100.860     -114.962       -8.466       29.028       28.088       18.123      842.654      788.932      328.457        1.271        0.098      152.934       17.450        0.013      347.178       25.960      861.830
07/08/2014  08:10:00      -87.192      -78.032        1.625       49.295       30.427       28.964     2430.017      925.824      838.885        0.894        0.210      117.010       27.200        0.054      347.149       25.910      861.828
07/08/2014  08:11:00     -101.945     -113.888      -13.174       45.182       29.331       21.360     2041.452      860.300      456.260        1.345        0.168      152.850       20.773        0.018      347.135       25.887      861.830
07/08/2014  08:12:00     -118.737     -103.296       -9.566       32.210       49.134       23.454     1037.461     2414.135      550.081        1.443        0.200      157.380       15.975        0.010      347.157       25.925      861.831
07/08/2014  08:13:00     -133.942     -116.271       -6.602       29.654       30.247       23.690      879.345      914.882      561.201        1.693        0.118      177.368       19.215        0.012      347.165       25.938      861.835
07/08/2014  08:14:00     -107.366      -75.553       -3.994       31.560       41.804       20.205      996.034     1747.550      408.236        1.020        0.158      131.285       16.045        0.015      347.190       25.981      861.839
07/08/2014  08:15:00     -112.733      -79.383       -5.305       32.355       38.145       24.829     1046.831     1455.068      616.498        1.108        0.156      137.878       23.286        0.029      347.186       25.972      861.844
07/08/2014  08:16:00     -118.418      -88.927        1.767       48.631       48.365       26.164     2364.977     2339.195      684.573        1.366        0.269      148.090       18.566        0.016      347.175       25.953      861.838
07/08/2014  08:17:00      -81.452      -66.239       -1.003       37.784       33.538       26.372     1427.613     1124.772      695.462        0.713        0.162      104.986       20.479        0.038      347.160       25.927      861.834
07/08/2014  08:18:00      -81.776      -61.375       -6.325       34.047       33.507       21.725     1159.226     1122.750      471.984        0.662        0.138      102.245       20.035        0.038      347.171       25.946      861.834
07/08/2014  08:19:00      -84.077      -78.839       10.413       51.596       45.398       30.894     2662.195     2061.008      954.444        0.953        0.284      115.258       29.425        0.065      347.147       25.908      861.841
07/08/2014  08:20:00      -75.101     -123.087      -10.581       30.415       36.471       25.365      925.094     1330.115      643.399        1.190        0.145      144.189       22.053        0.023      347.158       25.928      861.846
07/08/2014  08:21:00      -36.400      -75.045       10.489       35.420       31.042       21.739     1254.578      963.622      472.587        0.488        0.135       83.407       17.150        0.042      347.211       26.015      861.869
07/08/2014  08:22:00      -28.487     -119.462        5.413       16.752       25.030       16.480      280.620      626.499      271.578        0.815        0.059      122.811       12.317        0.010      347.206       26.006      861.886
07/08/2014  08:23:00      -45.954      -45.211        6.705       35.159       28.874       19.571     1236.155      833.690      383.042        0.333        0.123       64.465       14.505        0.051      347.233       26.056      861.901
07/08/2014  08:24:00      -15.697      -32.911        1.769       54.234       22.804       16.388     2941.355      520.017      268.568        0.253        0.186       36.463       10.656        0.085      347.233       26.055      861.926
07/08/2014  08:25:00      -28.793      -45.301        3.551       29.662       44.389       19.572      879.823     1970.340      383.081        0.306        0.162       53.676       20.187        0.141      347.237       26.057      861.940
07/08/2014  08:26:00      -57.840      -62.856        0.040       35.846       41.944       16.632     1284.909     1759.307      276.609        0.531        0.166       85.418       23.920        0.078      347.228       26.047      861.947
07/08/2014  08:27:00      -87.637      -61.343       -6.996       39.311       17.371       17.689     1545.392      301.753      312.884        0.683        0.108      106.973       18.104        0.029      347.226       26.041      861.952
07/08/2014  08:28:00      -15.517      -30.762        2.644       23.305       17.690       12.089      543.135      312.943      146.135        0.110        0.050       34.453       13.548        0.155      347.242       26.070      861.957
07/08/2014  08:29:00      -21.155      -29.684       -0.591       13.919       17.507       12.459      193.730      306.504      155.219        0.099        0.033       36.451       11.176        0.094      347.251       26.085      861.967
07/08/2014  08:30:00      -32.037      -34.213        6.385       40.942       16.891       12.770     1676.214      285.300      163.078        0.218        0.106       46.871       17.029        0.132      347.311       26.187      861.970
07/08/2014  08:31:00      -14.174      -22.702        8.060       28.714       16.362       11.948      824.511      267.717      142.761        0.101        0.062       26.763       12.612        0.222      347.353       26.262      861.970
07/08/2014  08:32:00       -9.618      -29.436       11.429       18.101       15.773       16.540      327.662      248.778      273.581        0.097        0.043       30.968       16.222        0.274      347.357       26.266      861.980
07/08/2014  08:33:00      -22.713        7.960       10.135       26.312       22.260       10.035      692.296      495.525      100.693        0.099        0.064       24.067       10.094        0.176      347.363       26.280      861.991
07/08/2014  08:34:00      -30.448      -40.223       -4.623       35.418       18.377       19.020     1254.456      337.727      361.770        0.226        0.098       50.447       19.597        0.151      347.347       26.249      862.005
07/08/2014  08:35:00      -38.962      -40.830       -2.678       13.720       14.319       10.328      188.230      205.021      106.673        0.185        0.025       56.437        7.006        0.015      347.333       26.228      862.008
07/08/2014  08:36:00      -30.694      -61.869       -0.878       14.057       17.717       11.960      197.594      313.891      143.035        0.271        0.033       69.064        8.304        0.014      347.311       26.189      862.013
07/08/2014  08:37:00      -23.242      -69.064       -2.203       22.276       21.731       16.232      496.217      472.246      263.480        0.327        0.062       72.870       11.112        0.023      347.319       26.202      862.019
07/08/2014  08:38:00      -30.987      -26.497        7.206       23.841       25.368       15.826      568.411      643.547      250.455        0.159        0.073       40.771       15.673        0.148      347.388       26.321      862.024
07/08/2014  08:39:00      -22.733       -8.524       -0.296       16.420       11.733        7.606      269.626      137.659       57.849        0.053        0.023       24.279        7.546        0.097      347.365       26.282      862.027
07/08/2014  08:40:00       -7.961      -12.691        4.720       21.778       15.737       18.695      474.264      247.641      349.521        0.066        0.054       14.982       15.475        1.067      347.466       26.456      862.033
07/08/2014  08:41:00        2.842      -52.987        3.277        9.827       14.421        9.599       96.575      207.958       92.136        0.161        0.020       53.063        8.207        0.024      347.358       26.275      862.040
07/08/2014  08:42:00        8.640      -15.623       20.628       10.791       24.022        8.385      116.438      577.077       70.301        0.075        0.038       17.853        8.674        0.236      347.501       26.517      862.054
07/08/2014  08:43:00      -13.677      -29.108        2.645       17.560       19.407       15.049      308.342      376.639      226.477        0.098        0.046       32.161       15.313        0.227      347.498       26.508      862.069
07/08/2014  08:44:00      -28.089      -30.310        0.789       19.039       18.352       15.802      362.475      336.782      249.712        0.133        0.047       41.324       16.912        0.167      347.490       26.496      862.082
07/08/2014  08:45:00      -36.529      -36.321       -3.560       22.560       15.809       10.059      508.960      249.931      101.187        0.176        0.043       51.513        8.002        0.024      347.437       26.403      862.097
07/08/2014  08:46:00      -41.576      -46.022       -6.360       17.723       11.323       12.118      314.105      128.220      146.837        0.224        0.029       62.021        7.509        0.015      347.369       26.287      862.107
07/08/2014  08:47:00      -22.523      -44.187        2.595       25.410       18.109       16.832      645.683      327.939      283.331        0.186        0.063       49.596       16.683        0.113      347.411       26.359      862.108
07/08/2014  08:48:00      -46.510      -31.586       -8.745        8.063        8.008        6.849       65.011       64.134       46.913        0.171        0.009       56.222        3.868        0.005      347.412       26.366      862.115
07/08/2014  08:49:00      -29.070       -3.506       -4.614        9.581        9.651        7.909       91.798       93.136       62.558        0.056        0.012       29.281        4.137        0.020      347.449       26.424      862.131
07/08/2014  08:50:00       -3.105      -18.001       -1.291        9.859       23.353        9.249       97.201      545.370       85.546        0.053        0.036       18.266        7.085        0.150      347.556       26.610      862.138
07/08/2014  08:51:00       13.613       -8.402       -6.241       16.221       13.817       11.740      263.125      190.915      137.831        0.044        0.030       15.997        7.488        0.219      347.385       26.315      862.148
07/08/2014  08:52:00       33.544       -9.645       -6.118       24.749       15.166       13.463      612.521      230.016      181.240        0.114        0.051       34.903        7.734        0.049      347.316       26.197      862.145
07/08/2014  08:53:00       17.692       -2.547        5.879       15.590       11.104       15.053      243.049      123.294      226.581        0.047        0.030       17.874       11.324        0.401      347.517       26.544      862.149
07/08/2014  08:54:00       13.386        0.395       20.691       17.702       10.874       14.285      313.366      118.239      204.068        0.062        0.032       13.391        9.666        0.521      347.742       26.931      862.150
07/08/2014  08:55:00       39.268      -19.933        4.878       25.634       17.344       17.154      657.087      300.806      294.274        0.161        0.063       44.038       12.211        0.077      347.412       26.363      862.144
07/08/2014  08:56:00       26.769      -31.936       -5.542       14.262       14.170       17.022      203.391      200.775      289.762        0.123        0.035       41.671       10.604        0.065      347.537       26.579      862.133
07/08/2014  08:57:00       -8.955       -7.794        3.301       16.778       13.332       11.782      281.518      177.743      138.816        0.037        0.030       11.871       10.471        0.778      347.699       26.858      862.140
07/08/2014  08:58:00      -12.921        6.233        9.659       12.716        8.396        9.957      161.701       70.496       99.147        0.032        0.017       14.346        7.437        0.269      347.834       27.092      862.153
07/08/2014  08:59:00       -2.249       -3.301        4.273       11.411        9.450       10.334      130.215       89.300      106.790        0.018        0.016        3.995        5.622        1.981      347.845       27.109      862.147
07/08/2014  09:00:00        2.776       -0.862       25.922       20.255       18.933       13.618      410.251      358.457      185.458        0.082        0.048        2.907        9.987       11.806      347.901       27.206      862.146
07/08/2014  09:01:00        2.542       10.560       25.884       16.170       21.660       18.053      261.472      469.167      325.913        0.092        0.053       10.862       13.491        1.543      347.898       27.201      862.152
07/08/2014  09:02:00       -6.041        0.901       21.376       22.422       31.829       22.710      502.754     1013.062      515.733        0.126        0.102        6.108       10.656        3.044      347.809       27.047      862.142
07/08/2014  09:03:00       39.414      -88.084      -17.480       35.494       34.578       30.100     1259.848     1195.607      906.021        0.649        0.168       96.500       23.643        0.060      347.849       27.117      862.151
07/08/2014  09:04:00       -2.788      -60.235       -2.458       23.452       34.433       25.916      549.980     1185.628      671.628        0.302        0.120       60.300       15.799        0.069      347.830       27.084      862.147
07/08/2014  09:05:00       12.435      -47.535        9.684       21.656       35.725       24.891      468.976     1276.275      619.577        0.244        0.118       49.135       24.789        0.255      347.891       27.188      862.146
07/08/2014  09:06:00       35.624      -40.304        4.839       20.626       29.640       16.876      425.417      878.546      284.800        0.225        0.079       53.791       10.343        0.037      347.807       27.044      862.151
07/08/2014  09:07:00        7.522      -35.410       11.996       21.575       24.021       18.786      465.479      576.998      352.920        0.142        0.070       36.200       10.390        0.082      347.831       27.085      862.138
07/08/2014  09:08:00       34.555      -35.689       -7.732       23.070       21.573       10.026      532.234      465.394      100.516        0.181        0.055       49.676        5.844        0.014      347.823       27.070      862.142
07/08/2014  09:09:00      -10.068      -46.804       -4.035       18.054       20.578       17.632      325.947      423.461      310.901        0.168        0.053       47.875        8.011        0.028      347.971       27.326      862.145
07/08/2014  09:10:00       -5.254       -8.864       24.240       15.826       35.514       25.856      250.474     1261.238      668.536        0.144        0.109       10.304       23.200        5.069      348.144       27.624      862.146
07/08/2014  09:11:00        8.631      -45.977       19.744       26.753       43.112       26.289      715.717     1858.646      691.113        0.292        0.163       46.780       28.088        0.361      348.059       27.479      862.144
07/08/2014  09:12:00        3.532      -39.290        9.707       24.397       32.939       22.662      595.237     1084.971      513.582        0.192        0.110       39.448       21.524        0.298      348.016       27.403      862.139
07/08/2014  09:13:00        4.943      -52.362       -4.821       16.495       24.668       16.244      272.100      608.527      263.880        0.197        0.057       52.595        5.223        0.010      347.968       27.323      862.146
07/08/2014  09:14:00        3.939        1.753       21.387       14.529       38.259       20.872      211.079     1463.726      435.650        0.129        0.106        4.311       23.462       29.615      348.186       27.699      862.144
07/08/2014  09:15:00        2.134       -2.691       25.489       12.852       16.582       10.471      165.182      274.976      109.650        0.061        0.027        3.435        8.660        6.357      348.356       27.992      862.156
07/08/2014  09:16:00       36.006      -23.727        5.708       25.558       24.584       24.722      653.188      604.391      611.169        0.188        0.093       43.121       22.816        0.280      347.976       27.337      862.168
07/08/2014  09:17:00       24.173      -42.883       15.624       25.472       21.226       20.411      648.828      450.554      416.606        0.209        0.076       49.227       13.580        0.076      348.142       27.623      862.175
07/08/2014  09:18:00       12.298       19.702       28.517       26.202       24.271       19.781      686.534      589.061      391.304        0.151        0.083       23.225       10.701        0.212      348.216       27.750      862.185
07/08/2014  09:19:00       12.024        1.960       17.649       21.123       12.458       13.084      446.175      155.193      171.187        0.062        0.039       12.183       12.346        1.027      348.298       27.892      862.204
07/08/2014  09:20:00       -3.148       -2.237       18.436       14.014       11.818        9.649      196.402      139.657       93.096        0.039        0.021        3.862        4.720        1.494      348.711       28.607      862.203
07/08/2014  09:21:00        2.931      -11.026       10.023       17.362       24.565       16.179      301.428      603.451      261.762        0.070        0.058       11.409       12.655        1.231      348.473       28.195      862.208
07/08/2014  09:22:00       21.517       20.504       32.411       34.929       32.729       20.082     1220.067     1071.164      403.272        0.231        0.135       29.722       14.539        0.239      348.695       28.578      862.208
07/08/2014  09:23:00       42.634       21.108       17.467       23.483       25.468       23.528      551.473      648.610      553.544        0.216        0.088       47.574       12.699        0.071      348.339       27.962      862.201
07/08/2014  09:24:00       64.023       52.233       -4.045       27.122       20.444       20.464      735.577      417.938      418.783        0.421        0.079       82.627        6.133        0.006      348.206       27.734      862.188
07/08/2014  09:25:00       48.438       50.940       11.810       27.234       31.173       29.001      741.715      971.749      841.056        0.382        0.128       70.293       15.904        0.051      348.274       27.852      862.177
07/08/2014  09:26:00       49.227      -17.069       17.017       52.574       35.617       30.506     2763.985     1268.599      930.633        0.398        0.248       52.102       31.063        0.355      348.419       28.101      862.164
07/08/2014  09:27:00       26.940      -19.400       11.386       36.828       47.559       23.810     1356.304     2261.872      566.927        0.271        0.209       33.198       26.825        0.653      348.465       28.181      862.152
07/08/2014  09:28:00       27.205       28.350       36.897       33.087       20.186       18.901     1094.756      407.491      357.261        0.238        0.093       39.292        7.910        0.041      348.453       28.161      862.145
07/08/2014  09:29:00       60.057      -14.254       19.652       33.196       22.588       17.522     1101.953      510.213      307.035        0.306        0.096       61.725       13.471        0.048      347.986       27.351      862.138
07/08/2014  09:30:00       35.581      -12.293       14.559       34.432       25.549       27.373     1185.593      652.751      749.296        0.211        0.129       37.645       24.805        0.434      348.271       27.846      862.134
07/08/2014  09:31:00       30.653       16.977       27.999       21.615       25.311       20.091      467.211      640.624      403.634        0.176        0.076       35.041       11.129        0.101      348.303       27.901      862.140
07/08/2014  09:32:00       27.963       20.349       19.340       25.368       16.223       19.598      643.549      263.178      384.069        0.143        0.065       34.584       10.900        0.099      348.199       27.720      862.150
07/08/2014  09:33:00       41.151       40.065        2.063       18.087       15.538       18.759      327.139      241.436      351.884        0.211        0.046       57.433        8.150        0.020      348.075       27.507      862.154
07/08/2014  09:34:00       16.237       33.093        5.201       20.211       25.706       19.553      408.490      660.779      382.319        0.142        0.073       36.862       16.856        0.209      348.408       28.083      862.171
07/08/2014  09:35:00        2.201       16.424        6.395       15.880       30.864       15.489      252.185      952.569      239.896        0.088        0.072       16.570       16.163        0.951      348.736       28.650      862.176
07/08/2014  09:36:00        8.901       11.229       11.351       16.808       11.646       14.256      282.524      135.626      203.227        0.048        0.031       14.328        4.311        0.091      348.694       28.577      862.184
07/08/2014  09:37:00       11.193       15.830       22.914       19.452       17.892       13.878      378.369      320.118      192.605        0.090        0.045       19.387       12.396        0.409      348.888       28.912      862.185
07/08/2014  09:38:00       16.232       68.251       -4.278       33.869       30.541       19.770     1147.111      932.753      390.866        0.370        0.124       70.155       17.546        0.063      348.456       28.166      862.189
07/08/2014  09:39:00       -1.925       80.480       -1.904       12.969       33.503       16.430      168.184     1122.446      269.951        0.402        0.078       80.503       18.063        0.050      348.542       28.315      862.190
07/08/2014  09:40:00       43.086       30.977       -1.148       31.216       26.699       22.606      974.461      712.831      511.009        0.251        0.110       53.066       11.752        0.049      348.515       28.268      862.188
07/08/2014  09:41:00        7.997       -6.419        6.705       17.077       15.631       16.064      291.624      244.322      258.045        0.047        0.040       10.255        7.921        0.597      348.651       28.502      862.184
07/08/2014  09:42:00       -7.591       15.420       24.519       20.917       20.971       23.960      437.514      439.789      574.059        0.117        0.073       17.187       17.060        0.985      348.936       28.997      862.190
07/08/2014  09:43:00       15.364       17.201       35.865       16.147       20.382       11.576      260.714      415.415      134.000        0.131        0.041       23.064        8.848        0.147      349.056       29.204      862.193
07/08/2014  09:44:00        1.969       -3.816       27.798       12.607       11.574        6.594      158.925      133.969       43.476        0.056        0.017        4.294        3.169        0.545      349.345       29.706      862.199
07/08/2014  09:45:00        4.114       15.954       12.059        8.071        9.761       12.192       65.136       95.284      148.646        0.036        0.015       16.475        4.081        0.061      348.839       28.828      862.206
07/08/2014  09:46:00        5.535       26.328       11.082       13.656       23.473       15.581      186.495      550.994      242.760        0.091        0.049       26.904       13.772        0.262      348.884       28.907      862.213
07/08/2014  09:47:00        4.892       51.893        1.781       23.187       30.618       23.559      537.643      937.470      555.004        0.237        0.102       52.123       19.841        0.145      348.688       28.567      862.228
07/08/2014  09:48:00        2.430       17.256        8.253       21.447       19.586       20.546      459.975      383.622      422.145        0.082        0.063       17.426       16.552        0.902      348.792       28.748      862.244
07/08/2014  09:49:00      -16.173       54.702        0.256       12.494       17.554       13.096      156.098      308.146      171.510        0.194        0.032       57.043        9.063        0.025      348.492       28.227      862.252
07/08/2014  09:50:00       -5.879       44.196       -7.536       10.875       15.327       13.163      118.267      234.922      173.257        0.129        0.026       44.585       11.285        0.064      348.472       28.193      862.259
07/08/2014  09:51:00      -24.781       10.975       -4.585       15.431       12.646       11.566      238.103      159.927      133.762        0.064        0.027       27.102        5.011        0.034      348.627       28.462      862.259
07/08/2014  09:52:00      -10.208       13.739       12.898       13.545       16.672       18.645      183.468      277.969      347.646        0.063        0.040       17.116       13.497        0.622      349.180       29.421      862.253
07/08/2014  09:53:00       12.045       37.498        9.362       31.924       28.898       22.613     1019.144      835.098      511.329        0.200        0.118       39.385       17.975        0.208      348.781       28.729      862.250
07/08/2014  09:54:00       14.579       29.496       -7.342       18.858       29.972       14.068      355.638      898.298      197.906        0.129        0.073       32.902       16.347        0.247      348.754       28.682      862.249
07/08/2014  09:55:00       -4.691       12.146       15.169       12.874       15.728       16.302      165.733      247.381      265.750        0.054        0.034       13.020       10.784        0.686      349.271       29.577      862.253
07/08/2014  09:56:00       13.133       20.257       20.937       17.062       18.076       16.038      291.096      326.740      257.204        0.095        0.044       24.142       14.575        0.364      349.074       29.235      862.258
07/08/2014  09:57:00       20.172       23.659       23.223       23.340       28.087       23.182      544.741      788.895      537.406        0.169        0.094       31.091       13.273        0.182      349.139       29.348      862.256
07/08/2014  09:58:00       45.112       13.362        4.843       37.376       46.350       32.093     1396.947     2148.295     1029.965        0.341        0.229       47.049       17.642        0.141      348.855       28.855      862.258
07/08/2014  09:59:00       25.327       24.163        5.734       33.326       36.051       27.154     1110.599     1299.674      737.322        0.220        0.157       35.004       18.440        0.278      348.996       29.100      862.249
07/08/2014  10:00:00        6.566       52.346        3.765       28.751       39.154       26.243      826.628     1533.014      688.699        0.292        0.152       52.757       20.770        0.155      348.981       29.074      862.253
07/08/2014  10:01:00       39.361       26.028       18.207       28.737       29.084       29.296      825.808      845.870      858.275        0.254        0.126       47.188       21.104        0.200      348.859       28.861      862.248
07/08/2014  10:02:00        3.251       32.302       -0.267       22.558       18.264       16.515      508.866      333.585      272.759        0.108        0.056       32.466        9.647        0.088      348.862       28.868      862.257
07/08/2014  10:03:00       12.404       18.323       12.962       12.596       13.573       13.199      158.654      184.215      174.210        0.059        0.026       22.126        2.712        0.015      349.117       29.311      862.250
07/08/2014  10:04:00       41.371       46.287        9.888       49.085       30.758       26.339     2409.310      946.063      693.740        0.400        0.202       62.081       24.177        0.152      348.753       28.679      862.267
07/08/2014  10:05:00       97.519       61.004       15.256       24.318       23.686       17.724      591.388      561.011      314.141        0.747        0.073      115.028        6.140        0.003      348.529       28.293      862.263
07/08/2014  10:06:00       62.189       38.599       10.357       48.977       34.159       25.739     2398.760     1166.843      662.513        0.485        0.211       73.194       21.344        0.085      348.774       28.715      862.271
07/08/2014  10:07:00       50.054       55.417        6.193       21.944       32.357       29.891      481.534     1046.952      893.465        0.402        0.121       74.676       24.696        0.109      348.784       28.733      862.277
07/08/2014  10:08:00       56.488        3.785       10.839       36.752       47.471       27.728     1350.684     2253.466      768.837        0.385        0.219       56.615       25.914        0.210      348.797       28.755      862.282
07/08/2014  10:09:00       19.217      -35.725       24.722       27.667       65.803       27.620      765.449     4330.024      762.868        0.406        0.293       40.566       35.146        0.751      349.316       29.654      862.285
07/08/2014  10:10:00      -26.560      -24.715       15.284       26.097       48.996       25.637      681.058     2400.608      657.256        0.264        0.187       36.280       30.160        0.691      349.268       29.572      862.293
07/08/2014  10:11:00      -80.164        4.269      -12.994       13.613       16.010       11.190      185.325      256.335      125.206        0.359        0.028       80.278        7.623        0.009      348.694       28.576      862.296
07/08/2014  10:12:00      -28.058      -51.778        2.950       30.817       24.361       20.212      949.682      593.476      408.508        0.271        0.098       58.892       17.363        0.087      349.060       29.212      862.288
07/08/2014  10:13:00      -74.236      -46.639      -13.232       50.655       26.253       18.639     2565.930      689.205      347.401        0.573        0.180       87.671        7.545        0.007      348.970       29.055      862.291
07/08/2014  10:14:00      -95.045      -64.296        8.291       50.885       49.409       30.756     2589.265     2441.230      945.960        0.961        0.299      114.750       23.635        0.042      348.929       28.984      862.285
07/08/2014  10:15:00      -60.860      -54.496        4.577       49.245       46.359       26.452     2425.060     2149.165      699.684        0.598        0.264       81.693       27.288        0.112      349.054       29.200      862.290
07/08/2014  10:16:00      -53.667      -60.345        4.660       54.729       36.101       25.090     2995.271     1303.283      629.525        0.573        0.246       80.757       29.445        0.133      349.005       29.115      862.295
07/08/2014  10:17:00      -75.918      -99.663       -5.803       42.281       27.225       23.430     1787.688      741.206      548.951        0.940        0.154      125.285       20.898        0.028      348.685       28.562      862.305
07/08/2014  10:18:00      -74.535      -86.490       -2.937       35.919       41.547       23.021     1290.162     1726.160      529.979        0.829        0.177      114.175       18.250        0.026      348.734       28.647      862.311
07/08/2014  10:19:00     -104.282      -51.972        0.716       40.157       28.213       18.855     1612.573      795.953      355.500        0.817        0.138      116.516       16.399        0.020      348.850       28.847      862.306
07/08/2014  10:20:00      -60.497      -28.821        5.732       30.708       33.232       18.780      942.965     1104.372      352.697        0.346        0.120       67.011       14.111        0.044      349.089       29.260      862.305
07/08/2014  10:21:00      -35.471      -29.720       -1.971       22.149       23.801       15.036      490.599      566.498      226.076        0.171        0.064       46.276       13.627        0.087      349.220       29.488      862.307
07/08/2014  10:22:00      -47.293      -23.080        1.783       35.516       27.076       19.189     1261.383      733.103      368.236        0.257        0.118       52.624       16.942        0.104      349.311       29.646      862.299
07/08/2014  10:23:00      -33.779      -38.457        3.955       40.224       34.444       25.068     1617.985     1186.391      628.402        0.303        0.172       51.185       19.693        0.148      349.190       29.436      862.295
07/08/2014  10:24:00     -108.084      -69.121       -9.906       18.293       24.037       13.885      334.625      577.780      192.802        0.883        0.055      128.295        5.667        0.002      348.767       28.704      862.291
07/08/2014  10:25:00      -65.596      -32.370       -8.900       26.803       29.133        8.051      718.396      848.747       64.823        0.353        0.082       73.148       12.013        0.027      348.767       28.704      862.283
07/08/2014  10:26:00      -41.268        1.276       -3.596       13.261       12.631       11.169      175.844      159.542      124.757        0.109        0.023       41.288        7.014        0.029      348.971       29.056      862.280
07/08/2014  10:27:00      -38.793       -8.478       19.466       34.933       32.662       34.585     1220.312     1066.801     1196.089        0.272        0.174       39.709       29.863        0.566      349.522       30.012      862.271
07/08/2014  10:28:00      -34.042      -95.001       -0.679       41.317       67.156       27.898     1707.085     4509.991      778.276        0.859        0.350      100.916       28.489        0.080      349.031       29.160      862.270
07/08/2014  10:29:00      -85.079      -27.191        9.786       71.634       31.200       25.194     5131.431      973.412      634.720        0.741        0.337       89.318       28.641        0.103      349.421       29.837      862.255
07/08/2014  10:30:00     -128.696      -79.262       -9.030       55.148       44.230       29.815     3041.273     1956.308      888.920        1.441        0.294      151.146       15.541        0.011      349.031       29.160      862.238
07/08/2014  10:31:00     -102.096      -84.377        5.277       52.902       50.257       31.572     2798.668     2525.775      996.767        1.194        0.316      132.450       22.833        0.030      349.180       29.418      862.241
07/08/2014  10:32:00      -77.840      -63.232        2.643       35.280       36.555       25.847     1244.698     1336.245      668.071        0.666        0.162      100.286       20.109        0.040      349.197       29.448      862.234
07/08/2014  10:33:00     -131.183      -70.637        0.246       61.014       74.922       39.199     3722.660     5613.284     1536.549        1.653        0.544      148.991       32.771        0.048      349.217       29.482      862.228
07/08/2014  10:34:00      -60.821     -155.009        4.429       35.871       65.662       24.530     1286.734     4311.455      601.703        1.697        0.310      166.515       19.493        0.014      348.949       29.017      862.226
07/08/2014  10:35:00      -70.672     -116.613       -8.432       39.204       40.367       28.185     1536.984     1629.484      794.408        1.131        0.198      136.356       20.808        0.023      349.167       29.395      862.219
07/08/2014  10:36:00      -89.263      -70.477       14.886       70.470       59.308       47.379     4966.076     3517.489     2244.808        1.194        0.536      113.731       47.068        0.171      349.394       29.792      862.216
07/08/2014  10:37:00      -81.755      -91.386        7.719       74.104       52.364       34.111     5491.396     2741.989     1163.574        1.224        0.470      122.618       18.273        0.022      349.234       29.512      862.225
07/08/2014  10:38:00      -55.142      -95.430      -10.204       27.193       47.211       23.491      739.485     2228.885      551.842        0.789        0.176      110.216       18.507        0.028      348.962       29.042      862.235
07/08/2014  10:39:00      -51.155      -77.226       -0.073       39.632       28.741       25.957     1570.714      826.067      673.768        0.583        0.154       92.632       20.567        0.049      349.131       29.334      862.235
07/08/2014  10:40:00      -28.297      -56.510       -5.954       29.801       34.333       20.509      888.126     1178.787      420.616        0.326        0.124       63.199       13.927        0.049      349.308       29.642      862.222
07/08/2014  10:41:00      -26.701     -107.139      -10.754       44.414       53.960       35.578     1972.577     2911.724     1265.768        0.923        0.308      110.416       28.676        0.067      349.243       29.528      862.227
07/08/2014  10:42:00      -96.293     -128.910       -6.677       52.910       40.145       34.462     2799.446     1611.644     1187.622        1.577        0.280      160.904       16.023        0.010      349.184       29.423      862.222
07/08/2014  10:43:00      -68.043      -97.280      -10.821       30.667       45.363       20.314      940.494     2057.774      412.666        0.881        0.171      118.715       14.967        0.016      349.108       29.294      862.218
07/08/2014  10:44:00       -1.083     -100.020       -8.964       80.955       66.859       39.959     6553.716     4470.140     1596.734        1.135        0.631      100.026       28.841        0.083      349.391       29.785      862.208
07/08/2014  10:45:00      -56.694     -169.557        0.459       27.451       45.082       23.926      753.563     2032.343      572.449        1.766        0.168      178.784       12.404        0.005      349.197       29.447      862.230
07/08/2014  10:46:00      -81.444      -68.086        6.338       58.574       37.998       35.029     3430.885     1443.839     1227.014        0.870        0.305      106.155       23.827        0.050      349.486       29.949      862.221
07/08/2014  10:47:00     -117.113      -84.968        5.246       79.468       66.393       38.029     6315.104     4408.009     1446.221        1.656        0.608      144.689       24.635        0.029      349.350       29.713      862.230
07/08/2014  10:48:00      -99.926      -37.790       16.670       79.186       54.858       39.427     6270.444     3009.452     1554.473        1.126        0.542      106.833       38.027        0.127      349.399       29.797      862.244
07/08/2014  10:49:00     -153.356      -87.321        0.410       84.034       62.013       41.705     7061.659     3845.610     1739.325        2.189        0.632      176.474       40.339        0.052      349.131       29.331      862.241
07/08/2014  10:50:00      -93.523     -111.630        3.836       56.161       71.879       32.111     3154.033     5166.590     1031.134        1.529        0.468      145.629       15.715        0.012      349.163       29.387      862.238
07/08/2014  10:51:00      -55.265     -123.301        8.123       66.140      109.012       41.152     4374.562    11883.551     1693.492        1.813        0.898      135.120       56.054        0.172      349.513       29.994      862.235
07/08/2014  10:52:00     -104.850      -63.910       -6.467       60.341       31.803       24.536     3641.012     1011.410      602.019        1.019        0.263      122.792       24.390        0.039      349.250       29.541      862.242
07/08/2014  10:53:00     -112.014     -179.489       -2.765       68.892       84.264       33.569     4746.100     7100.389     1126.885        2.887        0.649      211.574       13.643        0.004      349.081       29.245      862.233
07/08/2014  10:54:00     -139.699     -194.927      -15.984       64.361       82.306       35.125     4142.331     6774.200     1233.789        3.496        0.608      239.817       37.693        0.025      349.024       29.143      862.239
07/08/2014  10:55:00      -44.848      -55.843        1.163       73.222       39.378       33.094     5361.410     1550.631     1095.181        0.657        0.400       71.622       34.022        0.226      349.233       29.510      862.235
07/08/2014  10:56:00      -44.674      -38.729        7.217       58.360       35.723       25.799     3405.890     1276.105      665.587        0.445        0.267       59.125       22.370        0.143      349.555       30.070      862.229
07/08/2014  10:57:00      -48.562       15.099        8.014       35.135       29.483       15.367     1234.471      869.257      236.151        0.249        0.117       50.855       15.600        0.094      349.530       30.025      862.227
07/08/2014  10:58:00      -61.214      -75.043        6.445       66.913       49.157       23.197     4477.321     2416.417      538.119        0.842        0.372       96.843       19.653        0.041      349.423       29.840      862.241
07/08/2014  10:59:00        1.616      -23.705       31.348       28.644       33.242       21.482      820.463     1105.044      461.457        0.197        0.119       23.760       17.870        0.566      349.589       30.129      862.241
07/08/2014  11:00:00      -97.060      -56.751       10.523       64.243       56.719       35.936     4127.116     3217.072     1291.367        1.069        0.432      112.433       30.802        0.075      349.415       29.825      862.251
07/08/2014  11:01:00      -38.600      -16.691       25.945       62.816       32.773       25.434     3945.814     1074.076      646.874        0.405        0.283       42.054       32.495        0.597      349.725       30.364      862.248
07/08/2014  11:02:00       -3.119       -5.890       24.638       23.866       22.979       21.687      569.604      528.012      470.345        0.111        0.078        6.665       13.464        4.081      349.939       30.737      862.250
07/08/2014  11:03:00      -13.282       -2.180       20.947       20.879       12.929       14.943      435.947      167.151      223.291        0.072        0.041       13.460       13.260        0.971      349.988       30.819      862.246
07/08/2014  11:04:00      -50.328      -17.977        7.720       31.339       34.828       18.905      982.145     1212.961      357.380        0.273        0.128       53.443       18.558        0.121      349.568       30.092      862.235
07/08/2014  11:05:00     -200.762      -57.519      -12.315       88.901       71.226       33.885     7903.444     5073.170     1148.162        2.894        0.706      208.839       43.785        0.044      349.266       29.564      862.237
07/08/2014  11:06:00     -168.098       -3.663      -22.731       86.930       64.402       24.255     7556.801     4147.674      588.318        2.054        0.615      168.138       34.228        0.041      349.139       29.345      862.233
07/08/2014  11:07:00      -60.866      -62.675        2.722       48.141       66.031       22.115     2317.558     4360.135      489.073        0.740        0.358       87.366       22.893        0.069      349.352       29.716      862.226
07/08/2014  11:08:00      -78.884     -121.087       -1.693       49.182       63.428       32.508     2418.851     4023.138     1056.796        1.419        0.375      144.516       26.382        0.033      349.308       29.641      862.226
07/08/2014  11:09:00      -69.480     -162.317        0.912       32.533       39.695       25.167     1058.375     1575.666      633.375        1.722        0.163      176.563       18.489        0.011      349.174       29.407      862.241
07/08/2014  11:10:00      -61.733      -73.029       11.440       63.740       62.185       26.013     4062.758     3867.009      676.663        0.894        0.430       95.625       32.438        0.115      349.381       29.767      862.245
07/08/2014  11:11:00      -30.706      -24.160        8.773       26.560       43.052       21.723      705.456     1853.470      471.884        0.232        0.152       39.071       23.451        0.360      349.479       29.938      862.242
07/08/2014  11:12:00      -19.108      -13.060       10.617       23.950       30.260       26.386      573.624      915.673      696.212        0.142        0.109       23.145       24.569        1.127      349.545       30.052      862.235
07/08/2014  11:13:00      -90.161      -87.427       -1.786       48.361       43.243       24.752     2338.768     1869.918      612.656        1.030        0.241      125.589       18.754        0.022      349.344       29.702      862.227
07/08/2014  11:14:00      -53.333      -90.292        0.654       39.922       58.681       33.100     1593.735     3443.430     1095.609        0.856        0.307      104.867       27.908        0.071      349.413       29.823      862.226
07/08/2014  11:15:00      -23.792      -95.612       -6.113       39.791       33.344       26.842     1583.348     1111.800      720.509        0.658        0.171       98.528       18.333        0.035      349.277       29.587      862.219
07/08/2014  11:16:00      -74.291      -66.780        5.720       67.998       40.954       29.436     4623.757     1677.208      866.505        0.859        0.358       99.893       26.531        0.071      349.453       29.892      862.203
07/08/2014  11:17:00      -22.486      -80.018       12.892       63.776       46.941       25.495     4067.414     2203.459      649.980        0.700        0.346       83.118       26.246        0.100      349.467       29.916      862.206
07/08/2014  11:18:00       -1.748      -29.934       10.967       22.031       32.378       18.605      485.348     1048.310      346.129        0.145        0.094       29.985       18.071        0.363      349.727       30.367      862.201
07/08/2014  11:19:00      -33.411      -69.870       -8.194       21.132       44.083       15.154      446.566     1943.297      229.642        0.434        0.131       77.447        8.863        0.013      349.313       29.650      862.200
07/08/2014  11:20:00      -23.039      -11.285        4.776       18.422       21.369       21.165      339.359      456.617      447.953        0.096        0.062       25.655       10.863        0.179      349.446       29.880      862.195
07/08/2014  11:21:00      -43.604      -23.778       -9.803       37.616       24.723       28.221     1414.966      611.205      796.433        0.269        0.141       49.665       15.315        0.095      349.614       30.171      862.203
07/08/2014  11:22:00      -87.601      -42.207        8.371       42.758       38.388       24.106     1828.238     1473.658      581.111        0.670        0.194       97.239       22.860        0.055      349.684       30.293      862.199
07/08/2014  11:23:00      -27.288      -41.767       10.365       38.031       42.604       25.500     1446.354     1815.060      650.275        0.325        0.196       49.891       22.381        0.201      349.751       30.409      862.192
07/08/2014  11:24:00      -82.694      -71.456        2.034       51.179       63.170       25.519     2619.268     3990.406      651.224        0.960        0.363      109.290       29.696        0.074      349.543       30.047      862.181
07/08/2014  11:25:00      -38.166     -102.691       -2.092       77.037       56.753       30.844     5934.623     3220.918      951.363        1.106        0.505      109.554       24.158        0.049      349.444       29.875      862.177
07/08/2014  11:26:00      -89.405      -96.893        1.518       58.297       71.248       35.140     3398.571     5076.221     1234.801        1.355        0.485      131.839       35.555        0.073      349.568       30.089      862.165
07/08/2014  11:27:00      -68.389     -149.334        0.254       28.273       39.887       21.209      799.369     1590.969      449.803        1.491        0.142      164.249       20.019        0.015      349.396       29.794      862.171
07/08/2014  11:28:00      -21.980      -61.367       10.957       37.272       34.471       25.955     1389.175     1188.265      673.685        0.381        0.163       65.185       27.645        0.180      349.678       30.283      862.164
07/08/2014  11:29:00       13.177       -5.088       17.821       17.802       27.604       17.953      316.909      761.992      322.316        0.096        0.070       14.126       16.594        1.380      349.793       30.484      862.150
07/08/2014  11:30:00       -0.040       16.317       17.307       10.667       14.091       14.097      113.785      198.565      198.729        0.054        0.026       16.317        6.311        0.150      350.124       31.057      862.134
07/08/2014  11:31:00       10.855       -1.959       21.096       27.622       14.676       14.355      762.983      215.377      206.067        0.088        0.059       11.030        7.910        0.514      350.245       31.267      862.125
07/08/2014  11:32:00        2.349      -12.482       16.048       36.947       41.641       34.415     1365.117     1733.938     1184.401        0.235        0.214       12.701       34.798        7.507      349.797       30.490      862.114
07/08/2014  11:33:00      -61.669        1.811        0.353       22.707       13.242       14.608      515.613      175.339      213.393        0.236        0.045       61.696       14.237        0.053      349.562       30.081      862.107
07/08/2014  11:34:00      -82.199       35.891        2.975       42.434       33.846       25.134     1800.666     1145.579      631.715        0.582        0.179       89.693       23.341        0.068      349.562       30.080      862.102
07/08/2014  11:35:00      -15.652       70.455       19.359       40.156       40.325       27.926     1612.529     1626.144      779.843        0.480        0.201       72.172       30.500        0.179      349.808       30.507      862.098
07/08/2014  11:36:00      -16.974       88.973        5.325       30.974       48.332       31.551      959.414     2335.957      995.442        0.626        0.215       90.578       26.511        0.086      349.897       30.663      862.089
07/08/2014  11:37:00      -18.517       17.654        6.396       33.239       53.991       18.460     1104.840     2914.999      340.782        0.253        0.218       25.584       10.156        0.158      349.809       30.510      862.085
07/08/2014  11:38:00      -28.101      -28.844        3.485       15.303       30.961       11.488      234.181      958.561      131.985        0.148        0.066       40.270        9.803        0.059      349.755       30.418      862.099
07/08/2014  11:39:00       -8.249      -14.229        3.961       34.168       15.618       16.138     1167.429      243.933      260.439        0.098        0.084       16.447       18.364        1.247      350.036       30.904      862.096
07/08/2014  11:40:00      -33.721      -29.799        8.034       48.860       26.986       20.070     2387.317      728.229      402.810        0.280        0.176       45.001       14.714        0.107      350.307       31.376      862.091
07/08/2014  11:41:00      -91.800      -20.550       -1.523       60.373       54.565       29.729     3644.916     2977.304      883.791        0.818        0.375       94.072       11.101        0.014      349.898       30.665      862.092
07/08/2014  11:42:00     -119.428      -97.842       -0.306       79.948       60.946       38.214     6391.724     3714.411     1460.348        1.770        0.578      154.390       44.531        0.083      349.702       30.323      862.091
07/08/2014  11:43:00      -97.676      -17.574       -0.833       47.330       42.438       16.314     2240.146     1800.952      266.157        0.708        0.215       99.245       23.084        0.054      349.598       30.144      862.087
07/08/2014  11:44:00      -43.175        8.488        2.193       20.890       25.386       21.912      436.410      644.454      480.128        0.175        0.078       44.002       13.333        0.092      349.779       30.456      862.065
07/08/2014  11:45:00      -23.380      -34.074        6.452       79.901       32.780       23.590     6384.159     1074.527      556.473        0.488        0.401       41.324       30.279        0.537      349.725       30.365      862.051
07/08/2014  11:46:00     -101.651        7.767       -1.702       45.208       30.845       26.467     2043.783      951.409      700.508        0.705        0.185      101.948       29.589        0.084      349.784       30.465      862.048
07/08/2014  11:47:00      -76.901      -39.147       -5.114       33.332       29.420       16.979     1111.014      865.565      288.293        0.487        0.113       86.292       11.588        0.018      349.751       30.408      862.029
07/08/2014  11:48:00      -49.343        4.492        5.537       50.991       34.021       24.809     2600.119     1157.441      615.470        0.343        0.219       49.547       22.378        0.204      350.123       31.055      862.013
07/08/2014  11:49:00      -43.035       -1.385       16.628       50.072       31.773       31.304     2507.190     1009.519      979.971        0.331        0.225       43.057       35.960        0.698      350.455       31.633      862.005
07/08/2014  11:50:00     -221.219      -72.023      -13.154       64.383       53.119       28.176     4145.215     2821.626      793.861        3.103        0.388      232.648       30.707        0.017      349.909       30.678      861.997
07/08/2014  11:51:00       -1.159      -31.402       12.858       72.424       42.317       25.974     5245.271     1790.756      674.633        0.443        0.386       31.423       33.568        1.141      350.152       31.107      861.978
07/08/2014  11:52:00      -86.539       63.354       -3.820      109.404       39.146       35.560    11969.226     1532.377     1264.487        1.314        0.738      107.251       41.517        0.150      349.990       30.823      861.964
07/08/2014  11:53:00     -107.705       44.277      -13.549      121.185       55.569       40.520    14685.895     3087.899     1641.837        1.658        0.971      116.450       49.532        0.181      350.053       30.932      861.947
07/08/2014  11:54:00      -30.106      -59.907       -5.638      108.137       59.689       31.839    11693.658     3562.822     1013.725        1.040        0.814       67.046       31.047        0.214      350.274       31.317      861.928
07/08/2014  11:55:00     -238.949      -48.043        1.718      110.953       82.288       51.864    12310.531     6771.316     2689.881        4.059        1.089      243.731       58.075        0.057      350.226       31.231      861.942
07/08/2014  11:56:00     -209.839      -31.869        3.259       81.618       60.830       42.370     6661.552     3700.238     1795.236        2.861        0.608      212.245       43.140        0.041      350.124       31.054      861.936
07/08/2014  11:57:00     -134.844        1.443        0.135       68.785       75.903       40.938     4731.341     5761.238     1675.926        1.517        0.608      134.852       35.757        0.070      350.236       31.251      861.945
07/08/2014  11:58:00     -152.227      -16.165       -1.924       81.449       85.511       44.618     6633.859     7312.148     1990.727        1.968        0.797      153.083       41.419        0.073      350.295       31.352      861.932
07/08/2014  11:59:00     -230.826      -78.769        3.517      151.214       85.215       58.289    22865.696     7261.605     3397.553        4.651        1.676      243.896       70.021        0.082      350.270       31.308      861.918
07/08/2014  12:00:00     -191.072     -174.511        2.091      153.439      139.587       55.582    23543.393    19484.392     3089.353        5.653        2.306      258.772       65.467        0.064      350.106       31.023      861.923
07/08/2014  12:01:00     -216.299     -218.284       -1.491      123.838      114.196       70.676    15335.966    13040.737     4995.040        6.390        1.669      307.300       73.381        0.057      349.972       30.789      861.903
07/08/2014  12:02:00     -213.829     -113.383        2.001       76.865       69.683       42.478     5908.190     4855.735     1804.400        3.557        0.628      242.030       40.446        0.028      350.119       31.045      861.904
07/08/2014  12:03:00     -244.467      -83.175        2.470      132.280      116.796       56.683    17498.013    13641.291     3212.971        5.051        1.718      258.229       61.753        0.057      350.349       31.444      861.889
07/08/2014  12:04:00     -247.331     -174.709      -12.851      103.294      115.285       64.338    10669.558    13290.529     4139.370        5.998        1.405      302.813       59.394        0.038      350.081       30.979      861.910
07/08/2014  12:05:00     -251.344     -171.529       -8.032      103.992       70.002       50.880    10814.396     4900.285     2588.762        5.548        0.915      304.295       46.346        0.023      349.892       30.650      861.912
07/08/2014  12:06:00      -83.001      -30.849       -9.213       44.714       38.993       26.035     1999.376     1520.456      677.826        0.606        0.210       88.549       18.411        0.043      349.858       30.594      861.891
07/08/2014  12:07:00      -92.875      -20.077       -1.290       54.036       33.486       26.942     2919.934     1121.292      725.876        0.690        0.238       95.020       23.197        0.060      350.146       31.095      861.891
07/08/2014  12:08:00     -189.700      -30.311       -3.551       84.477       63.350       39.677     7136.354     4013.281     1574.241        2.482        0.636      192.107       40.505        0.044      350.276       31.318      861.885
07/08/2014  12:09:00     -327.506      -93.070       -3.766      118.318       88.940       47.477    13999.056     7910.406     2254.042        7.005        1.208      340.473       51.505        0.023      350.141       31.083      861.875
07/08/2014  12:10:00     -276.303      -29.577       -9.734      140.999      107.769       61.292    19880.848    11614.263     3756.738        5.628        1.763      277.882       54.792        0.039      350.283       31.330      861.872
07/08/2014  12:11:00     -198.247      -81.159       -4.121      133.460      121.370       60.771    17811.584    14730.571     3693.138        4.106        1.812      214.216       70.759        0.109      350.176       31.145      861.856
07/08/2014  12:12:00      -54.145     -117.181       10.017       67.781       94.173       56.428     4594.223     8868.552     3184.100        1.670        0.832      129.086       40.308        0.098      350.346       31.442      861.843
07/08/2014  12:13:00     -239.290     -176.539      -10.975      135.717      110.092       53.343    18419.111    12120.191     2845.523        6.096        1.669      297.364       64.086        0.046      350.321       31.395      861.829
07/08/2014  12:14:00     -182.235       13.957       -0.774      156.764      101.392       51.726    24574.925    10280.297     2675.568        3.546        1.877      182.769       69.619        0.145      350.546       31.788      861.826
07/08/2014  12:15:00      -99.142      -66.817       24.693      110.066       91.116       62.013    12114.569     8302.102     3845.569        1.958        1.213      119.556       55.826        0.218      350.652       31.974      861.800
07/08/2014  12:16:00     -127.104     -125.941       16.729       99.271       89.069       62.543     9854.745     7933.341     3911.596        2.699        1.085      178.932       60.483        0.114      350.358       31.462      861.814
07/08/2014  12:17:00     -341.114     -242.430      -21.737      138.051      141.903       64.455    19057.975    20136.466     4154.447       10.947        2.167      418.487       65.659        0.025      350.268       31.302      861.791
07/08/2014  12:18:00     -261.104     -208.148       -2.339      158.005      120.319       79.738    24965.554    14476.574     6358.111        7.865        2.290      333.918       81.229        0.059      350.346       31.439      861.764
07/08/2014  12:19:00     -127.578      -81.477        9.242      113.827       89.402       46.671    12956.700     7992.742     2178.143        2.306        1.156      151.375       56.748        0.141      350.512       31.729      861.762
07/08/2014  12:20:00     -185.983      -26.431      -17.187       79.586       60.253       45.333     6333.893     3630.434     2055.043        2.380        0.601      187.852       40.561        0.047      350.452       31.625      861.742
07/08/2014  12:21:00     -127.908       28.748       -0.407      125.337       57.221       41.323    15709.250     3274.195     1707.624        1.894        1.035      131.099       50.153        0.146      350.748       32.141      861.749
07/08/2014  12:22:00     -195.642     -114.557       13.607      202.188      149.530       72.507    40879.807    22359.281     5257.244        6.003        3.425      226.714       97.304        0.184      350.855       32.328      861.736
07/08/2014  12:23:00     -335.090      -90.077      -12.805      150.971      159.683       59.176    22792.276    25498.508     3501.791        8.617        2.590      346.986       47.904        0.019      350.202       31.190      861.712
07/08/2014  12:24:00     -262.235     -212.940       12.348      187.078      139.421       80.050    34998.111    19438.250     6408.064        8.754        3.042      337.803       97.843        0.084      350.133       31.070      861.718
07/08/2014  12:25:00     -199.814     -164.044        4.985      156.243      116.734       74.866    24411.824    13626.740     5604.871        5.524        2.182      258.527       76.983        0.089      350.332       31.415      861.692
07/08/2014  12:26:00     -146.913     -152.141       19.581      204.592      188.251       94.730    41857.724    35438.484     8973.722        6.568        4.313      211.496      124.623        0.347      350.652       31.972      861.677
07/08/2014  12:27:00     -246.707      -96.331       -0.797      162.385       93.358       55.986    26368.972     8715.791     3134.485        5.418        1.911      264.847       72.174        0.074      350.510       31.725      861.704
07/08/2014  12:28:00     -106.854      -79.585       17.235      109.213       91.404       46.869    11927.480     8354.714     2196.704        2.026        1.124      133.235       49.495        0.138      350.716       32.085      861.730
07/08/2014  12:29:00     -220.796      -25.114        6.459      171.355      107.349       49.760    29362.415    11523.798     2476.107        4.639        2.168      222.220       67.469        0.092      350.692       32.042      861.737
07/08/2014  12:30:00     -109.297      -20.264       10.697      119.254       55.969       47.137    14221.414     3132.547     2221.942        1.602        0.979      111.159       64.533        0.337      350.683       32.028      861.724
07/08/2014  12:31:00     -136.092      -69.224       -0.469       79.920       54.145       33.040     6387.241     2931.671     1091.610        1.686        0.521      152.686       31.489        0.043      350.458       31.636      861.701
07/08/2014  12:32:00     -348.576      -18.890      -16.838      117.407       88.566       50.293    13784.325     7843.979     2529.407        7.315        1.208      349.088       58.567        0.028      350.522       31.746      861.693
07/08/2014  12:33:00     -283.439      -22.082       -6.813      138.049      119.943       66.430    19057.546    14386.398     4412.979        5.936        1.893      284.298       60.187        0.045      350.774       32.183      861.690
07/08/2014  12:34:00     -353.001      -31.697      -17.544      191.107      152.286       73.061    36521.929    23191.133     5337.936        9.548        3.253      354.422       81.204        0.052      350.618       31.913      861.681
07/08/2014  12:35:00     -228.550      -74.923        3.359      147.252      109.721       53.955    21683.268    12038.717     2911.093        4.724        1.832      240.517       58.472        0.059      350.711       32.076      861.651
07/08/2014  12:36:00     -365.935      -92.268      -14.097      146.782      101.188       68.117    21544.980    10238.987     4639.931        8.952        1.821      377.388       75.061        0.040      350.783       32.201      861.642
07/08/2014  12:37:00     -358.314     -192.972       -4.877      168.089      132.771       76.792    28253.991    17628.096     5897.016       10.871        2.589      406.973       83.424        0.042      350.653       31.973      861.623
07/08/2014  12:38:00     -257.117     -112.615        4.145      163.035      161.832       75.707    26580.484    26189.652     5731.481        6.865        2.925      280.698       82.522        0.086      350.909       32.420      861.608
07/08/2014  12:39:00     -301.919      -69.417      -17.349      153.688      178.626       70.595    23620.018    31907.248     4983.625        7.838        3.026      309.797       64.190        0.043      350.888       32.383      861.637
07/08/2014  12:40:00     -196.154      -91.539        2.515      126.390      120.416       59.806    15974.464    14499.901     3576.775        4.045        1.703      216.462       49.261        0.052      350.879       32.367      861.614
07/08/2014  12:41:00     -306.067     -200.707       -2.276      169.505      107.392       68.887    28731.903    11532.992     4745.478        8.948        2.251      366.006       56.156        0.024      350.878       32.365      861.600
07/08/2014  12:42:00     -225.768     -175.552        8.708      147.458      136.959       75.556    21743.788    18757.879     5708.728        6.403        2.311      285.989       82.177        0.083      350.562       31.816      861.589
07/08/2014  12:43:00     -212.178     -182.251        9.588      145.953      140.883       70.190    21302.229    19848.033     4926.596        6.219        2.304      279.705       68.397        0.060      350.667       31.995      861.566
07/08/2014  12:44:00     -330.163     -277.454        7.766      228.305      160.505       85.194    52123.243    25761.773     7257.963       13.558        4.257      431.263      102.239        0.056      350.627       31.927      861.544
07/08/2014  12:45:00     -340.365     -210.756      -20.846      168.744      144.500       71.738    28474.531    20880.356     5146.341       10.759        2.725      400.333       86.179        0.046      350.325       31.402      861.549
07/08/2014  12:46:00     -290.465     -113.672       -5.553      136.034      129.107       62.446    18505.326    16668.550     3899.476        6.819        1.954      311.916       62.543        0.040      350.581       31.848      861.531
07/08/2014  12:47:00     -232.172     -179.002       -2.394      148.360      106.983       68.208    22010.753    11445.314     4652.379        6.202        1.905      293.165       61.691        0.044      350.721       32.093      861.513
07/08/2014  12:48:00     -247.497     -177.778       11.746      165.817      138.952       87.424    27495.157    19307.543     7642.869        7.371        2.722      304.729       96.916        0.101      350.956       32.502      861.481
07/08/2014  12:49:00     -229.998     -270.365      -10.043      142.629      133.948       72.666    20343.098    17942.196     5280.331        8.482        2.178      354.959       66.808        0.035      350.685       32.029      861.487
07/08/2014  12:50:00     -182.252     -166.286       -2.248      108.302      100.758       57.773    11729.322    10152.260     3337.764        4.304        1.261      246.712       56.948        0.053      350.853       32.322      861.450
07/08/2014  12:51:00     -211.943     -115.038        4.356      110.991       88.068       52.392    12319.041     7756.011     2744.963        4.049        1.141      241.150       56.630        0.055      351.295       33.093      861.459
07/08/2014  12:52:00     -292.646     -119.815        5.583      157.640       92.608       58.318    24850.367     8576.251     3400.988        6.842        1.841      316.223       57.735        0.033      351.083       32.722      861.468
07/08/2014  12:53:00     -279.244     -171.598       -9.190      149.429      112.160       68.447    22329.144    12579.893     4684.993        7.354        1.980      327.755       70.949        0.047      350.599       31.881      861.474
07/08/2014  12:54:00     -271.407      -57.818      -15.054      171.597      101.510       64.823    29445.486    10304.256     4202.015        6.058        2.198      277.498       76.425        0.076      350.805       32.239      861.458
07/08/2014  12:55:00      -73.647      -82.939       20.596      138.835       66.208       56.716    19275.132     4383.478     3216.707        1.980        1.344      110.917       70.170        0.400      351.001       32.583      861.450
07/08/2014  12:56:00       -7.601      -37.459       21.263       94.870       98.735       63.169     9000.334     9748.609     3990.262        1.232        1.137       38.222       52.618        1.895      351.312       33.125      861.440
07/08/2014  12:57:00      -83.160       29.820       -7.168       61.825       55.778       45.577     3822.364     3111.193     2077.296        0.843        0.451       88.345       29.789        0.114      351.202       32.933      861.440
07/08/2014  12:58:00      -37.190       77.467        7.541       70.465       56.283       43.021     4965.283     3167.721     1850.779        0.871        0.499       85.932       41.336        0.231      351.363       33.214      861.434
07/08/2014  12:59:00     -110.223      -29.254       -3.958       61.933       73.915       42.016     3835.704     5463.422     1765.343        1.204        0.553      114.039       29.784        0.068      351.419       33.311      861.419
07/08/2014  13:00:00     -108.607     -116.526       -1.904      103.888       94.745       54.135    10792.741     8976.611     2930.626        2.403        1.135      159.291       56.487        0.126      350.954       32.498      861.424
07/08/2014  13:01:00     -102.068      -25.828       17.049      108.019       89.921       47.675    11668.040     8085.847     2272.878        1.670        1.101      105.286       55.479        0.278      351.283       33.074      861.402
07/08/2014  13:02:00     -343.912      -97.209      -11.676      113.109      101.543       61.653    12793.558    10310.882     3801.069        7.738        1.345      357.386       54.652        0.023      350.925       32.448      861.392
07/08/2014  13:03:00     -198.494       60.228        0.910      136.617       85.957       61.883    18664.270     7388.563     3829.501        3.645        1.494      207.430       80.887        0.152      350.944       32.482      861.406
07/08/2014  13:04:00     -147.386      116.295      -21.933       91.546      129.016       47.268     8380.656    16645.233     2234.249        3.149        1.363      187.742       47.082        0.063      350.773       32.182      861.393
07/08/2014  13:05:00      -91.113      125.608      -19.597       49.187       64.922       37.774     2419.344     4214.841     1426.862        1.626        0.403      155.174       31.139        0.040      350.870       32.355      861.357
07/08/2014  13:06:00       -3.717       37.113      -20.185       40.892       40.893       23.990     1672.180     1672.216      575.526        0.286        0.196       37.299       13.885        0.139      351.203       32.935      861.350
07/08/2014  13:07:00      -43.258      -38.560      -24.030       62.763       32.688       20.963     3939.247     1068.478      439.440        0.469        0.272       57.950       16.433        0.080      350.938       32.474      861.330
07/08/2014  13:08:00       25.750       -0.260       22.751       43.882       38.243       34.364     1925.657     1462.495     1180.873        0.287        0.228       25.751       27.585        1.148      351.054       32.675      861.304
07/08/2014  13:09:00      -83.089        1.500        2.511       85.197       82.462       41.363     7258.492     6799.902     1710.902        1.134        0.788       83.103       40.442        0.237      351.189       32.909      861.287
07/08/2014  13:10:00     -176.397       41.724       -6.227      150.502       83.327       58.871    22650.852     6943.443     3465.837        3.297        1.653      181.265       69.364        0.146      351.237       32.991      861.272
07/08/2014  13:11:00     -375.436      -63.858      -27.188      159.677      115.706       64.731    25496.735    13387.805     4190.100        9.441        2.154      380.828       76.928        0.041      351.149       32.838      861.247
07/08/2014  13:12:00     -175.144      -18.973        8.252      123.183       98.280       65.082    15174.096     9659.005     4235.650        3.008        1.453      176.168       64.644        0.135      351.400       33.278      861.244
07/08/2014  13:13:00     -125.915      -78.199       11.250       72.895       68.822       48.252     5313.650     4736.513     2328.233        1.724        0.619      148.221       44.234        0.089      350.991       32.565      861.252
07/08/2014  13:14:00     -166.763      -55.394       -2.173      120.549       70.548       43.686    14532.056     4977.001     1908.423        2.615        1.071      175.722       57.789        0.108      351.008       32.593      861.236
07/08/2014  13:15:00     -231.012     -146.701       -2.241      109.665      123.895       59.524    12026.489    15349.932     3543.091        5.290        1.546      273.657       62.248        0.052      350.882       32.371      861.222
07/08/2014  13:16:00     -222.617      -71.959      -23.410       95.113      102.501       40.146     9046.555    10506.459     1611.725        3.822        1.058      233.958       35.778        0.023      350.662       31.991      861.211
07/08/2014  13:17:00      -68.150      -77.980        1.016       86.614       51.229       43.008     7501.992     2624.453     1849.725        1.135        0.599      103.563       31.195        0.091      351.252       33.019      861.198
07/08/2014  13:18:00     -164.510     -159.224        0.187      118.743       82.082       50.244    14099.782     6737.506     2524.487        3.789        1.168      228.945       60.247        0.069      351.259       33.030      861.202
07/08/2014  13:19:00     -167.463      -10.045       12.611      108.297       68.034       40.504    11728.300     4628.559     1640.571        2.315        0.900      167.764       44.620        0.071      351.181       32.894      861.187
07/08/2014  13:20:00     -167.952        8.727       -0.015       71.909       72.738       46.860     5170.847     5290.790     2195.897        2.047        0.633      168.178       36.967        0.048      351.321       33.138      861.183
07/08/2014  13:21:00      -14.622      -60.865      -19.556       78.695       46.930       44.478     6192.827     2202.415     1978.284        0.734        0.519       62.596       29.516        0.222      351.147       32.837      861.155
07/08/2014  13:22:00     -251.512     -106.569       -1.473      135.098      158.153       67.290    18251.500    25012.445     4527.957        6.120        2.390      273.158       63.563        0.054      351.259       33.030      861.159
07/08/2014  13:23:00     -358.856     -125.881      -11.435      120.304      118.155       63.608    14472.953    13960.586     4045.977        8.861        1.624      380.294       63.890        0.028      350.926       32.449      861.142
07/08/2014  13:24:00     -234.551     -126.454       -1.268      127.095      114.409       68.954    16153.119    13089.445     4754.617        5.250        1.700      266.467       70.332        0.070      351.047       32.660      861.137
07/08/2014  13:25:00     -234.769     -152.113       -3.342      122.710       74.948       59.076    15057.673     5617.140     3489.944        5.121        1.208      279.741       59.238        0.045      350.777       32.188      861.115
07/08/2014  13:26:00     -183.610     -188.799        5.326      148.296      114.101       68.436    21991.751    13019.128     4683.545        5.453        1.985      263.358       64.643        0.060      350.945       32.483      861.118
07/08/2014  13:27:00     -334.248     -229.476        4.292      172.493      102.004       81.322    29753.911    10404.801     6613.254       10.558        2.339      405.440       88.351        0.047      350.891       32.387      861.104
07/08/2014  13:28:00     -193.919     -142.308        4.063      144.144      100.857       58.797    20777.595    10172.186     3457.102        4.613        1.720      240.533       74.819        0.097      350.969       32.524      861.119
07/08/2014  13:29:00     -182.128     -118.052       12.153      125.051       98.638       62.563    15637.642     9729.489     3914.181        3.826        1.464      217.041       67.739        0.097      351.195       32.918      861.111
07/08/2014  13:30:00     -188.543      -98.352       15.583      111.731      105.767       70.021    12483.862    11186.752     4902.926        3.701        1.429      212.654       71.133        0.112      351.181       32.895      861.093
07/08/2014  13:31:00     -134.645      -87.031        5.279      118.080       73.065       46.769    13942.836     5338.525     2187.309        2.360        1.073      160.323       40.462        0.064      351.165       32.866      861.093
07/08/2014  13:32:00      -18.260     -155.310       -9.393       54.473       67.487       38.502     2967.284     4554.452     1482.370        1.677        0.450      156.379       13.712        0.008      351.375       33.233      861.074
07/08/2014  13:33:00      -89.053     -140.583        1.078       85.038      107.612       43.417     7231.467    11580.239     1885.035        2.419        1.035      166.415       44.867        0.073      351.256       33.025      861.073
07/08/2014  13:34:00      -76.866     -193.652      -10.338       98.503       94.086       52.229     9702.926     8852.158     2727.835        3.240        1.064      208.349       53.186        0.065      351.217       32.956      861.064
07/08/2014  13:35:00     -145.431     -281.353      -12.441       52.629       77.279       35.432     2769.804     5972.082     1255.425        5.523        0.500      316.717       32.297        0.010      350.729       32.105      861.063
07/08/2014  13:36:00        8.914     -131.636       -5.113       49.785       34.489       28.591     2478.547     1189.486      817.471        1.096        0.224      131.938       16.279        0.015      350.776       32.192      861.022
07/08/2014  13:37:00      -40.536      -36.567        9.852       54.123       66.756       28.680     2929.352     4456.349      822.555        0.564        0.410       54.592       27.194        0.248      351.406       33.289      861.001
07/08/2014  13:38:00      -75.461        0.839       -5.316       32.395       63.157       32.634     1049.421     3988.868     1064.959        0.591        0.305       75.466       31.465        0.174      350.921       32.443      861.002
07/08/2014  13:39:00      -40.819       17.509        6.052       38.855       24.143       29.589     1509.672      582.862      875.498        0.249        0.148       44.415       27.736        0.390      351.722       33.842      860.989
07/08/2014  13:40:00     -237.509      -54.167      -12.036      109.766       94.451       31.211    12048.520     8921.084      974.111        4.071        1.097      243.608       22.799        0.009      351.110       32.770      860.982
07/08/2014  13:41:00     -227.687      -56.970      -27.200       70.354       74.634       37.372     4949.645     5570.307     1396.681        3.387        0.596      234.706       27.330        0.014      351.103       32.758      860.973
07/08/2014  13:42:00      -87.074      -17.680        4.605       57.471       50.741       35.872     3302.913     2574.667     1286.769        0.754        0.358       88.851       38.376        0.187      351.167       32.872      860.971
07/08/2014  13:43:00      -95.947      -47.473        8.205      101.467       79.482       51.357    10295.624     6317.313     2637.539        1.539        0.963      107.049       51.474        0.231      351.419       33.310      860.947
07/08/2014  13:44:00      -64.723      -22.592        8.181       68.682       44.343       30.488     4717.236     1966.270      929.512        0.619        0.381       68.553       32.544        0.225      351.545       33.531      860.950
07/08/2014  13:45:00      -52.786      -84.869       -4.059       54.064       59.800       37.005     2922.961     3576.036     1369.382        0.894        0.393       99.946       27.930        0.078      351.339       33.171      860.937
07/08/2014  13:46:00      -84.874      -85.190       10.615      115.918       67.752       50.890    13436.945     4590.274     2589.771        1.759        1.031      120.254       52.003        0.187      351.297       33.097      860.902
07/08/2014  13:47:00     -219.600     -182.091       -3.715      104.041       72.066       51.627    10824.571     5193.535     2665.305        5.004        0.934      285.273       49.329        0.030      351.007       32.590      860.900
07/08/2014  13:48:00     -241.858     -123.476       -3.966      121.488       81.990       54.267    14759.300     6722.410     2944.924        4.909        1.221      271.554       53.412        0.039      351.072       32.702      860.912
07/08/2014  13:49:00     -204.777       14.834      -20.711       74.282       90.122       37.721     5517.812     8122.022     1422.873        2.882        0.753      205.313       29.455        0.021      350.978       32.539      860.932
07/08/2014  13:50:00     -298.533      -55.780      -26.685       77.304      102.991       45.009     5975.891    10607.198     2025.839        5.577        0.930      303.700       44.649        0.022      350.962       32.511      860.915
07/08/2014  13:51:00     -145.731       79.976      -27.508       58.070       32.323       34.385     3372.115     1044.796     1182.321        1.699        0.280      166.234       33.116        0.040      351.001       32.583      860.905
07/08/2014  13:52:00     -178.141       81.134        5.356      160.569       52.797       46.057    25782.479     2787.495     2121.253        3.451        1.535      195.747       62.996        0.104      351.623       33.665      860.872
07/08/2014  13:53:00     -191.818      115.198        6.142      157.752      124.119       67.351    24885.699    15405.513     4536.094        4.746        2.241      223.751       86.865        0.151      351.688       33.779      860.830
07/08/2014  13:54:00     -129.714      -65.282       16.981      141.049      142.903       68.431    19894.756    20421.169     4682.777        3.318        2.250      145.215       56.457        0.151      352.045       34.400      860.800
07/08/2014  13:55:00     -146.269      -69.377        1.564       78.591       85.277       44.690     6176.607     7272.237     1997.191        2.083        0.772      161.888       38.560        0.057      351.647       33.706      860.842
07/08/2014  13:56:00     -152.259      -10.004       -7.745      117.930       77.229       50.735    13907.510     5964.388     2574.004        2.289        1.122      152.588       48.942        0.103      351.651       33.713      860.854
07/08/2014  13:57:00     -127.446      -66.894        7.743       86.791       72.130       47.084     7532.665     5202.677     2216.929        1.786        0.748      143.935       43.090        0.090      351.717       33.830      860.847
07/08/2014  13:58:00     -184.566      -33.201       -5.849       77.739       72.928       39.200     6043.327     5318.511     1536.652        2.405        0.645      187.528       36.883        0.039      351.574       33.579      860.852
07/08/2014  13:59:00     -160.830      -18.298        6.700       91.755       76.666       48.653     8418.999     5877.704     2367.152        2.145        0.833      161.867       38.621        0.057      351.667       33.744      860.859
07/08/2014  14:00:00     -101.674      -56.553       15.380      127.278       69.127       41.977    16199.798     4778.501     1762.051        1.825        1.137      116.344       56.785        0.238      351.900       34.149      860.840
07/08/2014  14:01:00     -373.317      -87.113      -27.661      112.769      123.092       60.415    12716.851    15151.706     3650.013        8.961        1.576      383.346       58.433        0.023      351.298       33.096      860.801
07/08/2014  14:02:00     -241.564      -34.815        0.002      139.615       97.567       69.055    19492.337     9519.342     4768.546        4.667        1.689      244.060       72.429        0.088      351.869       34.092      860.799
07/08/2014  14:03:00     -171.324      -14.994       35.247      164.395       96.779       64.753    27025.792     9366.089     4193.016        3.570        2.029      171.979       69.113        0.161      351.791       33.960      860.829
07/08/2014  14:04:00     -132.397      -89.161       10.661      139.492      130.343       52.132    19458.123    16989.383     2717.699        3.237        1.958      159.621       64.083        0.161      351.845       34.054      860.830
07/08/2014  14:05:00     -168.713       13.659       11.143      118.629      101.330       59.452    14072.938    10267.795     3534.532        2.832        1.394      169.265       48.985        0.084      351.607       33.637      860.795
07/08/2014  14:06:00     -534.243     -204.058      -24.216      182.435      101.545       62.553    33282.475    10311.441     3912.899       18.757        2.375      571.887       64.965        0.013      351.397       33.269      860.775
07/08/2014  14:07:00     -348.713      -28.196      -20.871      168.610      117.098       71.376    28429.472    13711.869     5094.589        8.503        2.362      349.851       84.466        0.058      351.579       33.586      860.809
07/08/2014  14:08:00     -358.730     -103.149       -1.452      202.799       87.683       75.820    41127.407     7688.282     5748.676        9.694        2.728      373.265       92.931        0.062      351.281       33.066      860.772
07/08/2014  14:09:00     -251.022       76.548      -14.778      160.187      163.744       80.145    25659.893    26812.108     6423.282        6.398        2.945      262.434       88.974        0.115      351.390       33.259      860.745
07/08/2014  14:10:00     -309.573      -41.492      -15.580      109.859      116.394       52.222    12069.022    13547.665     2727.086        6.307        1.417      312.342       60.331        0.037      351.358       33.201      860.739
07/08/2014  14:11:00     -232.641     -133.470       -1.089      166.814      113.017       73.426    27826.851    12772.909     5391.430        5.896        2.300      268.209       87.029        0.105      351.579       33.586      860.730
07/08/2014  14:12:00     -210.650       35.600        7.725      148.958      132.310       73.266    22188.559    17506.050     5367.907        4.537        2.253      213.637       76.204        0.127      351.846       34.054      860.708
07/08/2014  14:13:00     -304.729      -32.357        8.627      154.408      146.304       73.284    23841.971    21404.814     5370.496        7.229        2.531      306.442       78.917        0.066      351.701       33.801      860.713
07/08/2014  14:14:00     -269.318        8.795      -14.070      114.909       89.690       50.713    13204.150     8044.351     2571.786        4.831        1.191      269.462       58.823        0.048      351.584       33.594      860.695
07/08/2014  14:15:00     -241.393       -8.567       -6.342      161.717      101.183       66.009    26152.539    10238.024     4357.171        4.956        2.037      241.545       75.972        0.099      351.741       33.870      860.669
07/08/2014  14:16:00     -320.996     -137.797        2.299      113.479      161.087       59.466    12877.541    25948.876     3536.180        8.219        2.118      349.323       47.140        0.018      351.496       33.441      860.631
07/08/2014  14:17:00     -247.190      -88.603        1.124      194.469      119.041       72.682    37818.306    14170.675     5282.663        6.310        2.864      262.590       90.117        0.118      351.445       33.355      860.619
07/08/2014  14:18:00     -167.157      -38.236       14.148      152.148      120.448       79.568    23149.097    14507.741     6331.127        3.679        2.199      171.474       92.055        0.288      351.689       33.781      860.576
07/08/2014  14:19:00     -435.728      -99.986      -10.136      166.381      102.078       65.036    27682.725    10419.876     4229.726       12.114        2.117      447.052       74.074        0.027      351.371       33.226      860.557
07/08/2014  14:20:00     -227.321      -46.453       -1.414      177.141      119.755       73.741    31378.946    14341.257     5437.727        5.249        2.558      232.019       78.743        0.115      351.330       33.153      860.541
07/08/2014  14:21:00     -285.330     -127.444      -17.030      152.133      120.191       64.857    23144.479    14445.942     4206.471        6.986        2.090      312.498       62.452        0.040      351.383       33.245      860.555
07/08/2014  14:22:00     -299.799       20.179      -17.323      126.389      111.020       72.030    15974.218    12325.336     5188.360        6.203        1.674      300.477       59.791        0.040      351.264       33.038      860.578
07/08/2014  14:23:00     -205.805       36.008      -13.349      117.432      124.257       60.340    13790.297    15439.686     3640.890        3.835        1.644      208.931       51.293        0.060      351.456       33.373      860.568
07/08/2014  14:24:00     -216.323      -23.597      -14.653       96.915       70.814       48.909     9392.550     5014.665     2392.116        3.218        0.840      217.606       48.288        0.049      351.690       33.780      860.547
07/08/2014  14:25:00      -94.145       31.747        1.604       64.520       48.457       35.578     4162.816     2348.054     1265.819        0.882        0.389       99.353       34.557        0.121      351.782       33.945      860.545
07/08/2014  14:26:00     -154.726      -28.423       16.644      157.537      139.650       71.524    24818.058    19502.205     5115.690        3.722        2.472      157.315       79.145        0.253      351.848       34.058      860.517
07/08/2014  14:27:00     -272.599       38.787      -10.732      125.139      121.443       62.914    15659.731    14748.376     3958.151        5.514        1.718      275.345       58.570        0.045      351.714       33.823      860.516
07/08/2014  14:28:00     -347.937      -17.938      -29.453      114.941      126.914       43.884    13211.401    16107.101     1925.810        7.674        1.562      348.399       32.360        0.009      351.195       32.920      860.539
07/08/2014  14:29:00     -177.748      -48.677      -20.613      101.964      124.390       39.926    10396.562    15472.948     1594.095        3.092        1.373      184.293       35.953        0.038      351.148       32.838      860.543
07/08/2014  14:30:00      -13.438      148.653      -17.840       65.750       55.653       37.145     4323.103     3097.239     1379.724        1.570        0.440      149.259       24.299        0.027      351.235       32.989      860.515
07/08/2014  14:31:00       46.302      114.744       12.342       96.674       54.038       56.188     9345.955     2920.150     3157.143        1.544        0.771      123.734       52.319        0.179      351.284       33.076      860.451
07/08/2014  14:32:00      -33.588       34.736        2.115       76.096       56.427       32.752     5790.655     3183.952     1072.664        0.619        0.502       48.319       28.151        0.339      351.711       33.821      860.434
07/08/2014  14:33:00     -163.521        3.489      -18.547      180.177      105.881       45.077    32463.897    11210.803     2031.958        3.639        2.285      163.558       41.161        0.063      351.801       33.978      860.417
07/08/2014  14:34:00     -179.781      -62.462        7.374      132.755      117.530       47.399    17624.008    13813.356     2246.693        3.497        1.684      190.323       61.723        0.105      351.889       34.129      860.427
07/08/2014  14:35:00     -364.329      -83.533      -10.206      162.765      106.070       63.620    26492.321    11250.764     4047.467        9.080        2.090      373.782       54.532        0.021      351.450       33.362      860.410
07/08/2014  14:36:00     -517.747     -109.339      -16.836      157.024      137.966       83.451    24656.676    19034.644     6964.138       16.547        2.533      529.167       85.528        0.026      351.369       33.221      860.383
07/08/2014  14:37:00     -549.916     -153.383      -11.667      184.951      145.457       72.622    34206.785    21157.626     5274.004       19.334        3.032      570.906       83.668        0.021      351.467       33.392      860.359
07/08/2014  14:38:00     -381.402      -94.094        7.737      172.879      130.461       71.191    29887.075    17019.977     5068.117       10.317        2.599      392.837       84.715        0.047      351.421       33.312      860.398
07/08/2014  14:39:00     -262.911      -44.302       -7.567      131.612      121.644       57.628    17321.617    14797.289     3320.933        5.329        1.772      266.618       55.550        0.043      351.726       33.843      860.421
07/08/2014  14:40:00     -212.137        4.796      -21.292       86.863       87.117       43.120     7545.158     7589.366     1859.298        3.123        0.850      212.191       42.085        0.039      351.616       33.651      860.419
07/08/2014  14:41:00     -102.330       18.550        2.154       70.109       85.943       56.732     4915.261     7386.255     3218.559        1.317        0.776      103.998       45.349        0.190      352.061       34.431      860.390
07/08/2014  14:42:00     -176.075      -84.249       14.655      135.302      106.946       61.739    18306.641    11437.480     3811.655        3.593        1.678      195.193       68.471        0.123      352.159       34.601      860.369
07/08/2014  14:43:00     -297.896     -139.990      -33.512       97.302       92.484       47.969     9467.673     8553.365     2300.979        6.489        1.016      329.149       34.836        0.011      351.684       33.770      860.364
07/08/2014  14:44:00     -306.670       -2.816      -21.241      101.259      100.619       41.507    10253.389    10124.167     1722.805        5.830        1.105      306.683       48.882        0.025      351.638       33.689      860.377
07/08/2014  14:45:00     -274.691      -76.954       -2.996      129.679       90.375       60.030    16816.718     8167.654     3603.628        5.498        1.429      285.266       63.446        0.049      351.678       33.759      860.369
07/08/2014  14:46:00     -200.138     -180.729       -2.171      118.424      110.227       59.577    14024.327    12150.093     3549.364        5.122        1.486      269.664       64.756        0.058      351.576       33.581      860.377
07/08/2014  14:47:00     -141.654      -44.435        0.543       84.763       53.705       36.682     7184.768     2884.267     1345.594        1.673        0.571      148.460       38.606        0.068      351.736       33.863      860.368
07/08/2014  14:48:00      -61.239     -108.360        5.714       62.185       34.531       30.640     3866.945     1192.361      938.804        1.076        0.300      124.468       34.465        0.077      351.400       33.278      860.339
07/08/2014  14:49:00      -92.413      -57.578       -2.880       77.494       64.587       38.862     6005.270     4171.458     1510.226        1.177        0.584      108.883       33.929        0.097      351.456       33.377      860.321
07/08/2014  14:50:00      -79.660      -28.778       -4.192       58.138       54.350       33.492     3380.042     2953.933     1121.717        0.732        0.373       84.699       36.627        0.187      351.621       33.665      860.307
07/08/2014  14:51:00      -88.262      -43.460       -5.098       48.022       28.128       26.864     2306.142      791.207      721.657        0.676        0.191       98.382       18.212        0.034      351.331       33.158      860.296
07/08/2014  14:52:00      -86.177       22.512        6.076       49.838       38.526       28.301     2483.833     1484.279      800.924        0.637        0.238       89.069       29.718        0.111      351.943       34.227      860.283
07/08/2014  14:53:00     -118.344       52.592       -9.403       37.841       47.432       27.391     1431.906     2249.789      750.244        1.065        0.222      129.504       20.100        0.024      351.706       33.811      860.290
07/08/2014  14:54:00       88.793       30.127       31.992       84.733       75.201       50.955     7179.738     5655.208     2596.429        1.262        0.772       93.765       32.932        0.123      351.721       33.838      860.241
07/08/2014  14:55:00      -84.552      -51.235        5.570       77.606       45.541       37.893     6022.681     2073.995     1435.854        0.967        0.477       98.864       43.285        0.192      351.998       34.321      860.229
07/08/2014  14:56:00     -392.661      -82.887       -6.943      215.503      142.643       70.365    46441.409    20347.111     4951.256       11.641        3.587      401.314       92.859        0.054      351.875       34.102      860.235
07/08/2014  14:57:00     -281.854     -129.057       13.868      124.192      107.524       61.595    15423.684    11561.316     3793.984        6.353        1.539      309.996       64.287        0.043      352.182       34.639      860.219
07/08/2014  14:58:00     -219.035     -163.634       20.025      219.849      142.690       84.988    48333.457    20360.316     7223.016        7.552        3.796      273.409      105.121        0.148      352.093       34.485      860.187
07/08/2014  14:59:00     -306.045     -116.875        3.367      142.557      127.646       62.280    20322.395    16293.475     3878.784        7.391        2.025      327.602       74.061        0.051      352.187       34.649      860.159
07/08/2014  15:00:00     -215.787     -170.227        9.979      165.980      105.384       73.201    27549.250    11105.768     5358.405        5.982        2.201      274.848       87.391        0.101      352.045       34.401      860.183
07/08/2014  15:01:00     -197.976     -183.112        0.742      142.266      131.129       69.545    20239.489    17194.817     4836.439        5.749        2.114      269.675       83.649        0.096      351.865       34.088      860.165
07/08/2014  15:02:00     -275.165      -96.080      -15.049      119.566       71.880       52.001    14296.118     5166.689     2704.083        5.367        1.108      291.457       58.228        0.040      351.422       33.313      860.143
07/08/2014  15:03:00     -188.269     -103.613       -9.091      109.001       86.653       46.530    11881.258     7508.730     2165.046        3.391        1.078      214.897       52.658        0.060      351.658       33.726      860.129
07/08/2014  15:04:00     -279.717     -100.191      -14.376      122.435      157.383       74.167    14990.390    24769.421     5500.754        6.687        2.263      297.120       77.335        0.068      351.814       33.996      860.096
07/08/2014  15:05:00     -129.336       28.890        8.851      142.980       85.147       61.772    20443.271     7250.062     3815.724        2.457        1.575      132.523       53.012        0.160      352.101       34.501      860.097
07/08/2014  15:06:00      -24.340      -19.469       -4.524      119.233       90.718       51.216    14216.537     8229.698     2623.081        1.303        1.253       31.168       29.620        0.903      351.741       33.872      860.087
07/08/2014  15:07:00      -40.582      -79.041       14.782      120.597       93.966       43.588    14543.714     8829.604     1899.913        1.669        1.264       88.850       51.793        0.340      351.957       34.249      860.069
07/08/2014  15:08:00      -79.609      -53.552       23.220       76.235       67.992       46.454     5811.835     4622.960     2157.954        1.117        0.630       95.945       41.370        0.186      352.203       34.680      860.073
07/08/2014  15:09:00     -114.347     -102.785       15.090      111.433      118.932       63.991    12417.363    14144.792     4094.871        2.726        1.533      153.753       62.109        0.163      352.008       34.338      860.031
07/08/2014  15:10:00     -234.775     -149.668       11.576      225.920      122.812       74.386    51039.748    15082.700     5533.280        7.464        3.583      278.423       89.711        0.104      351.763       33.909      860.019
07/08/2014  15:11:00     -284.015     -163.554        0.915      153.418      127.664       78.289    23537.021    16298.196     6129.091        7.668        2.298      327.741       78.462        0.057      351.433       33.333      860.013
07/08/2014  15:12:00     -333.455     -146.558       -1.241      209.906      161.019       86.143    44060.559    25927.014     7420.607       10.503        3.870      364.241      100.397        0.076      351.686       33.774      859.981
07/08/2014  15:13:00     -265.963       50.050       -1.716      130.192      106.484       66.527    16949.903    11338.933     4425.857        5.297        1.636      270.632       54.054        0.040      351.761       33.905      860.014
07/08/2014  15:14:00     -241.433      -84.139        4.004      145.136      115.140       64.900    21064.502    13257.126     4212.033        5.195        1.927      255.674       63.260        0.061      351.746       33.881      859.991
07/08/2014  15:15:00     -269.156     -179.310      -12.497      148.552      135.700       60.152    22067.756    18414.402     3618.287        7.442        2.205      323.415       67.160        0.043      351.623       33.664      860.029
07/08/2014  15:16:00     -344.006     -131.003      -18.089      239.131      119.603       83.999    57183.827    14304.887     7055.912       10.717        3.927      368.106      107.941        0.086      351.446       33.356      860.053
07/08/2014  15:17:00     -246.912     -173.829        9.648      163.616      143.140       74.241    26770.071    20489.024     5511.728        7.201        2.639      301.963       78.026        0.067      351.364       33.213      860.078
07/08/2014  15:18:00     -334.450     -171.881       -6.814      140.153       99.014       65.356    19642.991     9803.711     4271.380        8.758        1.686      376.032       56.616        0.023      351.332       33.157      860.088
07/08/2014  15:19:00     -192.543     -152.162       12.126      214.517      143.672       74.247    46017.512    20641.549     5512.555        6.626        3.609      245.410       90.728        0.137      351.461       33.382      860.091
07/08/2014  15:20:00     -262.097     -284.632       -6.932      209.799      160.657       84.913    44015.462    25810.741     7210.286       11.338        3.852      386.924       82.431        0.045      351.304       33.107      860.112
07/08/2014  15:21:00     -296.306     -129.684       -5.627      200.432      147.136       86.346    40172.823    21648.913     7455.607        8.695        3.464      323.443      109.994        0.116      351.285       33.073      860.143
07/08/2014  15:22:00     -406.134     -160.744       -8.470      188.933      125.736       76.385    35695.707    15809.640     5834.677       12.409        2.867      436.787       87.736        0.040      351.179       32.887      860.154
07/08/2014  15:23:00     -354.630     -187.849        1.893      170.123      133.497       77.375    28941.876    17821.335     5986.876       10.689        2.638      401.310       87.772        0.048      351.160       32.856      860.164
07/08/2014  15:24:00     -120.559     -103.917       17.403      140.270       88.805       64.111    19675.813     7886.337     4110.204        2.865        1.584      159.164       72.209        0.206      351.326       33.147      860.201
07/08/2014  15:25:00     -102.754     -167.755       15.320      113.215      135.220       46.725    12817.562    18284.402     2183.246        3.610        1.664      196.724       43.095        0.048      351.259       33.029      860.227
07/08/2014  15:26:00     -163.212     -114.958        4.727      142.362      109.992       61.331    20266.965    12098.292     3761.538        3.800        1.806      199.633       76.018        0.145      351.295       33.092      860.255
07/08/2014  15:27:00     -147.542      -83.049       -0.143       76.688      105.677       41.133     5881.005    11167.598     1691.942        2.370        0.937      169.310       43.154        0.065      351.203       32.931      860.295
07/08/2014  15:28:00      -47.126     -178.010       16.764       94.797      106.511       45.382     8986.463    11344.503     2059.513        2.829        1.120      184.142       50.246        0.074      351.181       32.894      860.325
07/08/2014  15:29:00     -132.464     -122.222        4.329       79.130       89.830       46.659     6261.528     8069.381     2177.090        2.450        0.825      180.236       48.937        0.074      351.178       32.888      860.373
07/08/2014  15:30:00      -48.846      -21.818       -6.098       87.153       40.497       28.117     7595.636     1640.024      790.568        0.646        0.501       53.497       22.634        0.179      351.144       32.831      860.406
07/08/2014  15:31:00       46.507      -20.642       18.040       57.521       40.872       31.533     3308.630     1670.561      994.303        0.444        0.299       50.882       27.272        0.287      350.824       32.274      860.437
07/08/2014  15:32:00      -13.451       50.148       24.187      101.817       83.027       44.356    10366.628     6893.422     1967.479        1.125        0.961       51.920       42.631        0.674      350.900       32.404      860.452
07/08/2014  15:33:00      -35.659       52.404       -4.776       50.802       39.234       37.166     2580.810     1539.275     1381.299        0.477        0.275       63.385       10.388        0.027      351.029       32.631      860.464
07/08/2014  15:34:00       81.031       62.298       44.981       63.360       60.726       40.816     4014.447     3687.587     1665.923        1.092        0.468      102.211       49.579        0.235      350.851       32.322      860.510
07/08/2014  15:35:00       38.409       86.927      -17.832      126.939      111.775       76.278    16113.391    12493.743     5818.292        2.188        1.721       95.034       63.189        0.442      350.575       31.839      860.491
07/08/2014  15:36:00       70.412      -76.769       56.591      114.168      188.297       91.712    13034.277    35455.596     8411.071        3.547        2.845      104.170      101.567        0.951      350.521       31.745      860.471
07/08/2014  15:37:00       84.608      -31.018       57.356       91.636      122.673       55.752     8397.103    15048.612     3108.310        1.898        1.328       90.115       68.188        0.573      350.371       31.484      860.528
07/08/2014  15:38:00      219.046      137.155       19.496      118.732       89.303       75.942    14097.186     7975.015     5767.118        4.750        1.392      258.443       61.693        0.057      350.355       31.457      860.549
07/08/2014  15:39:00      242.235       78.651       37.114      155.355       95.830       78.566    24135.183     9183.323     6172.558        5.286        1.975      254.684       66.972        0.069      350.435       31.595      860.580
07/08/2014  15:40:00      277.854      112.287       60.579      149.263      146.587       88.009    22279.333    21487.832     7745.647        7.249        2.576      299.685       54.113        0.033      350.116       31.041      860.571
07/08/2014  15:41:00      144.983       68.509       57.781       81.498       73.302       73.642     6641.944     5373.162     5423.177        2.324        0.872      160.355       41.756        0.068      349.850       30.580      860.607
07/08/2014  15:42:00      110.164      119.853        8.334       96.102       68.037       63.149     9235.560     4629.015     3987.777        2.221        0.893      162.791       47.118        0.084      350.225       31.232      860.652
07/08/2014  15:43:00      150.744      158.936       13.651      152.072       80.659       66.677    23125.880     6505.849     4445.836        4.112        1.704      219.053       56.202        0.066      350.286       31.335      860.681
07/08/2014  15:44:00      195.423      212.606       10.478      151.184      108.680       91.061    22856.700    11811.274     8292.164        6.322        2.148      288.775       64.117        0.049      350.162       31.121      860.655
07/08/2014  15:45:00      261.820      204.277       18.707      167.843      123.309       90.295    28171.218    15205.225     8153.155        8.107        2.576      332.083       61.680        0.034      349.903       30.668      860.695
07/08/2014  15:46:00      290.339      166.935       27.712      121.381       94.391       61.681    14733.253     8909.703     3804.551        7.018        1.372      334.908       42.653        0.016      349.845       30.567      860.737
07/08/2014  15:47:00      484.261      317.780       63.847      199.652      146.613      112.903    39861.113    21495.403    12747.010       20.682        3.705      579.218       55.898        0.009      349.495       29.961      860.823
07/08/2014  15:48:00      195.596      232.913       26.752      162.131      158.553      120.051    26286.527    25139.180    14412.362        7.952        3.292      304.148       71.051        0.055      349.207       29.462      860.922
07/08/2014  15:49:00      547.144      339.770       36.661      278.991      163.958      149.561    77836.244    26882.219    22368.396       27.160        6.354      644.058       80.201        0.016      347.971       27.324      860.896
07/08/2014  15:50:00      396.804      289.793       42.231      228.977      180.162      140.435    52430.320    32458.347    19721.906       17.390        5.231      491.358       61.155        0.015      347.434       26.396      860.873
07/08/2014  15:51:00      268.220      293.652       11.983      189.365      175.969      128.964    35859.186    30965.108    16631.666       12.087        4.173      397.710      107.343        0.073      347.421       26.373      860.924
07/08/2014  15:52:00      300.599      289.727       18.363      202.357      156.284      119.350    40948.177    24424.755    14244.337       12.711        3.981      417.495       80.386        0.037      347.425       26.381      860.909
07/08/2014  15:53:00      267.266      397.369        4.925      231.172      287.438      138.196    53440.653    82620.327    19098.210       19.223        7.758      478.888      154.369        0.104      347.431       26.391      860.831
07/08/2014  15:54:00      137.339      316.851       -6.413      167.485      237.363      126.249    28051.113    56341.307    15938.794       10.980        5.017      345.335      130.829        0.144      347.681       26.824      860.961
07/08/2014  15:55:00      249.095      473.602       -0.491      289.094      260.439      202.378    83575.346    67828.576    40956.891       23.932        9.618      535.114      184.055        0.118      347.697       26.851      860.997
07/08/2014  15:56:00      307.586      335.350        1.665      201.394      180.538      145.536    40559.683    32593.993    21180.769       15.069        4.717      455.048      129.358        0.081      347.472       26.461      861.022
07/08/2014  15:57:00      132.395      393.015        0.453      196.274      301.886      171.547    38523.541    91135.086    29428.383       16.551        7.954      414.716      187.135        0.204      347.471       26.460      861.070
07/08/2014  15:58:00      112.176      402.227      -24.884      185.258      250.415      130.046    34320.444    62707.916    16911.928       14.445        5.697      417.576      130.791        0.098      347.735       26.915      861.098
07/08/2014  15:59:00      138.703      359.721        7.410      189.099      252.380      151.697    35758.286    63695.637    23012.064       13.556        6.123      385.535      150.837        0.153      347.899       27.199      860.997
07/08/2014  16:00:00      115.863      399.757      -14.854      167.243      261.906      153.086    27970.262    68594.496    23435.199       14.670        6.000      416.209      144.795        0.121      347.911       27.219      860.991
07/08/2014  16:01:00       -4.913      623.394      -78.283      173.173      259.430      109.701    29988.867    67303.976    12034.201       25.203        5.466      623.413      122.710        0.039      347.877       27.161      861.026
07/08/2014  16:02:00      -30.745      578.122      -54.620      162.168      237.351      118.750    26298.446    56335.664    14101.572       21.743        4.837      578.939      130.203        0.051      347.950       27.286      861.034
07/08/2014  16:03:00       17.989      548.402      -43.567      168.296      287.658      143.650    28323.614    82746.843    20635.363       21.731        6.585      548.697      159.786        0.085      348.045       27.450      861.004
07/08/2014  16:04:00       44.802      553.289      -45.148      161.848      287.852      143.858    26194.901    82858.878    20695.194       21.994        6.487      555.100      158.184        0.081      347.940       27.269      861.036
07/08/2014  16:05:00       35.976      510.893      -33.604      167.658      286.747      129.687    28109.107    82223.872    16818.828       19.527        6.358      512.158      153.425        0.090      347.691       26.840      861.086
07/08/2014  16:06:00       17.870      565.154      -40.152      155.403      297.233      128.615    24149.977    88347.722    16541.759       22.516        6.452      565.437      144.129        0.065      347.663       26.793      861.072
07/08/2014  16:07:00      124.574      394.827       -8.861      226.217      287.680      137.655    51173.990    82759.928    18948.963       16.216        7.644      414.013      141.498        0.117      347.659       26.784      861.025
07/08/2014  16:08:00       32.677      452.447      -43.740      151.158      270.022      114.356    22848.697    72911.904    13077.323       15.825        5.442      453.626      134.787        0.088      347.505       26.519      861.009
07/08/2014  16:09:00      103.076      452.739      -15.401      179.895      224.419      146.844    32362.254    50363.923    21563.031       16.004        5.214      464.325      145.747        0.099      347.514       26.533      860.988
07/08/2014  16:10:00       73.695      615.380      -81.721      139.290      264.018      132.014    19401.761    69705.336    17427.773       24.865        5.327      619.777      137.675        0.049      347.652       26.774      860.948
07/08/2014  16:11:00     -111.043      753.646      -81.723      182.281      272.261      113.461    33226.437    74126.142    12873.306       35.359        6.011      761.783      143.707        0.036      347.773       26.980      860.966
07/08/2014  16:12:00       35.386      709.690      -72.052      149.562      254.495      120.088    22368.845    64767.914    14421.205       30.581        5.078      710.571      130.160        0.034      347.765       26.968      860.948
07/08/2014  16:13:00      -27.183      645.997      -73.263      162.609      275.130      111.995    26441.716    75696.376    12542.837       26.903        5.734      646.569      129.030        0.040      347.822       27.067      860.913
07/08/2014  16:14:00      -85.933      831.157     -100.496      172.774      201.557       93.745    29850.731    40625.251     8788.160       39.377        3.963      835.587       93.626        0.013      347.888       27.179      860.921
07/08/2014  16:15:00      -74.769      776.739      -93.873      152.758      200.769       93.712    23334.956    40308.247     8781.982       34.506        3.621      780.329       97.457        0.016      347.899       27.197      860.942
07/08/2014  16:16:00      -48.018      632.473      -71.275      157.857      223.963       91.419    24918.891    50159.338     8357.451       24.541        4.172      634.293      102.474        0.026      347.925       27.244      860.957
07/08/2014  16:17:00     -175.508      657.705      -83.716      160.733      198.090       80.081    25835.117    39239.578     6412.924       27.093        3.574      680.720       80.702        0.014      347.893       27.187      861.014
07/08/2014  16:18:00      -93.744      665.060      -79.315      149.834      235.398       78.771    22450.253    55412.192     6204.849       27.071        4.203      671.635       81.313        0.015      347.743       26.929      861.068
07/08/2014  16:19:00      -73.579      352.397      -20.439      127.859      145.456       78.020    16347.951    21157.396     6087.163        8.680        2.180      359.997       71.865        0.040      347.751       26.943      861.108
07/08/2014  16:20:00      -78.040      548.727      -50.738      157.602      197.605       93.905    24838.481    39047.889     8818.141       19.122        3.635      554.249      103.531        0.035      347.556       26.607      861.095
07/08/2014  16:21:00     -142.399      570.845      -57.459      142.619      185.524       74.779    20340.042    34419.035     5591.907       20.489        3.018      588.338       74.667        0.016      347.505       26.519      861.138
07/08/2014  16:22:00      -85.575      562.019      -66.977      138.565      239.342       91.788    19200.271    57284.812     8425.078       20.628        4.246      568.497      101.505        0.032      347.480       26.475      861.197
07/08/2014  16:23:00     -102.502      366.158      -44.963      118.708      154.332       74.311    14091.578    23818.416     5522.067        9.501        2.172      380.235       76.931        0.041      347.516       26.539      861.231
07/08/2014  16:24:00     -143.213      363.085      -49.629      139.678      227.512       88.713    19509.911    51761.615     7869.921       11.696        3.957      390.308      104.554        0.072      347.459       26.437      861.270
07/08/2014  16:25:00     -194.922      415.521      -58.000      110.997      197.508       76.077    12320.238    39009.571     5787.681       13.556        2.856      458.969       81.038        0.031      347.394       26.328      861.337
07/08/2014  16:26:00     -210.930      414.710      -61.390      113.588      195.096       83.768    12902.120    38062.289     7017.019       13.910        2.899      465.269       75.980        0.027      347.456       26.435      861.423
07/08/2014  16:27:00     -172.177      433.430      -66.765      105.072      158.261       69.041    11040.205    25046.651     4766.723       13.140        2.043      466.376       67.597        0.021      347.469       26.457      861.444
07/08/2014  16:28:00     -181.829      299.843      -35.286       95.515      174.145       77.091     9123.122    30326.409     5943.033        8.480        2.270      350.668       86.887        0.061      347.400       26.338      861.498
07/08/2014  16:29:00     -126.418      303.506      -29.495      119.928      194.010       68.867    14382.686    37639.698     4742.619        8.286        2.838      328.781       74.045        0.051      347.180       25.960      861.542
07/08/2014  16:30:00     -141.013      184.580      -25.956       80.402      115.442       56.828     6464.473    13326.877     3229.380        3.882        1.151      232.281       62.164        0.072      347.084       25.794      861.621
07/08/2014  16:31:00     -197.815      248.435      -27.345      109.622      120.622       79.698    12017.007    14549.738     6351.786        6.725        1.646      317.570       61.859        0.038      346.947       25.556      861.667
07/08/2014  16:32:00     -264.442      321.973      -52.817      127.299      185.257       77.292    16204.934    34320.175     5974.113       11.643        2.825      416.649       79.492        0.036      346.835       25.364      861.726
07/08/2014  16:33:00     -208.341      314.710      -43.675      128.011      157.617       81.557    16386.855    24843.002     6651.540        9.611        2.394      377.423       75.720        0.040      346.805       25.314      861.777
07/08/2014  16:34:00     -256.310      235.471      -60.350       98.744      124.582       71.201     9750.476    15520.614     5069.582        7.756        1.517      348.053       70.651        0.041      346.833       25.362      861.826
07/08/2014  16:35:00     -154.030      121.648      -27.121       79.361      122.630       67.482     6298.137    15038.232     4553.862        3.257        1.295      196.274       49.754        0.064      346.851       25.393      861.884
07/08/2014  16:36:00      -96.626       26.376       16.478       75.871       56.431       44.913     5756.353     3184.495     2017.148        1.063        0.548      100.161       41.396        0.171      346.875       25.436      861.900
07/08/2014  16:37:00      -70.537      104.371        1.245       71.552       74.309       59.507     5119.707     5521.840     3541.071        1.502        0.709      125.971       47.015        0.139      346.825       25.350      861.925
07/08/2014  16:38:00      -97.939       99.043      -16.783       90.192      111.786       51.683     8134.686    12496.210     2671.125        2.149        1.165      139.289       49.440        0.126      346.713       25.155      862.029
07/08/2014  16:39:00     -207.614      124.545      -28.661      123.167      136.075       74.739    15170.100    18516.540     5585.901        4.935        1.964      242.105       68.004        0.079      346.405       24.626      862.080
07/08/2014  16:40:00     -229.411       43.220       -0.924      205.546      150.045       91.806    42249.287    22513.463     8428.380        6.383        3.660      233.447       76.067        0.106      346.107       24.113      862.116
07/08/2014  16:41:00     -216.824       50.707      -11.426      160.106      193.254       93.369    25633.841    37347.159     8717.754        6.069        3.585      222.674       93.197        0.175      345.937       23.823      862.145
07/08/2014  16:42:00     -206.660       83.758      -46.871      146.305      138.085       90.404    21405.114    19067.400     8172.927        5.027        2.432      222.988       79.206        0.126      345.798       23.585      862.167
07/08/2014  16:43:00     -193.407      115.834      -49.469      112.497      129.375       69.657    12655.465    16737.850     4852.110        4.375        1.712      225.441       62.245        0.076      345.657       23.342      862.189
07/08/2014  16:44:00     -209.696       46.713      -20.670      146.230      174.193       80.730    21383.197    30343.205     6517.361        5.240        2.912      214.836       74.764        0.121      345.554       23.165      862.202
07/08/2014  16:45:00     -268.956      160.256      -39.731      103.231      174.762       64.256    10656.614    30541.626     4128.832        7.245        2.266      313.080       66.220        0.045      345.652       23.330      862.269
07/08/2014  16:46:00     -266.988      309.716      -59.217      116.522      125.503       71.961    13577.291    15750.900     5178.451       10.260        1.725      408.909       66.468        0.026      345.809       23.601      862.321
07/08/2014  16:47:00     -180.583       74.719       -8.537      130.688      134.672       69.824    17079.267    18136.661     4875.418        3.917        2.005      195.431       67.391        0.119      345.815       23.613      862.384
07/08/2014  16:48:00     -168.397       97.874       -6.771      121.667      117.370       69.636    14802.831    13775.654     4849.111        3.570        1.671      194.774       71.529        0.135      345.701       23.417      862.431
07/08/2014  16:49:00     -116.586       53.026        9.411      131.627      136.274       65.511    17325.553    18570.667     4291.753        2.833        2.009      128.078       59.922        0.219      345.530       23.126      862.449
07/08/2014  16:50:00      -57.048      135.665       10.144      116.434      166.963       71.025    13556.783    27876.646     5044.526        3.411        2.324      147.172       63.161        0.184      345.493       23.060      862.435
07/08/2014  16:51:00      -79.161      354.975      -25.886      125.606      219.194       96.983    15776.906    48046.006     9405.776       10.307        3.661      363.694      107.638        0.088      345.716       23.441      862.499
07/08/2014  16:52:00      -30.178      367.832      -18.168      143.710      176.114      102.826    20652.616    31016.285    10573.222        9.938        3.112      369.068      109.291        0.088      346.088       24.081      862.568
07/08/2014  16:53:00       57.196      264.061       -3.990      115.702      172.029       94.238    13386.966    29593.904     8880.836        6.243        2.593      270.184       94.547        0.122      346.136       24.162      862.645
07/08/2014  16:54:00      196.981      156.891       90.178      130.123       76.221       88.240    16932.037     5809.642     7786.380        5.103        1.526      251.826       55.906        0.049      345.497       23.066      862.722
07/08/2014  16:55:00      258.289      171.538      104.135      112.205       98.385       82.460    12589.981     9679.602     6799.617        6.802        1.453      310.062       60.285        0.038      345.055       22.309      862.822
07/08/2014  16:56:00      320.862      192.565       85.058      191.312      110.347       91.036    36600.379    12176.435     8287.590       10.216        2.853      374.211       92.696        0.061      345.575       23.201      862.832
07/08/2014  16:57:00       99.337      196.940      208.707      145.473      139.508      103.781    21162.323    19462.531    10770.574        7.179        2.570      220.575      107.231        0.236      346.076       24.061      862.813
07/08/2014  16:58:00      143.185      128.666       79.737      131.327       99.911      101.174    17246.825     9982.290    10236.078        4.043        1.873      192.501       79.718        0.171      345.784       23.559      862.860
07/08/2014  16:59:00      230.433      141.360       40.493       84.601       94.478       60.689     7157.311     8926.157     3683.177        4.724        0.988      270.336       42.917        0.025      345.504       23.078      862.888
07/08/2014  17:00:00      101.619       22.676       60.368      118.514      104.844       78.084    14045.619    10992.269     6097.183        2.280        1.557      104.118       64.100        0.379      345.900       23.761      862.866
07/08/2014  17:01:00      104.471      -11.360       58.015      105.854       93.974       77.374    11205.118     8831.064     5986.798        2.021        1.301      105.087       60.915        0.336      345.985       23.906      862.875
07/08/2014  17:02:00       59.239      -22.394       76.376       53.973       87.658       56.701     2913.079     7683.946     3215.060        1.183        0.691       63.330       48.013        0.575      346.010       23.950      862.886
07/08/2014  17:03:00       37.327       35.447       89.740       52.761       67.509       61.416     2783.684     4557.491     3771.934        1.091        0.556       51.476       48.375        0.883      345.904       23.769      862.895
07/08/2014  17:04:00       21.102       16.584       53.927       56.442       53.159       40.690     3185.746     2825.838     1655.682        0.565        0.383       26.838       30.700        1.309      345.857       23.688      862.903
07/08/2014  17:05:00       36.272       28.556       20.576       56.516       53.591       30.884     3194.083     2871.966      953.828        0.479        0.351       46.164       25.123        0.296      345.861       23.693      862.909
07/08/2014  17:06:00      111.134       92.305       31.332       57.670       33.111       39.930     3325.862     1096.317     1594.381        1.393        0.301      144.468       20.128        0.019      345.729       23.466      862.921
07/08/2014  17:07:00      104.270       69.553       16.206       59.289       45.133       40.283     3515.199     2036.980     1622.749        1.157        0.359      125.339        9.500        0.006      345.698       23.414      862.926
07/08/2014  17:08:00      155.164       63.294       21.795       51.946       35.854       32.510     2698.390     1285.523     1056.921        1.680        0.252      167.577        9.616        0.003      345.558       23.173      862.986
07/08/2014  17:09:00       83.127       70.082       -3.274       53.990       44.462       26.998     2914.924     1976.868      728.867        0.873        0.281      108.727       18.808        0.030      345.430       22.955      863.001
07/08/2014  17:10:00       48.622       83.947        4.591       53.599       48.983       41.489     2872.897     2399.328     1721.358        0.821        0.350       97.011       33.104        0.116      345.309       22.747      862.993
07/08/2014  17:11:00       27.653      127.556      -20.203       26.240       49.962       24.415      688.521     2496.246      596.083        1.061        0.189      130.519       25.319        0.038      345.266       22.672      862.983
07/08/2014  17:12:00       22.120      189.545      -28.042       29.218       27.007       17.835      853.698      729.380      318.095        1.955        0.095      190.831       10.754        0.003      345.231       22.613      862.967
07/08/2014  17:13:00       15.459      232.826      -31.261       25.534       34.887       24.474      651.971     1217.124      598.967        2.895        0.123      233.338       20.326        0.008      345.240       22.626      862.959
07/08/2014  17:14:00       13.529      247.407      -36.772       39.906       35.699       18.983     1592.521     1274.394      360.342        3.299        0.161      247.777       21.167        0.007      345.304       22.735      862.942
07/08/2014  17:15:00       11.328      214.716      -25.301       45.455       49.818       29.710     2066.187     2481.815      882.691        2.615        0.272      215.014       24.689        0.013      345.342       22.800      862.927
07/08/2014  17:16:00        3.204      259.615      -35.504       52.748       46.235       25.169     2782.399     2137.712      633.502        3.711        0.278      259.635       19.407        0.006      345.487       23.047      862.923
07/08/2014  17:17:00        0.593      213.446      -17.262       43.150       46.420       28.939     1861.903     2154.818      837.477        2.535        0.243      213.447       25.324        0.014      345.529       23.121      862.927
07/08/2014  17:18:00       50.746      143.407       -7.632       48.262       67.186       44.307     2329.185     4513.979     1963.105        1.600        0.440      152.121       43.369        0.081      345.583       23.215      862.967
07/08/2014  17:19:00       74.712      102.517        7.041       54.502       67.984       49.768     2970.430     4621.841     2476.859        1.310        0.503      126.853       46.343        0.133      345.623       23.287      863.016
07/08/2014  17:20:00       90.263       73.482       12.692       55.337       30.425       31.430     3062.160      925.661      987.829        0.934        0.249      116.391       22.284        0.037      345.758       23.518      863.082
07/08/2014  17:21:00       62.258       48.292       22.326       57.646       54.577       35.011     3323.021     2978.649     1225.797        0.712        0.376       78.792       21.379        0.074      345.771       23.540      863.160
07/08/2014  17:22:00        9.396      -92.638       10.488       68.532       36.768       36.327     4696.687     1351.854     1319.667        0.807        0.368       93.114       33.051        0.126      345.831       23.644      863.244
07/08/2014  17:23:00       32.723     -115.756       -3.402       40.201       50.927       32.348     1616.146     2593.571     1046.410        0.987        0.263      120.292       20.906        0.030      345.789       23.570      863.334
07/08/2014  17:24:00       41.252     -103.987       22.020       46.958       51.184       41.810     2205.021     2619.805     1748.084        0.979        0.329      111.871       30.369        0.074      345.786       23.566      863.420
07/08/2014  17:25:00       13.437      -75.902       -1.046       41.472       47.897       28.180     1719.927     2294.095      794.108        0.537        0.240       77.082       22.501        0.085      345.786       23.564      863.486
07/08/2014  17:26:00       29.286      -65.923        2.564       52.862       59.298       40.417     2794.432     3516.279     1633.533        0.658        0.397       72.135       35.597        0.244      345.854       23.682      863.543
07/08/2014  17:27:00      -29.788      -26.608       18.544       61.623       60.485       39.281     3797.405     3658.469     1542.985        0.547        0.450       39.941       33.723        0.713      345.841       23.660      863.582
07/08/2014  17:28:00      -48.697      -58.217       16.226       72.952       68.623       41.610     5321.984     4709.069     1731.363        0.889        0.588       75.899       22.522        0.088      345.721       23.453      863.605
07/08/2014  17:29:00      -44.910     -141.437       -9.937       92.745       61.666       45.960     8601.653     3802.647     2112.332        1.832        0.726      148.396       29.747        0.040      345.653       23.336      863.604
07/08/2014  17:30:00      -63.545     -167.025      -13.197       90.954       91.328       41.755     8272.579     8340.817     1743.446        2.523        0.918      178.705       23.888        0.018      345.662       23.348      863.583
07/08/2014  17:31:00     -157.061     -111.025       -3.445      102.730       92.391       60.025    10553.424     8536.185     3603.031        2.985        1.135      192.341       61.865        0.103      345.669       23.362      863.553
07/08/2014  17:32:00      -60.158      -94.079       23.528      100.302       77.798       38.023    10060.529     6052.567     1445.751        1.529        0.878      111.668       51.782        0.215      345.722       23.454      863.512
07/08/2014  17:33:00      -16.356      -71.329       13.806       66.672       49.790       35.093     4445.191     2479.028     1231.529        0.685        0.408       73.180       28.607        0.153      345.745       23.495      863.470
07/08/2014  17:34:00      -28.253      -60.503       -8.571       54.387       39.842       32.496     2957.948     1587.363     1055.973        0.507        0.280       66.775       24.680        0.137      345.770       23.539      863.429
07/08/2014  17:35:00      -90.837     -103.628      -15.840       43.011       43.777       23.408     1849.916     1916.393      547.919        1.178        0.216      137.805        8.466        0.004      345.681       23.386      863.392
07/08/2014  17:36:00     -123.831     -118.471       -8.899       64.133       46.741       33.052     4113.066     2184.677     1092.454        1.842        0.370      171.375       35.084        0.042      345.708       23.428      863.375
07/08/2014  17:37:00     -109.738     -100.047       11.184       66.906       45.086       39.287     4476.431     2032.746     1543.449        1.511        0.403      148.499       33.383        0.051      345.767       23.533      863.367
07/08/2014  17:38:00     -106.026      -91.501        2.259       55.379       58.341       36.374     3066.886     3403.673     1323.085        1.371        0.390      140.050       33.124        0.056      345.806       23.600      863.384
07/08/2014  17:39:00      -94.720     -135.370        8.577       64.030       57.225       28.635     4099.809     3274.738      819.950        1.778        0.410      165.218       25.658        0.024      345.810       23.606      863.416
07/08/2014  17:40:00      -73.419      -94.144        9.635       66.673       56.486       31.078     4445.336     3190.721      965.867        1.147        0.430      119.388       24.056        0.041      345.865       23.701      863.435
07/08/2014  17:41:00     -135.417      -65.186       -0.930       52.560       64.897       33.552     2762.567     4211.654     1125.725        1.534        0.405      150.290       33.353        0.049      345.864       23.699      863.447
07/08/2014  17:42:00      -80.012      -87.741        8.737       57.280       58.391       36.203     3281.011     3409.504     1310.669        1.109        0.400      118.745       32.770        0.076      345.905       23.770      863.453
07/08/2014  17:43:00      -60.583      -99.020       -6.448       32.344       60.786       19.737     1046.141     3694.971      389.542        0.932        0.257      116.083       15.568        0.018      345.887       23.736      863.447
07/08/2014  17:44:00      -78.923      -49.302       -1.965       48.713       35.926       24.394     2373.003     1290.660      595.053        0.646        0.213       93.056       18.071        0.038      345.965       23.874      863.435
07/08/2014  17:45:00      -74.818      -42.686        3.659       74.748       33.846       29.570     5587.307     1145.531      874.376        0.752        0.380       86.139       37.722        0.192      345.977       23.892      863.425
07/08/2014  17:46:00     -101.440      -31.691      -10.044       32.920       27.434       20.334     1083.755      752.647      413.452        0.682        0.112      106.275       19.112        0.032      345.964       23.869      863.412
07/08/2014  17:47:00     -109.288      -38.899       -9.017       48.667       53.460       31.190     2368.497     2858.012      972.818        0.987        0.310      116.004       34.347        0.088      346.036       23.995      863.400
07/08/2014  17:48:00      -83.361      -36.577       -8.608       52.701       33.733       23.424     2777.407     1137.893      548.699        0.641        0.223       91.033       24.094        0.070      346.055       24.027      863.386
07/08/2014  17:49:00     -121.074      -32.631        1.940       46.570       45.175       25.683     2168.786     2040.766      659.627        1.030        0.243      125.394       23.189        0.034      346.099       24.101      863.370
07/08/2014  17:50:00     -145.972      -25.334       -7.154       47.733       38.602       26.642     2278.475     1490.145      709.816        1.324        0.224      148.154       26.704        0.032      346.081       24.072      863.365
07/08/2014  17:51:00     -105.666      -36.390       -3.107       42.224       34.150       21.463     1782.827     1166.189      460.664        0.795        0.170      111.757       18.617        0.028      346.086       24.083      863.362
07/08/2014  17:52:00     -115.867      -56.717       -9.721       37.808       29.702       19.553     1429.428      882.220      382.301        0.971        0.135      129.004        8.268        0.004      346.099       24.100      863.349
07/08/2014  17:53:00     -110.951      -21.069       -2.322       39.482       36.185       20.119     1558.843     1309.335      404.788        0.802        0.164      112.934       18.946        0.028      346.109       24.120      863.317
07/08/2014  17:54:00      -68.567      -17.396       -1.321       41.047       35.251       18.113     1684.837     1242.637      328.086        0.413        0.163       70.739       21.874        0.096      346.178       24.237      863.298
07/08/2014  17:55:00      -76.607      -31.674       -1.231       29.265       30.725       19.556      856.448      944.011      382.426        0.453        0.109       82.897       12.905        0.024      346.245       24.355      863.266
07/08/2014  17:56:00      -74.535      -37.530        4.745       35.995       29.094       19.245     1295.612      846.457      370.388        0.475        0.126       83.451       14.197        0.029      346.253       24.369      863.247
07/08/2014  17:57:00      -26.804      -32.445        6.235       35.119       22.569       19.398     1233.329      509.378      376.265        0.196        0.106       42.085       22.031        0.274      346.423       24.660      863.250
07/08/2014  17:58:00       -7.220      -46.651       -0.852       31.386       45.505       19.858      985.080     2070.710      394.353        0.284        0.173       47.206       18.071        0.147      346.541       24.862      863.231
07/08/2014  17:59:00      -16.846       -6.363        1.819       19.262       31.827       15.228      371.037     1012.927      231.896        0.097        0.081       18.007        9.952        0.305      346.658       25.064      863.238
07/08/2014  18:00:00      -16.887       11.610        8.909       11.063        8.735        9.730      122.394       76.306       94.677        0.040        0.015       20.493        4.654        0.052      346.759       25.238      863.226
07/08/2014  18:01:00      -13.773        3.099       22.325       44.280       22.208       22.870     1960.755      493.191      523.040        0.184        0.149       14.117        9.473        0.450      346.802       25.311      863.212
07/08/2014  18:02:00      -44.759       -9.554        0.736       33.987       30.470       23.944     1155.118      928.443      573.295        0.238        0.133       45.768       23.196        0.257      346.848       25.389      863.199
07/08/2014  18:03:00      -49.045       15.921        3.806       41.575       25.227       18.847     1728.517      636.388      355.191        0.270        0.136       51.564       19.832        0.148      346.756       25.233      863.165
07/08/2014  18:04:00      -24.416      -17.213        0.542       27.034       24.408       16.227      730.823      595.730      263.327        0.124        0.079       29.874       11.222        0.141      346.818       25.340      863.147
07/08/2014  18:05:00        7.367       -7.493        9.397       11.584       12.251        8.077      134.181      150.089       65.244        0.027        0.017       10.508        7.786        0.549      347.157       25.924      863.125
07/08/2014  18:06:00      -17.295        7.219        9.429       22.602       17.072       15.017      510.847      291.464      225.496        0.073        0.051       18.741       10.084        0.290      347.004       25.658      863.107
07/08/2014  18:07:00        2.373       -4.469       -3.018       18.176       20.749       15.587      330.359      430.537      242.954        0.052        0.050        5.060        9.885        3.816      346.842       25.381      863.087
07/08/2014  18:08:00      -66.795      -16.198       -8.653       48.024       27.937       20.465     2306.285      780.483      418.812        0.415        0.175       68.731       16.553        0.058      346.736       25.199      863.067
07/08/2014  18:09:00      -80.422      -32.102      -15.332       29.027       20.751       13.362      842.540      430.600      178.546        0.459        0.073       86.592       12.488        0.021      346.626       25.009      863.055
07/08/2014  18:10:00      -63.905      -14.731       -4.783       24.585       28.989       16.943      604.427      840.373      287.075        0.303        0.087       65.581       16.735        0.065      346.699       25.136      863.054
07/08/2014  18:11:00      -17.477      -13.990       17.764       34.984       24.209       20.789     1223.913      586.094      432.189        0.153        0.112       22.387       22.542        1.014      346.895       25.472      863.053
07/08/2014  18:12:00      -37.927      -24.537        8.089       58.961       52.902       32.698     3476.351     2798.672     1069.178        0.472        0.367       45.173       31.000        0.471      346.899       25.478      863.059
07/08/2014  18:13:00     -117.773      -86.554       -5.177       61.118       42.627       27.461     3735.384     1817.081      754.097        1.385        0.315      146.158       14.781        0.010      346.656       25.059      863.066
07/08/2014  18:14:00      -90.634      -92.555       -5.663       48.524       41.825       27.620     2354.551     1749.338      762.873        1.084        0.243      129.542       24.598        0.036      346.732       25.191      863.081
07/08/2014  18:15:00      -48.419      -61.746       -5.547       49.963       36.920       23.260     2496.348     1363.070      541.024        0.529        0.220       78.466       22.345        0.081      346.799       25.307      863.086
07/08/2014  18:16:00      -11.582      -34.246        5.697       16.591       31.904       16.830      275.258     1017.863      283.241        0.146        0.079       36.152       13.142        0.132      346.981       25.620      863.092
07/08/2014  18:17:00      -11.142        4.645        0.643       18.101       11.695       11.764      327.658      136.767      138.403        0.037        0.030       12.072        3.933        0.106      346.919       25.513      863.081
07/08/2014  18:18:00       -4.654      -14.644        1.115       18.690       27.475       16.398      349.302      754.858      268.884        0.080        0.069       15.366        7.832        0.260      347.137       25.889      863.068
07/08/2014  18:19:00      -33.401       -0.434        2.637       34.995       19.165       17.861     1224.632      367.310      319.003        0.152        0.096       33.403       10.294        0.095      347.110       25.842      863.043
07/08/2014  18:20:00      -38.700       -5.501        5.299       28.252       28.975       26.337      798.201      839.524      693.624        0.194        0.117       39.089        8.516        0.047      347.044       25.727      863.016
07/08/2014  18:21:00       -3.032       12.968       33.417       21.424       29.235       21.483      458.979      854.688      461.540        0.153        0.089       13.318       10.330        0.602      347.111       25.844      862.988
07/08/2014  18:22:00        2.982       -0.633       38.022       21.744       23.218       18.120      472.797      539.069      328.347        0.140        0.067        3.049        8.017        6.915      347.174       25.953      862.975
07/08/2014  18:23:00       -3.360       16.325       23.203       14.464       21.162       18.596      209.221      447.842      345.816        0.091        0.050       16.667       10.822        0.422      347.050       25.739      862.972
07/08/2014  18:24:00       -3.228        9.206        9.955       15.321       14.555       15.881      234.718      211.861      252.201        0.045        0.035        9.756        8.549        0.768      347.039       25.719      862.970
07/08/2014  18:25:00       -5.126       18.677       12.005       21.470       22.459       14.414      460.965      504.414      207.753        0.085        0.059       19.368        5.035        0.068      347.183       25.967      862.977
07/08/2014  18:26:00       -4.581       15.206       11.485       22.978       23.031       16.576      527.967      530.417      274.762        0.086        0.067       15.881       11.656        0.539      347.144       25.899      862.972
07/08/2014  18:27:00      -28.622      -31.250       -2.906       24.308       32.026       15.542      590.858     1025.687      241.567        0.183        0.093       42.377       16.149        0.145      347.018       25.683      862.975
07/08/2014  18:28:00      -22.863      -30.469        5.469       42.861       49.786       25.867     1837.086     2478.676      669.111        0.323        0.249       38.093       21.964        0.332      346.992       25.639      862.973
07/08/2014  18:29:00      -65.920      -56.145       10.687       69.546       44.070       34.867     4836.655     1942.176     1215.699        0.780        0.400       86.589       36.777        0.180      346.833       25.365      862.968
07/08/2014  18:30:00      -71.501      -42.921        2.230       43.068       25.674       25.777     1854.892      659.165      664.446        0.507        0.159       83.394       22.145        0.071      346.776       25.266      862.952
07/08/2014  18:31:00      -55.298      -51.792       -3.817       35.039       29.516       16.509     1227.712      871.171      272.553        0.406        0.119       75.765       15.931        0.044      346.733       25.192      862.937
07/08/2014  18:32:00      -35.750      -76.173       -5.985       28.221       29.773       14.613      796.424      886.446      213.539        0.451        0.095       84.145       11.193        0.018      346.750       25.222      862.929
07/08/2014  18:33:00      -87.711      -99.589       -9.972       33.918       52.000       21.673     1150.410     2703.952      469.707        1.102        0.216      132.707       11.491        0.007      346.697       25.130      862.935
07/08/2014  18:34:00      -32.685      -42.744        2.935       49.080       34.325       17.147     2408.882     1178.232      294.017        0.339        0.194       53.808       13.217        0.060      346.891       25.465      862.945
07/08/2014  18:35:00     -106.322      -51.449        3.541       68.320       33.982       25.437     4667.687     1154.768      647.064        1.022        0.323      118.116       29.592        0.063      346.799       25.305      862.967
07/08/2014  18:36:00     -125.198      -72.540       -4.514       54.751       41.209       31.348     2997.629     1698.208      982.699        1.332        0.284      144.695       29.773        0.042      346.738       25.202      862.983
07/08/2014  18:37:00      -57.796      -32.401        5.202       51.121       26.396       20.432     2613.319      696.772      417.465        0.407        0.186       66.258       24.766        0.140      346.813       25.329      862.999
07/08/2014  18:38:00     -113.244      -29.600       -2.851       54.158       49.315       26.859     2933.053     2431.982      721.403        0.990        0.304      117.049       25.351        0.047      346.809       25.323      863.001
07/08/2014  18:39:00     -129.822      -15.133       -5.380       68.606       31.677       23.462     4706.756     1003.435      550.443        1.169        0.313      130.701       29.771        0.052      346.807       25.321      862.997
07/08/2014  18:40:00     -118.202      -71.131       -2.840       55.842       37.723       26.212     3118.295     1423.048      687.095        1.213        0.261      137.954       24.853        0.032      346.808       25.321      862.981
07/08/2014  18:41:00      -46.043      -44.972        6.925       28.314       24.476       16.324      801.706      599.050      266.461        0.293        0.083       64.362       16.810        0.068      346.874       25.436      862.964
07/08/2014  18:42:00      -18.276       -0.542        1.520       20.312       14.702       11.933      412.570      216.156      142.401        0.055        0.039       18.285       10.779        0.347      347.038       25.718      862.949
07/08/2014  18:43:00     -102.715      -56.703       -7.756       22.765       17.527       16.139      518.242      307.210      260.453        0.746        0.054      117.327        8.635        0.005      346.826       25.351      862.945
07/08/2014  18:44:00      -86.665      -43.075      -10.861       20.775       16.769       17.972      431.583      281.193      322.989        0.526        0.052       96.780       14.949        0.024      346.746       25.213      862.944
07/08/2014  18:45:00     -105.961      -43.515       -7.871       33.860       36.685       20.374     1146.469     1345.780      415.103        0.804        0.145      114.548       15.535        0.018      346.952       25.570      862.932
07/08/2014  18:46:00      -94.431      -32.791      -13.148       17.952       18.897        9.916      322.284      357.108       98.322        0.547        0.039       99.962        5.957        0.004      346.712       25.158      862.939
07/08/2014  18:47:00      -46.945      -20.087       10.289       49.464       41.173       26.018     2446.721     1695.178      676.961        0.377        0.241       51.062       27.094        0.282      346.970       25.599      862.929
07/08/2014  18:48:00     -178.376      -65.664       -7.158       39.996       38.376       25.201     1599.692     1472.725      635.066        1.994        0.185      190.078       23.330        0.015      346.740       25.203      862.924
07/08/2014  18:49:00     -169.959      -25.048       -9.669       37.234       33.422       17.101     1386.393     1117.058      292.440        1.620        0.140      171.795        9.593        0.003      346.740       25.203      862.923
07/08/2014  18:50:00      -88.344      -27.649        7.102       53.576       35.941       25.270     2870.385     1291.738      638.595        0.671        0.240       92.570       30.990        0.112      346.945       25.557      862.917
07/08/2014  18:51:00     -128.334      -54.168      -12.447       31.156       30.825       18.126      970.724      950.154      328.568        1.090        0.112      139.297       14.853        0.011      346.785       25.283      862.923
07/08/2014  18:52:00      -65.957      -36.728        8.306       47.254       37.824       27.486     2232.912     1430.657      755.472        0.509        0.221       75.493       25.599        0.115      346.897       25.473      862.913
07/08/2014  18:53:00     -103.517      -35.247       -8.102       39.945       32.274       19.058     1595.604     1041.639      363.201        0.751        0.150      109.353       13.594        0.015      346.780       25.273      862.919
07/08/2014  18:54:00     -127.330      -59.088       -5.254       39.284       36.700       16.509     1543.231     1346.923      272.541        1.145        0.158      140.372       20.957        0.022      346.783       25.277      862.916
07/08/2014  18:55:00     -112.039      -52.046       -4.803       32.015       27.352       17.539     1024.969      748.125      307.621        0.868        0.104      123.538       17.524        0.020      346.818       25.338      862.926
07/08/2014  18:56:00     -108.274      -39.534      -10.353       31.662       29.115       13.772     1002.499      847.672      189.664        0.772        0.102      115.266        7.713        0.004      346.829       25.357      862.916
07/08/2014  18:57:00     -110.188      -45.275       -9.085       26.613       25.183       14.382      708.247      634.198      206.853        0.791        0.077      119.127        9.309        0.006      346.812       25.328      862.917
07/08/2014  18:58:00      -99.253      -42.937       -4.687       24.987       36.978       17.929      624.339     1367.369      321.449        0.701        0.116      108.142       11.853        0.012      346.865       25.420      862.907
07/08/2014  18:59:00      -50.210      -23.214       -0.544       38.891       35.362       20.455     1512.526     1250.492      418.402        0.312        0.159       55.316       21.298        0.148      346.991       25.636      862.897
07/08/2014  19:00:00      -75.749      -51.945        0.773       53.508       28.435       25.076     2863.072      808.524      628.804        0.637        0.215       91.849       31.343        0.116      346.873       25.436      862.884
07/08/2014  19:01:00     -116.572      -30.707      -10.749       29.024       25.066       17.500      842.370      628.307      306.252        0.821        0.089      120.548       16.205        0.018      346.861       25.414      862.859
07/08/2014  19:02:00     -128.968      -59.714       -7.640       14.998       18.410       12.099      224.937      338.926      146.390        1.048        0.036      142.121        8.972        0.004      346.782       25.278      862.844
07/08/2014  19:03:00     -108.955      -24.843       -4.421       28.536       23.668       17.481      814.306      560.152      305.579        0.709        0.084      111.751       14.790        0.018      346.839       25.375      862.832
07/08/2014  19:04:00     -105.596      -37.563        1.219       35.107       24.317       20.201     1232.523      591.301      408.066        0.740        0.112      112.078       14.871        0.018      346.875       25.439      862.820
07/08/2014  19:05:00      -73.497      -12.033       -1.966       35.328       30.039       14.796     1248.074      902.314      218.934        0.396        0.118       74.475       17.223        0.053      346.960       25.582      862.803
07/08/2014  19:06:00     -127.886       -0.952       -9.426       35.418       19.590       20.207     1254.415      383.751      408.316        0.925        0.102      127.890       22.027        0.030      346.851       25.397      862.806
07/08/2014  19:07:00     -120.538       -9.885       -5.144       36.184       31.459       19.220     1309.256      989.689      369.425        0.866        0.133      120.943       20.092        0.028      346.890       25.463      862.812
07/08/2014  19:08:00     -116.633      -27.071       -6.594       37.749       32.027       18.800     1424.981     1025.719      353.433        0.859        0.140      119.734       14.451        0.015      346.881       25.447      862.814
07/08/2014  19:09:00      -82.018      -49.303       -3.258       39.250       37.033       21.439     1540.600     1371.478      459.617        0.627        0.169       95.696       20.833        0.047      346.931       25.534      862.813
07/08/2014  19:10:00      -83.316      -33.669        1.181       48.759       38.051       18.645     2377.395     1447.903      347.650        0.612        0.209       89.861       22.848        0.065      347.019       25.685      862.826
07/08/2014  19:11:00     -133.404      -27.954       -1.597       48.615       36.045       24.563     2363.453     1299.227      603.321        1.142        0.213      136.301       21.203        0.024      346.966       25.593      862.833
07/08/2014  19:12:00     -111.850      -54.428       -2.055       37.805       37.141       22.382     1429.242     1379.480      500.954        0.939        0.165      124.390       17.525        0.020      346.972       25.604      862.837
07/08/2014  19:13:00     -172.104      -49.664       -1.388       58.085       25.616       25.140     3373.881      656.171      632.022        1.837        0.233      179.127       31.623        0.031      346.878       25.439      862.823
07/08/2014  19:14:00     -160.504      -33.342       -1.098       31.733       22.625       19.391     1006.967      511.911      375.998        1.438        0.095      163.931       18.412        0.013      346.906       25.489      862.814
07/08/2014  19:15:00      -98.687      -18.633        1.662       56.864       32.668       22.040     3233.568     1067.196      485.744        0.744        0.239      100.431       23.299        0.054      347.008       25.665      862.802
07/08/2014  19:16:00     -141.968      -20.586        0.458       42.762       34.586       23.517     1828.613     1196.166      553.055        1.208        0.179      143.453       27.870        0.038      346.922       25.517      862.788
07/08/2014  19:17:00     -163.355      -41.805       -9.456       19.083       22.822       15.334      364.144      520.834      235.133        1.482        0.056      168.619       10.846        0.004      346.885       25.453      862.788
07/08/2014  19:18:00     -143.120      -43.887       -2.198       35.519       27.405       19.868     1261.572      751.061      394.729        1.241        0.120      149.698       18.507        0.015      346.929       25.527      862.780
07/08/2014  19:19:00     -151.225      -55.175       -5.654       18.230       18.134       14.675      332.323      328.857      215.356        1.341        0.044      160.976       12.071        0.006      346.858       25.403      862.790
07/08/2014  19:20:00     -102.849      -45.360        2.905       35.670       25.110       19.513     1272.375      630.497      380.760        0.746        0.114      112.407       19.860        0.031      346.899       25.477      862.800
07/08/2014  19:21:00      -52.235      -39.152        2.486       38.966       33.861       25.430     1518.342     1146.576      646.676        0.379        0.166       65.279       25.696        0.155      346.977       25.612      862.813
07/08/2014  19:22:00      -94.786       14.697      -12.066       19.272       18.351       11.936      371.419      336.756      142.461        0.510        0.043       95.919        7.977        0.007      346.947       25.562      862.826
07/08/2014  19:23:00      -71.682       12.031       -3.865       34.036       25.138       16.725     1158.416      631.929      279.723        0.368        0.104       72.685       14.677        0.041      346.969       25.599      862.837
07/08/2014  19:24:00      -73.727       -7.673       -5.944       35.339       20.357       17.961     1248.832      414.398      322.587        0.376        0.099       74.125       17.655        0.057      346.972       25.604      862.847
07/08/2014  19:25:00      -87.356        1.749      -14.797       19.702       16.245       10.618      388.176      263.903      112.743        0.431        0.038       87.373        6.973        0.006      346.904       25.488      862.851
07/08/2014  19:26:00      -21.699       -9.361       -1.720       30.616       20.720       10.984      937.348      429.325      120.641        0.102        0.074       23.633       11.754        0.247      346.922       25.516      862.846
07/08/2014  19:27:00      -67.054       -6.944       -6.366       36.389       30.728       23.781     1324.175      944.201      565.547        0.371        0.142       67.413       25.463        0.143      346.989       25.633      862.849
07/08/2014  19:28:00     -130.985      105.146      -28.939       33.258       56.318       27.650     1106.070     3171.727      764.503        1.705        0.252      167.966       24.444        0.021      346.934       25.538      862.856
07/08/2014  19:29:00      -75.523      244.604      -42.961       65.363       53.594       30.648     4272.294     2872.276      939.289        3.773        0.404      255.997       19.907        0.006      346.900       25.472      862.869
07/08/2014  19:30:00      -62.350      209.747      -27.758       36.396       68.377       24.885     1324.701     4675.387      619.277        2.763        0.331      218.819       29.066        0.018      346.891       25.463      862.863
07/08/2014  19:31:00      -95.286       85.364      -14.598       38.299       42.954       25.026     1466.841     1845.014      626.298        1.026        0.197      127.931       15.037        0.014      346.907       25.492      862.856
07/08/2014  19:32:00      -79.097      148.793      -28.692       98.881       78.836       43.266     9777.512     6215.143     1871.911        2.354        0.893      168.511       51.585        0.094      346.819       25.338      862.848
07/08/2014  19:33:00        5.916       87.721       -5.780       50.401       54.710       33.249     2540.216     2993.133     1105.510        0.720        0.332       87.921       32.316        0.135      346.797       25.304      862.837
07/08/2014  19:34:00      -14.304      160.233      -21.152       66.928       84.447       28.028     4479.375     7131.289      785.588        1.936        0.620      160.870       40.153        0.062      346.750       25.219      862.834
07/08/2014  19:35:00      -28.495      123.741       -1.381       28.359       65.222       41.559      804.239     4253.867     1727.144        1.145        0.339      126.980       42.029        0.110      346.798       25.307      862.834
07/08/2014  19:36:00      -44.945      175.725        0.860       54.880      102.362       47.361     3011.860    10477.972     2243.048        2.431        0.787      181.382       53.485        0.087      346.741       25.203      862.830
07/08/2014  19:37:00      -86.317      100.572      -10.024       71.261       62.067       39.181     5078.104     3852.334     1535.118        1.406        0.523      132.534       45.847        0.120      346.717       25.166      862.809
07/08/2014  19:38:00      -75.377      102.224       -7.876       55.910       59.667       33.535     3125.908     3560.185     1124.578        1.200        0.391      127.009       32.371        0.065      346.720       25.169      862.785
07/08/2014  19:39:00     -100.591      203.507      -20.264       57.512       81.240       49.523     3307.636     6599.958     2452.557        3.215        0.618      227.010       46.425        0.042      346.675       25.090      862.771
07/08/2014  19:40:00      -70.611      162.081      -21.858       55.239       76.219       34.780     3051.355     5809.277     1209.661        2.090        0.504      176.795       39.955        0.051      346.651       25.049      862.748
07/08/2014  19:41:00     -131.161      226.799      -19.112       61.308       82.553       50.274     3758.726     6814.987     2527.482        4.105        0.655      261.994       41.571        0.025      346.623       24.999      862.717
07/08/2014  19:42:00     -104.412      144.789      -35.016       59.374       81.570       39.960     3525.324     6653.618     1596.782        2.243        0.589      178.510       46.723        0.069      346.648       25.042      862.692
07/08/2014  19:43:00     -140.519      140.690      -18.454       74.726       78.881       43.003     5584.020     6222.163     1849.286        2.677        0.683      198.845       37.164        0.035      346.661       25.065      862.665
07/08/2014  19:44:00     -141.080      180.138      -34.641       61.360       69.139       49.121     3765.002     4780.225     2412.907        3.225        0.548      228.809       43.129        0.036      346.662       25.067      862.634
07/08/2014  19:45:00      -80.951      139.626       -7.972       51.411       66.892       33.351     2643.066     4474.473     1112.265        1.717        0.411      161.395       33.481        0.043      346.686       25.110      862.627
07/08/2014  19:46:00      -92.571      144.117      -17.632       43.154       75.772       36.801     1862.308     5741.332     1354.347        1.930        0.448      171.287       35.480        0.043      346.690       25.116      862.611
07/08/2014  19:47:00     -102.199       69.934      -12.639       41.301       51.159       26.794     1705.749     2617.231      717.942        1.027        0.252      123.837       25.806        0.043      346.753       25.227      862.591
07/08/2014  19:48:00     -123.823      121.302      -23.076       66.015       62.457       36.794     4358.037     3900.834     1353.796        2.009        0.481      173.338       30.447        0.031      346.696       25.127      862.584
07/08/2014  19:49:00      -50.062      115.556       -6.201       43.679       61.194       25.320     1907.869     3744.757      641.084        1.109        0.315      125.934       21.070        0.028      346.674       25.092      862.579
07/08/2014  19:50:00      -63.224       81.924       -5.471       46.897       72.933       27.298     2199.284     5319.151      745.192        0.950        0.413      103.483       31.847        0.095      346.705       25.144      862.566
07/08/2014  19:51:00      -74.636       65.221      -10.417       36.415       43.150       26.069     1326.053     1861.910      679.584        0.690        0.193       99.118       18.510        0.035      346.737       25.199      862.562
07/08/2014  19:52:00      -33.890      -13.126       11.929       60.201       54.949       30.830     3624.149     3019.366      950.485        0.453        0.380       36.343       39.326        1.171      346.791       25.293      862.581
07/08/2014  19:53:00      -52.219      -30.410        4.789       76.824       39.495       17.661     5901.988     1559.829      311.923        0.572        0.389       60.429       25.313        0.175      346.848       25.392      862.590
07/08/2014  19:54:00     -146.018      -56.779       -6.975       58.334       44.001       23.763     3402.893     1936.111      564.699        1.525        0.295      156.669       23.258        0.022      346.746       25.215      862.592
07/08/2014  19:55:00     -134.396      -19.279       -6.718       29.971       27.076       20.571      898.239      733.118      423.147        1.027        0.103      135.771       18.425        0.018      346.672       25.090      862.606
07/08/2014  19:56:00      -91.273      -37.943       -6.670       33.726       28.974       22.966     1137.412      839.510      527.455        0.616        0.125       98.846       20.454        0.043      346.626       25.010      862.603
07/08/2014  19:57:00      -59.103       -9.581       -6.644       34.617       30.507       18.633     1198.304      930.696      347.191        0.305        0.124       59.875       13.684        0.052      346.659       25.064      862.594
07/08/2014  19:58:00      -87.343      -21.042       -8.322       18.690       19.248       13.845      349.312      370.488      191.691        0.453        0.046       89.842        9.254        0.011      346.733       25.192      862.605
07/08/2014  19:59:00     -119.691       16.236      -18.023       23.023       25.126       13.927      530.070      631.331      193.957        0.813        0.068      120.787       13.025        0.012      346.718       25.165      862.604
07/08/2014  20:00:00     -100.134       41.104       -6.109       31.109       22.451       17.697      967.768      504.035      313.183        0.677        0.089      108.242       13.253        0.015      346.758       25.236      862.603
07/08/2014  20:01:00      -30.997       22.986        1.403       22.073       13.717       14.327      487.233      188.160      205.262        0.119        0.044       38.590        6.736        0.030      346.709       25.150      862.602
07/08/2014  20:02:00      -37.722        7.949        0.401       10.475       12.673        5.794      109.733      160.603       33.570        0.090        0.015       38.551        4.710        0.015      346.934       25.541      862.602
07/08/2014  20:03:00      -17.950      -30.268      -10.422       21.729       20.470       10.982      472.155      419.038      120.595        0.118        0.051       35.190        5.032        0.020      347.041       25.723      862.603
07/08/2014  20:04:00       15.682      -50.611        2.474       20.586       13.353       10.026      423.794      178.301      100.512        0.176        0.035       52.985        2.548        0.002      346.912       25.499      862.601
07/08/2014  20:05:00       52.302      -37.392        2.259       20.390       32.974       14.582      415.739     1087.307      212.631        0.293        0.086       64.293       13.670        0.045      346.858       25.406      862.606
07/08/2014  20:06:00       30.763      -16.036       11.196       18.690       22.489       17.559      349.333      505.778      308.334        0.125        0.058       34.691       13.238        0.146      346.887       25.458      862.602
07/08/2014  20:07:00       24.505      -36.823       -3.086       13.634       21.760       15.142      185.880      473.485      229.272        0.143        0.044       44.232        9.931        0.050      346.911       25.498      862.599
07/08/2014  20:08:00       25.063      -36.112       -8.944       17.992       22.435       19.799      323.714      503.338      391.995        0.162        0.061       43.957       15.149        0.119      346.935       25.541      862.599
07/08/2014  20:09:00       40.820      -61.859       -6.395       45.480       47.835       29.889     2068.445     2288.215      893.347        0.539        0.263       74.113       24.911        0.113      346.824       25.350      862.587
07/08/2014  20:10:00       28.055      -77.963        3.293       29.502       35.114       26.313      870.351     1233.024      692.368        0.484        0.140       82.857       18.090        0.048      346.760       25.240      862.584
07/08/2014  20:11:00       23.771      -38.833        2.081       30.100       26.656       21.679      906.004      710.535      469.989        0.208        0.104       45.531       16.516        0.132      346.806       25.318      862.600
07/08/2014  20:12:00       35.878     -100.820        5.911       42.011       51.897       36.060     1764.926     2693.306     1300.343        0.862        0.288      107.013       24.780        0.054      346.870       25.428      862.594
07/08/2014  20:13:00       40.289      -89.259       -0.743       33.317       41.092       42.176     1110.033     1688.591     1778.842        0.708        0.229       97.931       31.754        0.105      346.851       25.396      862.599
07/08/2014  20:14:00       21.406      -55.214        1.431       30.969       42.934       28.460      959.080     1843.352      809.961        0.356        0.181       59.218       12.153        0.042      346.878       25.442      862.614
07/08/2014  20:15:00       -9.674      -21.383       15.812       26.631       40.210       28.966      709.220     1616.858      839.048        0.198        0.158       23.470       12.668        0.291      346.873       25.432      862.630
07/08/2014  20:16:00      -15.683      -28.591       19.901       17.731       45.665       20.678      314.382     2085.261      427.567        0.214        0.141       32.610       10.899        0.112      346.841       25.378      862.636
07/08/2014  20:17:00       83.845       47.442       12.964       50.066       33.611       19.316     2506.566     1129.724      373.118        0.673        0.200       96.336        9.797        0.010      346.714       25.162      862.635
07/08/2014  20:18:00       98.970       50.454       20.800       29.643       30.490       24.238      878.696      929.644      587.484        0.758        0.120      111.089        7.755        0.005      346.670       25.084      862.620
07/08/2014  20:19:00      111.909       58.262       14.653       21.679       22.126       21.933      469.993      489.580      481.060        0.879        0.072      126.167        9.569        0.006      346.671       25.086      862.603
07/08/2014  20:20:00       96.173       59.703       24.216       26.164       16.669       22.973      684.562      277.870      527.781        0.744        0.075      113.197       12.549        0.012      346.611       24.985      862.577
07/08/2014  20:21:00       91.128       60.863       26.640       23.823       16.564       24.411      567.537      274.369      595.914        0.708        0.072      109.584       16.143        0.022      346.624       25.007      862.564
07/08/2014  20:22:00       83.787       61.614       40.508       38.095       26.762       29.396     1451.196      716.211      864.126        0.774        0.152      104.002       18.310        0.031      346.645       25.040      862.551
07/08/2014  20:23:00       81.709       67.559       36.420       27.147       16.670       20.595      736.952      277.901      424.157        0.700        0.072      106.022       13.068        0.015      346.628       25.012      862.533
07/08/2014  20:24:00       88.453       57.127       32.581       27.449       20.579       21.964      753.462      423.498      482.401        0.690        0.083      105.297       16.229        0.024      346.631       25.017      862.534
07/08/2014  20:25:00       81.842       63.163       45.203       21.477       16.503       22.262      461.240      272.356      495.587        0.698        0.061      103.381       13.481        0.017      346.644       25.039      862.524
07/08/2014  20:26:00       95.870       65.951       39.430       24.195       16.532       18.918      585.385      273.321      357.901        0.816        0.061      116.363       10.244        0.008      346.640       25.034      862.524
07/08/2014  20:27:00       94.843       71.674       42.828       31.947       17.064       23.036     1020.611      291.192      530.646        0.890        0.092      118.880       16.752        0.020      346.643       25.040      862.521
07/08/2014  20:28:00       97.992       74.255       50.514       26.025       22.363       23.688      677.320      500.115      561.110        0.970        0.087      122.949       13.245        0.012      346.679       25.099      862.508
07/08/2014  20:29:00      103.394       64.705       40.930       39.860       28.175       30.067     1588.849      793.842      903.998        0.992        0.164      121.971       23.510        0.037      346.651       25.052      862.506
07/08/2014  20:30:00       99.810       79.150       52.629       48.277       29.589       37.398     2330.624      875.531     1398.591        1.180        0.230      127.384       32.677        0.066      346.571       24.914      862.512
07/08/2014  20:31:00      126.244       95.334       50.784       63.783       38.190       47.004     4068.323     1458.458     2209.411        1.767        0.387      158.196       46.126        0.085      346.523       24.829      862.515
07/08/2014  20:32:00      159.551       76.693        8.615       45.646       37.477       29.815     2083.552     1404.543      888.925        1.789        0.219      177.026       21.767        0.015      346.459       24.720      862.523
07/08/2014  20:33:00      179.052       93.150       21.982       57.987       48.972       44.800     3362.544     2398.245     2007.017        2.449        0.388      201.833       25.674        0.016      346.431       24.671      862.524
07/08/2014  20:34:00      117.163       30.119        8.619       71.091       52.476       35.518     5053.944     2753.767     1261.524        1.189        0.453      120.972       26.474        0.048      346.400       24.620      862.519
07/08/2014  20:35:00      118.736       65.006        6.724       63.638       43.399       33.338     4049.835     1883.483     1111.411        1.271        0.352      135.366       30.960        0.052      346.345       24.527      862.517
07/08/2014  20:36:00      147.108       96.235       31.730       36.588       34.921       33.974     1338.708     1219.465     1154.263        1.781        0.186      175.789       17.957        0.010      346.328       24.495      862.505
07/08/2014  20:37:00      154.183      110.404       32.927       53.923       30.474       29.435     2907.648      928.636      866.402        2.087        0.235      189.635       26.817        0.020      346.322       24.482      862.493
07/08/2014  20:38:00      135.289       85.282       17.859       35.438       37.071       33.597     1255.853     1374.294     1128.789        1.483        0.188      159.925       26.134        0.027      346.353       24.542      862.488
07/08/2014  20:39:00      125.192       76.161        4.209       46.875       33.204       29.288     2197.260     1102.504      857.781        1.282        0.208      146.539       19.133        0.017      346.361       24.553      862.475
07/08/2014  20:40:00      120.023       83.895        9.027       34.154       32.893       33.814     1166.465     1081.962     1143.400        1.246        0.170      146.437       11.252        0.006      346.350       24.535      862.473
07/08/2014  20:41:00      124.074       81.562        9.349       38.613       28.877       20.290     1490.967      833.864      411.689        1.243        0.137      148.482        8.008        0.003      346.331       24.500      862.477
07/08/2014  20:42:00      104.612       66.305        1.640       36.972       26.634       25.343     1366.942      709.376      642.252        0.903        0.136      123.855       14.157        0.013      346.328       24.495      862.483
07/08/2014  20:43:00       91.849       52.584       10.511       23.612       17.453       21.689      557.506      304.591      470.401        0.632        0.067      105.837       10.642        0.010      346.303       24.451      862.499
07/08/2014  20:44:00       46.882       25.035       15.502       25.337       21.258       20.316      641.976      451.899      412.759        0.229        0.075       53.147       13.320        0.063      346.329       24.498      862.503
07/08/2014  20:45:00       73.469       48.708        9.274       29.210       20.676       21.744      853.200      427.511      472.794        0.480        0.088       88.148       18.001        0.042      346.345       24.529      862.509
07/08/2014  20:46:00       68.952       49.910        7.832       28.317       18.385       22.974      801.832      338.019      527.788        0.449        0.083       85.120       15.877        0.035      346.363       24.558      862.503
07/08/2014  20:47:00       32.057       18.134        2.722       30.382       18.479       11.948      923.046      341.477      142.749        0.139        0.070       36.831        7.373        0.040      346.347       24.530      862.507
07/08/2014  20:48:00       -2.466       25.157       -0.869       15.080       15.671       10.416      227.415      245.576      108.497        0.061        0.029       25.277        6.276        0.062      346.353       24.544      862.504
07/08/2014  20:49:00       21.091       40.033       -7.723       14.308       14.157        9.165      204.733      200.419       83.993        0.130        0.024       45.249        9.561        0.045      346.343       24.528      862.509
07/08/2014  20:50:00       20.925       16.414        3.556       15.809       16.637       15.827      249.930      276.773      250.488        0.075        0.039       26.595       13.898        0.273      346.378       24.587      862.514
07/08/2014  20:51:00        5.461       10.591       10.068        7.716       14.705       11.665       59.535      216.249      136.073        0.033        0.021       11.916       11.485        0.929      346.407       24.634      862.504
07/08/2014  20:52:00       16.105       34.995       -3.363        9.024       22.343        8.934       81.425      499.216       79.817        0.108        0.033       38.523        5.217        0.018      346.376       24.580      862.500
07/08/2014  20:53:00       20.485       76.534       -8.712       13.072       15.554       10.057      170.878      241.916      101.149        0.343        0.026       79.229        6.236        0.006      346.415       24.647      862.491
07/08/2014  20:54:00       44.738       41.561       -5.727       17.492       20.670       12.743      305.976      427.242      162.396        0.233        0.045       61.064       10.581        0.030      346.429       24.669      862.474
07/08/2014  20:55:00       28.803       47.909        4.098       22.337       20.784       19.985      498.926      431.993      399.402        0.224        0.067       55.900       14.303        0.065      346.459       24.722      862.462
07/08/2014  20:56:00       22.208       16.490       18.280       18.894       13.796       12.495      356.996      190.318      156.135        0.090        0.035       27.661       11.827        0.183      346.475       24.748      862.455
07/08/2014  20:57:00        7.384       10.288        5.158        7.970       15.035        9.529       63.527      226.050       90.799        0.028        0.019       12.664        6.882        0.295      346.489       24.773      862.461
07/08/2014  20:58:00       21.998      -52.420       -4.470       26.732       24.883       15.808      714.596      619.141      249.883        0.242        0.079       56.848       15.639        0.076      346.582       24.933      862.468
07/08/2014  20:59:00       51.327      -74.781      -19.130       28.925       25.352       19.310      836.653      642.743      372.878        0.522        0.093       90.701       13.629        0.023      346.526       24.839      862.479
07/08/2014  21:00:00       70.862     -103.195      -24.228       61.372       43.672       25.710     3766.564     1907.272      661.005        1.130        0.317      125.182       31.046        0.062      346.481       24.760      862.495
07/08/2014  21:01:00      141.990     -142.124      -27.775       27.990       30.289       22.816      783.433      917.440      520.592        2.168        0.111      200.899       12.507        0.004      346.405       24.627      862.513
07/08/2014  21:02:00      123.638     -146.291      -20.846       62.862       84.492       46.893     3951.672     7138.837     2198.961        2.520        0.664      191.540       47.962        0.063      346.437       24.682      862.521
07/08/2014  21:03:00      172.050     -199.739      -34.837       58.248       82.629       38.143     3392.838     6827.574     1454.865        4.119        0.584      263.623       36.352        0.019      346.368       24.562      862.559
07/08/2014  21:04:00      104.334     -109.963      -10.230       75.036       87.489       40.864     5630.421     7654.351     1669.852        1.902        0.748      151.583       47.839        0.100      346.382       24.587      862.582
07/08/2014  21:05:00       86.322      -83.355       24.089       67.280       92.527       54.718     4526.628     8561.203     2994.063        1.553        0.804      119.998       53.520        0.199      346.354       24.539      862.612
07/08/2014  21:06:00       72.471       -0.282       56.407       76.571       93.625       57.166     5863.052     8765.664     3267.913        1.316        0.895       72.471       58.385        0.649      346.260       24.379      862.656
07/08/2014  21:07:00       29.820        6.388       54.491       57.689       82.552       44.078     3327.977     6814.844     1942.909        0.799        0.604       30.497       40.117        1.730      346.256       24.374      862.685
07/08/2014  21:08:00        1.454       41.755       59.267       38.354       59.708       34.688     1470.992     3565.014     1203.223        0.575        0.312       41.781       30.648        0.538      346.255       24.371      862.718
07/08/2014  21:09:00       44.054      -22.115       19.793       55.875       65.257       43.066     3122.007     4258.526     1854.683        0.603        0.462       49.293       33.839        0.471      346.203       24.281      862.734
07/08/2014  21:10:00      -12.511       -5.047       23.817       30.208       33.528       31.348      912.542     1124.105      982.674        0.188        0.151       13.491       23.288        2.980      346.216       24.304      862.750
07/08/2014  21:11:00        1.584      -44.730       22.558       36.417       37.257       38.355     1326.223     1388.051     1471.078        0.335        0.209       44.758       21.059        0.221      346.208       24.289      862.753
07/08/2014  21:12:00       35.607       39.591       34.721       45.886       40.110       33.745     2105.511     1608.829     1138.749        0.445        0.243       53.248       21.985        0.170      346.182       24.246      862.776
07/08/2014  21:13:00       25.504       31.774       30.742       43.873       36.978       32.802     1924.813     1367.409     1075.999        0.349        0.218       40.743       30.810        0.572      346.162       24.212      862.785
07/08/2014  21:14:00       16.702      -65.082       -1.510       33.188       54.899       24.255     1101.411     3013.853      588.308        0.461        0.235       67.191       18.161        0.073      346.173       24.230      862.797
07/08/2014  21:15:00       44.717     -120.765        0.169       29.278       31.565       19.864      857.229      996.334      394.571        0.942        0.112      128.778       12.962        0.010      346.146       24.183      862.802
07/08/2014  21:16:00       55.369     -116.958       -7.503       24.747       20.817       16.426      612.404      433.349      269.802        0.906        0.066      129.402       13.044        0.010      346.103       24.110      862.809
07/08/2014  21:17:00       72.002     -120.883       -9.092       29.284       20.520       21.717      857.581      421.055      471.635        1.081        0.088      140.701       15.415        0.012      346.118       24.136      862.804
07/08/2014  21:18:00       74.877     -119.583      -14.819       34.932       21.254       19.138     1220.252      451.734      366.253        1.108        0.102      141.091       18.412        0.017      346.139       24.172      862.802
07/08/2014  21:19:00       68.005     -120.847      -22.195       31.629       22.142       23.112     1000.425      490.285      534.186        1.087        0.101      138.668       21.937        0.025      346.228       24.324      862.796
07/08/2014  21:20:00       42.243     -118.091      -20.025       40.672       43.851       32.356     1654.232     1922.903     1046.903        1.038        0.231      125.419       27.723        0.049      346.286       24.424      862.783
07/08/2014  21:21:00       39.588      -85.029       -2.169       41.692       45.718       35.076     1738.259     2090.150     1230.314        0.693        0.253       93.793       29.380        0.098      346.270       24.396      862.789
07/08/2014  21:22:00       54.058      -79.108       -3.029       44.604       36.871       28.473     1989.499     1359.436      810.739        0.667        0.208       95.814       21.166        0.049      346.252       24.366      862.789
07/08/2014  21:23:00       66.481     -112.025        8.851       48.412       45.567       31.506     2343.723     2076.314      992.618        1.123        0.271      130.267       25.501        0.038      346.131       24.156      862.803
07/08/2014  21:24:00       52.873      -96.798       14.203       46.472       63.194       32.397     2159.629     3993.427     1049.571        0.978        0.360      110.297       36.110        0.107      346.095       24.096      862.798
07/08/2014  21:25:00       70.526     -138.840      -18.598       45.832       44.669       25.465     2100.567     1995.334      648.469        1.467        0.237      155.726       15.672        0.010      346.058       24.032      862.814
07/08/2014  21:26:00       31.604      -11.014       33.873       35.416       40.615       24.672     1254.328     1649.568      608.688        0.289        0.176       33.468       27.494        0.675      346.133       24.160      862.818
07/08/2014  21:27:00       59.817      -51.664       17.084       26.045       31.525       20.701      678.317      993.855      428.512        0.432        0.105       79.040       18.181        0.053      346.085       24.080      862.823
07/08/2014  21:28:00       50.444      -25.934       23.206       49.460       60.145       35.194     2446.256     3617.366     1238.621        0.553        0.365       56.720       48.077        0.718      346.110       24.122      862.812
07/08/2014  21:29:00        0.540       18.277       40.466       22.388       28.521       19.138      501.230      813.430      366.281        0.183        0.084       18.285       19.831        1.176      346.144       24.178      862.811
07/08/2014  21:30:00       14.882        0.169       25.812       16.950       17.477       13.017      287.314      305.432      169.453        0.082        0.038       14.883        9.205        0.383      346.152       24.192      862.811
07/08/2014  21:31:00       -4.662       17.759       33.299       21.605       22.538       18.955      466.792      507.970      359.292        0.139        0.067       18.361       17.330        0.891      346.168       24.220      862.819
07/08/2014  21:32:00       -5.693        7.967       14.012       16.470       15.014       15.848      271.259      225.413      251.152        0.052        0.037        9.792       13.794        1.984      346.207       24.290      862.851
07/08/2014  21:33:00        2.190      -55.241        3.599       37.399       39.573       20.060     1398.676     1566.059      402.422        0.322        0.168       55.285       14.959        0.073      346.206       24.287      862.870
07/08/2014  21:34:00       33.447      -86.890       -8.854       26.786       27.861       21.933      717.482      776.240      481.046        0.536        0.099       93.105       14.592        0.025      346.332       24.504      862.887
07/08/2014  21:35:00        0.658      -40.140       -4.091       30.607       44.220       29.940      936.772     1955.397      896.395        0.271        0.189       40.145       23.954        0.356      346.206       24.289      862.911
07/08/2014  21:36:00       22.647      -73.686        7.917       19.233       31.585       28.620      369.923      997.600      819.106        0.410        0.109       77.087       11.252        0.021      346.156       24.200      862.927
07/08/2014  21:37:00        4.958      -19.746       54.031       21.948       45.462       19.476      481.719     2066.823      379.333        0.313        0.146       20.359       15.415        0.573      346.178       24.240      862.930
07/08/2014  21:38:00      109.234     -121.618      -10.868       44.673       45.252       29.638     1995.656     2047.773      878.385        1.588        0.246      163.472       29.721        0.033      346.072       24.056      862.948
07/08/2014  21:39:00       61.967      -83.214        6.181       37.699       45.128       30.306     1421.240     2036.578      918.438        0.759        0.219      103.752       30.464        0.086      346.094       24.095      862.960
07/08/2014  21:40:00       49.012      -46.307       24.508       39.397       42.900       26.922     1552.113     1840.385      724.808        0.463        0.206       67.428       27.308        0.164      346.125       24.149      862.967
07/08/2014  21:41:00       46.038      -69.622       14.302       30.669       55.652       25.225      940.574     3097.126      636.284        0.592        0.234       83.467       31.570        0.143      346.170       24.224      862.959
07/08/2014  21:42:00       71.664     -123.595       -0.920       32.557       27.775       21.081     1059.943      771.447      444.419        1.134        0.114      142.868       19.447        0.019      346.160       24.208      862.931
07/08/2014  21:43:00       40.555      -70.901        7.278       29.526       47.239       25.576      871.798     2231.476      654.149        0.524        0.188       81.680       23.197        0.081      346.180       24.241      862.913
07/08/2014  21:44:00      -20.235       23.157       10.944       29.362       24.751       27.131      862.144      612.600      736.113        0.164        0.111       30.752       17.466        0.323      346.131       24.156      862.925
07/08/2014  21:45:00       -4.515       26.868        1.841       25.589       25.104       27.470      654.772      630.203      754.595        0.139        0.102       27.244       11.940        0.192      346.129       24.153      862.936
07/08/2014  21:46:00       32.090      -13.953       18.940       31.663       20.978       15.723     1002.553      440.056      247.215        0.164        0.084       34.992       15.780        0.203      346.158       24.205      862.930
07/08/2014  21:47:00        3.510      -27.226       15.209       18.860       27.861       24.991      355.685      776.217      624.549        0.137        0.088       27.451       14.075        0.263      346.244       24.353      862.935
07/08/2014  21:48:00       17.134      -64.501       12.053       28.406       45.562       27.040      806.917     2075.852      731.153        0.411        0.181       66.738       20.150        0.091      346.316       24.477      862.939
07/08/2014  21:49:00       -1.610      -22.407       29.459       20.554       40.543       24.103      422.465     1643.757      580.968        0.201        0.132       22.465        5.859        0.068      346.239       24.343      862.947
07/08/2014  21:50:00        0.419      -15.206       35.154       16.375       32.105       16.629      268.131     1030.755      276.531        0.152        0.079       15.212       13.152        0.747      346.256       24.373      862.950
07/08/2014  21:51:00       29.155      -48.249        0.132       15.637       23.045       20.550      244.530      531.056      422.298        0.219        0.060       56.374        9.372        0.028      346.142       24.175      862.967
07/08/2014  21:52:00       21.894       -9.259       17.202       20.871       21.667       17.570      435.587      469.479      308.717        0.104        0.061       23.771       15.961        0.451      346.175       24.233      862.974
07/08/2014  21:53:00        9.573       -5.742       11.742       21.449       21.372       15.599      460.055      456.783      243.343        0.071        0.058       11.163       16.379        2.153      346.188       24.258      862.975
07/08/2014  21:54:00       71.489       55.106       38.552       27.916       24.960       20.074      779.326      622.983      402.975        0.572        0.090       90.263       14.682        0.026      346.090       24.089      862.977
07/08/2014  21:55:00       37.942       30.511        5.134       19.208       19.813       18.671      368.962      392.555      348.616        0.175        0.056       48.688       11.184        0.053      346.064       24.041      862.984
07/08/2014  21:56:00       22.853       22.349        5.934       18.548       24.289       10.805      344.016      589.949      116.751        0.105        0.053       31.964        3.991        0.016      346.052       24.022      863.002
07/08/2014  21:57:00      -21.696       17.385       -3.379       18.718       10.053        5.029      350.356      101.073       25.290        0.063        0.024       27.802        6.190        0.050      346.032       23.985      862.997
07/08/2014  21:58:00      -60.723        6.084       -1.178       16.206       12.285        9.721      262.639      150.912       94.491        0.212        0.025       61.027        5.749        0.009      346.067       24.049      862.983
07/08/2014  21:59:00      -72.058       14.746        0.076        8.571       10.960        8.150       73.459      120.131       66.419        0.283        0.013       73.551        5.927        0.006      346.068       24.050      862.976
07/08/2014  22:00:00      -71.313       -1.192       -6.639       19.009       16.167       10.298      361.332      261.373      106.043        0.293        0.036       71.323        7.070        0.010      346.055       24.026      862.978
07/08/2014  22:01:00      -64.920      -28.189       -6.809       29.449       12.789       14.097      867.264      163.560      198.738        0.314        0.061       70.776       13.740        0.038      346.078       24.066      862.978
07/08/2014  22:02:00       -9.352      -20.260       -0.365       23.277       19.181       16.088      541.831      367.917      258.832        0.083        0.058       22.314        3.794        0.029      346.109       24.119      862.979
07/08/2014  22:03:00      -12.357       -5.332        8.182       23.740       12.828       10.933      563.568      164.555      119.520        0.055        0.042       13.458       14.013        1.084      346.132       24.160      862.992
07/08/2014  22:04:00      -36.609       -8.596       -1.376       12.730        7.600        7.273      162.052       57.753       52.899        0.084        0.014       37.604        7.194        0.037      346.132       24.157      863.004
07/08/2014  22:05:00       -7.340      -17.776        1.995       14.737        8.009        8.709      217.193       64.149       75.847        0.037        0.018       19.232        6.521        0.115      346.166       24.218      863.010
07/08/2014  22:06:00       -4.264       -6.409        3.734        8.478        9.464        8.120       71.880       89.569       65.932        0.015        0.011        7.698        7.699        1.000      346.230       24.328      863.018
07/08/2014  22:07:00       -6.865       13.647       -2.850        9.292       12.449        5.547       86.338      154.966       30.768        0.026        0.014       15.276        4.303        0.079      346.117       24.133      863.032
07/08/2014  22:08:00       13.402       25.230        2.059       10.500       10.548       13.700      110.248      111.260      187.689        0.061        0.020       28.569        7.570        0.070      346.015       23.959      863.046
07/08/2014  22:09:00       32.208       32.499       21.620       16.850       17.729       16.722      283.910      314.324      279.614        0.172        0.044       45.755        7.022        0.024      345.973       23.890      863.060
07/08/2014  22:10:00       37.531       36.534        6.412       16.087       15.206       12.197      258.782      231.214      148.764        0.171        0.032       52.377       10.606        0.041      345.973       23.887      863.057
07/08/2014  22:11:00       -1.823       19.311        0.724       20.821       28.599       12.716      433.522      817.894      161.686        0.089        0.071       19.397       15.999        0.680      345.989       23.913      863.065
07/08/2014  22:12:00      -43.389      -32.173       -2.957       22.279       12.243       11.206      496.343      149.902      125.573        0.185        0.039       54.016       11.633        0.046      346.039       23.999      863.067
07/08/2014  22:13:00      -78.601      -17.377       -0.546       31.984       26.850       14.342     1023.005      720.915      205.698        0.421        0.097       80.499        9.727        0.015      346.102       24.106      863.071
07/08/2014  22:14:00     -110.029      -25.614       -3.603       25.158       31.629       15.944      632.934     1000.374      254.196        0.733        0.094      112.971       13.710        0.015      346.026       23.978      863.085
07/08/2014  22:15:00     -103.799      -35.389        1.053       31.572       36.776       23.214      996.798     1352.499      538.899        0.746        0.144      109.666       20.343        0.034      346.025       23.976      863.090
07/08/2014  22:16:00      -89.471      -10.838        5.634       42.891       24.469       18.541     1839.669      598.716      343.755        0.547        0.139       90.125       19.251        0.046      345.999       23.932      863.107
07/08/2014  22:17:00      -80.916        1.663       -2.410       38.271       33.117       22.163     1464.640     1096.740      491.216        0.480        0.153       80.933       24.215        0.090      345.968       23.878      863.124
07/08/2014  22:18:00     -122.770      -19.372       -6.623       27.992       34.088       18.285      783.563     1162.019      334.339        0.889        0.114      124.289       16.494        0.018      345.918       23.793      863.138
07/08/2014  22:19:00     -122.432      -48.680       -7.892       31.194       28.349       17.132      973.082      803.688      293.502        0.975        0.104      131.755       17.168        0.017      345.941       23.831      863.152
07/08/2014  22:20:00      -62.251      -30.933        2.309       28.635       24.766       19.824      819.951      613.359      393.010        0.333        0.091       69.513       13.997        0.041      345.983       23.904      863.190
07/08/2014  22:21:00      -22.110        1.794        5.008       17.481       16.039       12.435      305.578      257.247      154.641        0.062        0.036       22.182       10.938        0.243      345.970       23.881      863.226
07/08/2014  22:22:00      -26.176       -2.363        5.856       24.423       15.887        9.336      596.466      252.391       87.155        0.083        0.047       26.283       10.387        0.156      345.919       23.794      863.258
07/08/2014  22:23:00      -45.721        9.621       -5.526       12.642       14.043        9.985      159.830      197.200       99.704        0.134        0.023       46.723        8.155        0.030      345.928       23.806      863.276
07/08/2014  22:24:00      -54.130        8.481       -5.811        8.457        8.809        7.252       71.519       77.598       52.594        0.162        0.010       54.791        6.227        0.013      345.966       23.870      863.290
07/08/2014  22:25:00      -41.383       -1.887       -6.105       13.450        6.488        6.271      180.915       42.098       39.331        0.101        0.013       41.426        4.871        0.014      346.015       23.958      863.298
07/08/2014  22:26:00      -57.343        7.326       -4.109       26.863       10.532        9.267      721.619      110.913       85.877        0.214        0.046       57.809        5.063        0.008      346.036       23.995      863.303
07/08/2014  22:27:00      -63.832      -10.770       -8.996       13.758       14.603        9.311      189.294      213.258       86.686        0.238        0.024       64.734        7.185        0.012      346.017       23.961      863.316
07/08/2014  22:28:00      -86.041      -38.117       -2.865       17.486       13.196       11.710      305.772      174.134      137.119        0.474        0.031       94.106        8.011        0.007      346.005       23.944      863.330
07/08/2014  22:29:00      -63.706      -29.941      -12.675       37.037       13.696        9.083     1371.714      187.570       82.506        0.338        0.082       70.391       10.443        0.022      346.035       23.993      863.333
07/08/2014  22:30:00      -47.013      -24.328       -8.530       25.589       13.712       14.148      654.791      188.030      200.168        0.196        0.052       52.935        7.294        0.019      346.032       23.987      863.331
07/08/2014  22:31:00      -39.852      -20.085       -5.150       22.221       13.391       13.412      493.753      179.308      179.869        0.144        0.043       44.627       15.193        0.116      346.029       23.984      863.331
07/08/2014  22:32:00       -8.922      -13.445       -1.616       23.580       23.424        7.780      556.025      548.686       60.524        0.071        0.058       16.136        8.328        0.266      346.037       23.995      863.332
07/08/2014  22:33:00      -15.289      -21.993        7.191       27.889       23.384       12.017      777.791      546.814      144.416        0.112        0.073       26.785       11.994        0.201      346.070       24.053      863.330
07/08/2014  22:34:00      -52.549      -39.471       -0.588       25.342       18.052       13.323      642.205      325.865      177.504        0.273        0.057       65.722       11.135        0.029      346.054       24.024      863.325
07/08/2014  22:35:00      -69.238      -47.641       -2.703       19.249       18.109       14.435      370.529      327.927      208.368        0.399        0.045       84.045        6.975        0.007      346.070       24.052      863.325
07/08/2014  22:36:00     -108.899      -41.474       -4.346       14.881       17.094       11.585      221.448      292.221      134.219        0.712        0.032      116.529        7.036        0.004      346.087       24.082      863.317
07/08/2014  22:37:00     -126.028      -44.826       -5.011       32.219       34.205       18.828     1038.060     1170.007      354.486        1.024        0.128      133.763       11.084        0.007      345.969       23.880      863.315
07/08/2014  22:38:00     -129.280      -39.170      -12.650       31.905       30.803       20.177     1017.947      948.837      407.101        1.039        0.119      135.084        9.947        0.005      345.927       23.808      863.303
07/08/2014  22:39:00     -125.042      -51.712        2.051       43.360       35.239       26.522     1880.125     1241.759      703.397        1.107        0.191      135.314       24.402        0.033      345.929       23.811      863.282
07/08/2014  22:40:00     -116.142      -31.890       -4.510       30.056       27.906       17.179      903.335      778.768      295.103        0.825        0.099      120.440       15.777        0.017      345.973       23.887      863.264
07/08/2014  22:41:00     -124.302       11.897       -5.497       33.679       23.493       17.654     1134.258      551.898      311.660        0.881        0.100      124.870       17.920        0.021      345.922       23.798      863.254
07/08/2014  22:42:00     -134.294       22.833      -13.807       18.306       23.149       13.785      335.111      535.880      190.014        0.990        0.053      136.221        6.795        0.002      345.853       23.682      863.242
07/08/2014  22:43:00     -120.780       -8.056      -13.134       22.877       24.035       15.154      523.336      577.684      229.645        0.808        0.067      121.049        9.168        0.006      345.862       23.695      863.230
07/08/2014  22:44:00     -105.930        0.094      -10.680       31.710       27.070       19.551     1005.539      732.776      382.240        0.673        0.106      105.930       17.645        0.028      345.856       23.683      863.211
07/08/2014  22:45:00     -106.756      -11.702       -3.312       31.508       26.839       21.570      992.747      720.350      465.245        0.686        0.109      107.395       21.181        0.039      345.877       23.722      863.189
07/08/2014  22:46:00      -73.079      -42.154       -2.705       27.851       30.564       18.627      775.676      934.129      346.951        0.459        0.103       84.365       14.859        0.031      345.944       23.838      863.179
07/08/2014  22:47:00      -72.300      -26.912       -2.085       41.447       29.716       19.635     1717.888      883.066      385.519        0.447        0.149       77.147       25.320        0.108      345.916       23.790      863.165
07/08/2014  22:48:00      -80.075      -16.784       -2.019       29.664       25.038       15.670      879.953      626.892      245.556        0.422        0.088       81.815       13.108        0.026      345.937       23.824      863.153
07/08/2014  22:49:00      -69.911      -25.391       -9.030       22.906       26.412       16.970      524.682      697.618      287.990        0.356        0.076       74.379        9.671        0.017      345.949       23.844      863.155
07/08/2014  22:50:00      -89.077      -48.467        1.833       40.373       29.549       17.340     1629.972      873.150      300.675        0.655        0.140      101.409       16.759        0.027      345.918       23.793      863.149
07/08/2014  22:51:00      -36.162      -46.981        0.609       41.108       40.275       24.159     1689.854     1622.102      583.656        0.370        0.195       59.287       23.597        0.158      345.909       23.778      863.148
07/08/2014  22:52:00      -61.110      -49.973       -1.343       30.999       28.790       21.428      960.911      828.839      459.161        0.424        0.112       78.941       19.467        0.061      345.923       23.802      863.148
07/08/2014  22:53:00      -85.164      -61.265       -2.796       20.807       26.286       15.751      432.924      690.959      248.101        0.619        0.069      104.911       12.441        0.014      345.972       23.885      863.151
07/08/2014  22:54:00      -67.381      -48.317       -4.473       34.437       39.308       21.511     1185.893     1545.127      462.712        0.504        0.160       82.915       21.782        0.069      345.965       23.873      863.154
07/08/2014  22:55:00      -45.134      -48.052        9.929       47.191       33.560       25.071     2226.969     1126.240      628.564        0.421        0.199       65.925       26.680        0.164      345.969       23.879      863.153
07/08/2014  22:56:00     -109.663      -98.456        1.057       68.050       41.958       31.225     4630.865     1760.513      975.014        1.454        0.368      147.375       39.447        0.072      345.980       23.898      863.145
07/08/2014  22:57:00     -103.029     -100.163       -4.497       55.037       39.249       22.661     3029.062     1540.447      513.514        1.287        0.254      143.692       14.575        0.010      345.953       23.853      863.143
07/08/2014  22:58:00      -96.584      -78.400      -15.304       30.233       38.646       20.733      914.006     1493.528      429.861        0.927        0.142      124.399       10.664        0.007      345.967       23.876      863.142
07/08/2014  22:59:00      -95.410      -45.978        0.696       32.616       24.530       18.855     1063.825      601.709      355.526        0.662        0.101      105.911       16.007        0.023      345.986       23.910      863.147
07/08/2014  23:00:00     -100.702      -19.079       -4.093       42.164       23.915       19.310     1777.844      571.931      372.860        0.662        0.136      102.493       15.471        0.023      345.975       23.891      863.150
07/08/2014  23:01:00     -106.995       -0.403       -3.331       35.859       28.237       16.839     1285.890      797.335      283.558        0.691        0.118      106.996       12.031        0.013      346.008       23.948      863.158
07/08/2014  23:02:00      -88.703      -38.906      -11.282       56.900       34.618       24.187     3237.555     1198.415      585.018        0.726        0.251       96.861       15.098        0.024      346.071       24.054      863.166
07/08/2014  23:03:00     -108.638      -33.449        1.691       48.406       44.915       21.744     2343.172     2017.384      472.788        0.888        0.242      113.671       21.708        0.036      346.036       23.994      863.171
07/08/2014  23:04:00      -48.622      -17.346        5.054       36.255       37.727       22.548     1314.403     1423.351      508.433        0.297        0.162       51.624       21.534        0.174      346.060       24.035      863.167
07/08/2014  23:05:00      -63.330      -46.080        6.798       39.461       45.958       21.375     1557.187     2112.148      456.884        0.515        0.206       78.320       21.312        0.074      346.058       24.032      863.170
07/08/2014  23:06:00      -95.053      -78.268       -3.248       26.402       59.561       21.776      697.057     3547.539      474.202        0.994        0.236      123.130       17.822        0.021      346.034       23.993      863.171
07/08/2014  23:07:00     -124.510      -92.120       -9.234       37.929       40.167       23.968     1438.600     1613.361      574.467        1.385        0.181      154.883       21.518        0.019      346.026       23.977      863.168
07/08/2014  23:08:00     -118.439      -76.011       -0.442       51.773       50.497       21.566     2680.446     2549.953      465.106        1.275        0.285      140.732       19.975        0.020      346.022       23.970      863.170
07/08/2014  23:09:00      -96.108      -57.028        0.142       52.542       31.320       27.939     2760.633      980.972      780.561        0.850        0.226      111.754       28.623        0.066      346.019       23.964      863.186
07/08/2014  23:10:00      -64.629      -47.097        2.043       47.732       26.242       20.439     2278.346      688.649      417.743        0.489        0.169       79.969       24.993        0.098      346.038       23.997      863.193
07/08/2014  23:11:00      -71.968      -43.057        1.163       28.684       23.696       14.633      822.785      561.518      214.117        0.432        0.080       83.865       11.972        0.020      346.051       24.019      863.196
07/08/2014  23:12:00      -48.100      -48.795        6.155       37.707       31.609       22.015     1421.837      999.154      484.670        0.382        0.145       68.516       23.341        0.116      346.071       24.054      863.200
07/08/2014  23:13:00      -52.402      -65.026        5.656       51.086       38.701       20.062     2609.774     1497.747      402.503        0.576        0.226       83.512       15.885        0.036      346.024       23.973      863.205
07/08/2014  23:14:00      -38.110      -98.112       -8.519       34.357       38.764       21.402     1180.403     1502.642      458.025        0.715        0.157      105.254       18.107        0.030      346.016       23.960      863.205
07/08/2014  23:15:00     -106.069      -78.548       -8.998       35.598       37.501       19.890     1267.210     1406.316      395.624        1.028        0.153      131.987       18.927        0.021      345.970       23.881      863.205
07/08/2014  23:16:00      -77.487      -53.369        6.150       53.639       42.322       23.139     2877.101     1791.113      535.418        0.705        0.260       94.088       30.542        0.105      345.987       23.910      863.221
07/08/2014  23:17:00     -128.943      -70.879       -8.863       39.322       35.003       20.151     1546.227     1225.200      406.065        1.245        0.159      147.140       16.872        0.013      345.968       23.876      863.223
07/08/2014  23:18:00      -89.996      -54.542       -6.809       56.862       34.945       23.003     3233.335     1221.129      529.158        0.805        0.249      105.234       29.970        0.081      345.961       23.867      863.226
07/08/2014  23:19:00      -44.504      -24.339        3.184       36.001       25.113       18.517     1296.094      630.654      342.872        0.243        0.113       50.724       19.823        0.153      345.998       23.931      863.221
07/08/2014  23:20:00      -19.083      -37.908        7.240       34.050       31.029       21.419     1159.431      962.796      458.764        0.222        0.129       42.440       21.028        0.245      346.023       23.972      863.221
07/08/2014  23:21:00      -64.499      -53.324       -0.015       42.726       27.334       18.681     1825.481      747.150      348.973        0.496        0.146       83.687       20.235        0.058      345.992       23.920      863.222
07/08/2014  23:22:00      -47.098      -46.364       -7.014       17.843       16.207       14.093      318.371      262.656      198.616        0.260        0.039       66.090        9.297        0.020      345.968       23.881      863.219
07/08/2014  23:23:00      -73.911      -20.239       -5.661       13.559       15.663        9.604      183.837      245.341       92.233        0.321        0.026       76.632        6.400        0.007      345.995       23.926      863.220
07/08/2014  23:24:00      -59.788      -13.349        0.774       23.118       19.701       16.156      534.435      388.134      261.018        0.247        0.059       61.260       14.618        0.057      345.980       23.900      863.230
07/08/2014  23:25:00      -47.861      -20.241       -3.251       15.715       13.528       10.025      246.950      183.014      100.509        0.162        0.027       51.965        3.646        0.005      346.002       23.938      863.231
07/08/2014  23:26:00      -28.215        4.503       -2.258       16.793       14.118        7.837      282.010      199.327       61.412        0.068        0.027       28.572        3.962        0.019      346.012       23.950      863.235
07/08/2014  23:27:00       -3.037        1.498        7.001        9.826        7.054        5.177       96.545       49.757       26.796        0.012        0.009        3.386        1.038        0.094      346.011       23.953      863.241
07/08/2014  23:28:00      -54.632       -4.308       -0.721       14.421       18.581       11.410      207.963      345.239      130.191        0.184        0.034       54.802        9.797        0.032      345.989       23.915      863.227
07/08/2014  23:29:00      -47.527      -35.302        1.678       29.192       20.083       10.601      852.149      403.339      112.384        0.244        0.068       59.204       11.330        0.037      346.001       23.936      863.208
07/08/2014  23:30:00      -46.750      -29.704       -2.584       15.025       16.011        8.857      225.761      256.347       78.438        0.182        0.028       55.388        8.889        0.026      345.998       23.931      863.181
07/08/2014  23:31:00      -45.055      -35.299       -2.507       20.580       15.375       11.294      423.533      236.402      127.548        0.203        0.039       57.236        5.775        0.010      345.975       23.891      863.156
07/08/2014  23:32:00      -40.131      -26.793        5.451       20.119       17.708       11.080      404.790      313.572      122.758        0.160        0.042       48.253       11.365        0.055      345.994       23.922      863.126
07/08/2014  23:33:00      -14.545      -13.391        8.066       17.632       19.014       12.856      310.905      361.524      165.271        0.065        0.042       19.770       10.764        0.296      345.981       23.901      863.115
07/08/2014  23:34:00      -68.964      -19.212        6.627       15.952       15.807       13.015      254.464      249.853      169.384        0.292        0.034       71.590       10.540        0.022      345.970       23.881      863.111
07/08/2014  23:35:00      -47.366      -17.835        4.926       27.709       19.662       14.730      767.783      386.605      216.962        0.198        0.069       50.613       14.769        0.085      345.966       23.874      863.105
07/08/2014  23:36:00      -40.921      -41.304        0.611       26.256       16.162       13.180      689.363      261.219      173.703        0.225        0.056       58.143       12.089        0.043      345.935       23.822      863.088
07/08/2014  23:37:00      -69.236      -55.392       -3.362       23.893       16.061       13.616      570.894      257.956      185.384        0.444        0.051       88.667        8.089        0.008      345.968       23.879      863.078
07/08/2014  23:38:00      -67.264      -51.445       -5.951       25.087       18.545       10.981      629.359      343.905      120.585        0.415        0.055       84.682        9.576        0.013      345.983       23.907      863.073
07/08/2014  23:39:00      -62.866      -21.759       -2.642       23.207       16.060       12.463      538.561      257.934      155.325        0.269        0.048       66.525        9.981        0.023      345.936       23.823      863.067
07/08/2014  23:40:00      -78.149        4.556       -6.576       24.584       11.064       10.320      604.363      122.420      106.499        0.350        0.042       78.281       11.127        0.020      345.865       23.701      863.073
07/08/2014  23:41:00      -48.076       -5.773       -3.240       34.355       20.127       16.426     1180.300      405.080      269.817        0.210        0.093       48.421       20.187        0.174      345.813       23.611      863.071
07/08/2014  23:42:00      -99.902       -1.549      -11.133       24.965       18.751       16.356      623.245      351.591      267.523        0.567        0.062       99.914       14.272        0.020      345.760       23.521      863.078
07/08/2014  23:43:00     -106.030      -14.411       -2.200       36.968       27.985       20.516     1366.655      783.136      420.897        0.701        0.129      107.005       19.384        0.033      345.733       23.473      863.078
07/08/2014  23:44:00     -115.737      -23.537       -1.332       35.067       25.097       23.424     1229.696      629.872      548.689        0.818        0.120      118.106       23.629        0.040      345.783       23.562      863.073
07/08/2014  23:45:00      -94.211      -25.243        1.843       45.894       45.130       22.391     2106.252     2036.754      501.362        0.708        0.232       97.534       26.879        0.076      345.732       23.472      863.071
07/08/2014  23:46:00     -107.249      -55.883        2.255       47.808       31.475       21.191     2285.577      990.692      449.075        0.918        0.186      120.935       22.190        0.034      345.766       23.533      863.056
07/08/2014  23:47:00     -111.500      -62.372        3.106       52.886       33.843       24.293     2796.886     1145.354      590.129        1.043        0.227      127.760       25.532        0.040      345.759       23.519      863.062
07/08/2014  23:48:00     -143.760      -52.991       -1.491       39.928       30.022       21.195     1594.271      901.333      449.240        1.321        0.147      153.216       20.420        0.018      345.730       23.471      863.052
07/08/2014  23:49:00      -89.335      -40.099        3.318       41.184       28.113       19.022     1696.118      790.342      361.829        0.622        0.142       97.922       14.410        0.022      345.713       23.440      863.055
07/08/2014  23:50:00      -78.817      -34.033        1.940       41.151       30.710       19.941     1693.443      943.114      397.632        0.520        0.152       85.851       20.612        0.058      345.747       23.499      863.063
07/08/2014  23:51:00      -92.456      -20.993        1.145       29.562       46.635       21.924      873.924     2174.817      480.673        0.626        0.176       94.809       19.219        0.041      345.764       23.529      863.073
07/08/2014  23:52:00      -63.491       -1.696       -1.317       41.857       19.397       20.027     1752.027      376.239      401.073        0.328        0.126       63.514       23.498        0.137      345.741       23.488      863.081
07/08/2014  23:53:00      -37.441      -26.811        1.045       23.345       18.485       15.765      545.008      341.709      248.527        0.163        0.057       46.051       12.896        0.078      345.791       23.575      863.081
07/08/2014  23:54:00      -34.584       -9.960        1.192       24.571        9.289       11.957      603.710       86.280      142.967        0.106        0.042       35.989        8.833        0.060      345.814       23.613      863.085
07/08/2014  23:55:00      -49.097        6.289       -7.197       10.432       11.149        9.374      108.818      124.300       87.877        0.141        0.016       49.498        6.624        0.018      345.852       23.672      863.077
07/08/2014  23:56:00       -4.859      -48.375       -7.857       15.732       13.121       11.565      247.509      172.157      133.759        0.149        0.028       48.619        8.960        0.034      345.875       23.720      863.066
07/08/2014  23:57:00        9.128      -28.592       -2.174       13.472       24.886       10.004      181.505      619.310      100.075        0.090        0.045       30.014       10.517        0.123      345.898       23.756      863.053
07/08/2014  23:58:00      -33.812      -12.424        4.538       24.992       14.451       10.865      624.581      208.822      118.048        0.113        0.048       36.022        7.266        0.041      345.857       23.688      863.032
07/08/2014  23:59:00      -77.684      -25.834       -4.716       17.741       16.560       12.841      314.739      274.242      164.890        0.374        0.038       81.867       10.270        0.016      345.887       23.739      863.018
